[[{"header":{"parameterUnit":"m.s-1","parameterCategory":1,"la1":30.6,"la2":29.2853,"lo1":-89.7004,"lo2":-87.6739,"dy":0.0162,"dx":0.0183,"nx":112,"ny":82,"refTime":"2023-04-13T00:00:00:Z","depth":0,"parameterNumber":2,"parameterNumberName":"U-component_of_WINDS"},"data":[0.0,0.0,0.0,0.0,0.0,0.0,0.0,0.0,0.0,0.0,0.0,0.0,0.0,0.0,0.0,0.0,0.0,0.0,0.0,0.0,0.0,0.0,0.0,0.0,0.0,0.0,0.0,0.0,0.0,0.0,0.0,0.0,0.0,0.0,0.0,0.0,0.0,0.0,0.0,0.0,0.0,0.0,0.0,0.0,0.0,0.0,0.0,0.0,0.0,0.0,0.0,0.0,0.0,0.0,0.0,0.0,0.0,0.0,0.0,0.0,0.0,0.0,0.0,0.0,0.0,0.0,0.0,0.0,0.0,0.0,0.0,0.0,0.0,0.0,0.0,0.0,0.0,0.0,0.0,0.0,0.0,0.0,0.0,0.0,0.0,0.0,0.0,0.0,0.0,0.0,0.0,0.8204,0.8585,0.8851,0.8984,0.9649,0.9864,0.9478,0.0,0.0,0.0,0.0,0.0,0.0,0.0,0.0,0.0,0.0,0.0,0.0,0.0,0.0,0.0,0.0,0.0,0.0,0.0,0.0,0.0,0.0,0.0,0.0,0.0,0.0,0.0,0.0,0.0,0.0,0.0,0.0,0.0,0.0,0.0,0.0,0.0,0.0,0.0,0.0,0.0,0.0,0.0,0.0,0.0,0.0,0.0,0.0,0.0,0.0,0.0,0.0,0.0,0.0,0.0,0.0,0.0,0.0,0.0,0.0,0.0,0.0,0.0,0.0,0.0,0.0,0.0,0.0,0.0,0.0,0.0,0.0,0.0,0.0,0.0,0.0,0.0,0.0,0.0,0.0,0.0,0.0,0.0,0.0,0.0,0.0,0.0,0.0,0.0,0.0,0.0,0.0,0.0,0.0,0.0,0.0,0.0,0.0,0.0,0.0,0.0,0.0,0.0,0.0,0.7084,0.7311,0.8705,0.925,0.8723,1.0445,1.0969,0.9612,0.0,0.0,0.0,0.0,0.0,0.0,0.0,0.0,0.0,0.0,0.0,0.0,0.0,0.0,0.0,0.0,0.0,0.0,0.0,0.0,0.0,0.0,0.0,0.0,0.0,0.0,0.0,0.0,0.0,0.0,0.0,0.0,0.0,0.0,0.0,0.0,0.0,0.0,0.0,0.0,0.0,0.0,0.0,0.0,0.0,0.0,0.0,0.0,0.0,0.0,0.0,0.0,0.0,0.0,0.0,0.0,0.0,0.0,0.0,0.0,0.0,0.0,0.0,0.0,0.0,0.0,0.0,0.0,0.0,0.0,0.0,0.0,0.0,0.0,0.0,0.0,0.0,0.0,0.0,0.0,0.0,0.0,0.0,0.0,0.0,0.0,0.0,0.0,0.0,0.0,0.0,0.0,0.0,0.0,0.0,0.0,0.0,0.0,0.0,0.0,0.0,0.0,0.0,0.7361,0.7516,0.8049,0.8876,0.9649,1.0319,1.1247,1.1644,1.1372,1.1206,0.0,0.0,0.0,0.0,0.0,0.0,0.0,0.0,0.0,0.0,0.0,0.0,0.0,0.0,0.0,0.0,0.0,0.0,0.0,0.0,0.0,0.0,0.0,0.0,0.0,0.0,0.0,0.0,0.0,0.0,0.0,0.0,0.0,0.0,0.0,0.0,0.0,0.0,0.0,0.0,0.0,0.0,0.0,0.0,0.0,0.0,0.0,0.0,0.0,0.0,0.0,0.0,0.0,0.0,0.0,0.0,0.0,0.0,0.0,0.0,0.0,0.0,0.0,0.0,0.0,0.0,0.0,0.0,0.0,0.0,0.0,0.0,0.0,0.0,0.0,0.0,0.0,0.0,0.0,0.0,0.0,0.0,0.0,0.0,0.0,0.0,0.0,0.0,0.0,0.0,0.0,0.0,0.0,0.0,0.0,0.0,0.0,0.0,0.0,0.0,0.0,0.0,0.7643,0.8178,0.8654,0.9306,1.0313,1.1512,1.1909,1.2305,1.2708,1.254,0.0,0.0,0.0,0.0,0.0,0.0,0.0,0.0,0.0,0.0,0.0,0.0,0.0,0.0,0.0,0.0,0.0,0.0,0.0,0.0,0.0,0.0,0.0,0.0,0.0,0.0,0.0,0.0,0.0,0.0,0.0,0.0,0.0,0.0,0.0,0.0,0.0,0.0,0.0,0.0,0.0,0.0,0.0,0.0,0.0,0.0,0.0,0.0,0.0,0.0,0.0,0.0,0.0,0.0,0.0,0.0,0.0,0.0,0.0,0.0,0.0,0.0,0.0,0.0,0.0,0.0,0.0,0.0,0.0,0.0,0.0,0.0,0.0,0.0,0.0,0.0,0.0,0.0,0.0,0.0,0.0,0.0,0.0,0.0,0.0,0.0,0.0,0.0,0.0,0.0,0.0,0.0,0.0,0.0,0.0,0.0,0.0,0.0,0.0,0.0,0.0,0.0,0.8059,0.8654,0.8013,1.0096,1.1512,1.1233,1.2173,1.2708,1.284,1.2653,0.0,0.0,0.0,0.0,0.0,0.0,0.0,0.0,0.0,0.0,0.0,0.0,0.0,0.0,0.0,0.0,0.0,0.0,0.0,0.0,0.0,0.0,0.0,0.0,0.0,0.0,0.0,0.0,0.0,0.0,0.0,0.0,0.0,0.0,0.0,0.0,0.0,0.0,0.0,0.0,0.0,0.0,0.0,0.0,0.0,0.0,0.0,0.0,0.0,0.0,0.0,0.0,0.0,0.0,0.0,0.0,0.0,0.0,0.0,0.0,0.0,0.0,0.0,0.0,0.0,0.0,0.0,0.0,0.0,0.0,0.0,0.0,0.0,0.0,0.0,0.0,0.0,0.0,0.0,0.0,0.0,0.0,0.0,0.0,0.0,0.0,0.0,0.0,0.0,0.0,0.0,0.0,0.0,0.0,0.0,0.0,0.0,0.0,0.0,0.0,0.0,0.0,0.8519,0.8955,0.0,1.0802,1.1637,1.2165,1.2568,1.284,1.284,0.0,0.0,0.0,0.0,0.0,0.0,0.0,0.0,0.0,0.0,0.0,0.0,0.0,0.0,0.0,0.0,0.0,0.0,0.0,0.0,0.0,0.0,0.0,0.0,0.0,0.0,0.0,0.0,0.0,0.0,0.0,0.0,0.0,0.0,0.0,0.0,0.0,0.0,0.0,0.0,0.0,0.0,0.0,0.0,0.0,0.0,0.0,0.0,0.0,0.0,0.0,0.0,0.0,0.0,0.0,0.0,0.0,0.0,0.0,0.0,0.0,0.0,0.0,0.0,0.0,0.0,0.0,0.0,0.0,0.0,0.0,0.0,0.0,0.0,0.0,0.0,0.0,0.0,0.0,0.0,0.0,0.0,0.0,0.0,0.0,0.0,0.0,0.0,0.0,0.0,0.0,0.0,0.0,0.0,0.0,0.0,0.0,0.0,0.0,0.0,0.0,0.0,0.9133,0.8996,0.9407,0.0,1.1497,1.2033,1.2708,1.284,1.284,1.284,0.0,0.0,0.0,0.0,0.0,0.0,0.0,0.0,0.0,0.0,0.0,0.0,0.0,0.0,0.0,0.0,0.0,0.0,0.0,0.0,0.0,0.0,0.0,0.0,0.0,0.0,0.0,0.0,0.0,0.0,0.0,0.0,0.0,0.0,0.0,0.0,0.0,0.0,0.0,0.0,0.0,0.0,0.0,0.0,0.0,0.0,0.0,0.0,0.0,0.0,0.0,0.0,0.0,0.0,0.0,0.0,0.0,0.0,0.0,0.0,0.0,0.0,0.0,0.0,0.0,0.0,0.0,0.0,0.0,0.0,0.0,0.0,0.0,0.0,0.0,0.0,0.0,0.0,0.0,0.0,0.0,0.0,0.0,0.0,0.0,0.0,0.0,0.0,0.0,0.0,0.0,0.0,0.0,0.0,0.0,0.0,0.0,0.0,0.0,0.0,0.0,0.0,0.8984,0.9383,1.0041,1.1101,1.2165,1.284,1.284,1.284,1.284,0.0,0.0,0.0,0.0,0.0,0.0,0.0,0.0,0.0,0.0,0.0,0.0,0.0,0.0,0.0,0.0,0.0,0.0,0.0,0.0,0.0,0.0,0.0,0.0,0.0,0.0,0.0,0.0,0.0,0.0,0.0,0.0,0.0,0.0,0.0,0.0,0.0,0.0,0.0,0.0,0.0,0.0,0.0,0.0,0.0,0.0,0.0,0.0,0.0,0.0,0.0,0.0,0.0,0.0,0.0,0.0,0.0,0.0,0.0,0.0,0.0,0.0,0.0,0.0,0.0,0.0,0.0,0.0,0.0,0.0,0.0,0.0,0.0,0.0,0.0,0.0,0.0,0.0,0.0,0.0,0.0,0.0,0.0,0.0,0.0,0.0,0.0,0.0,0.0,0.0,0.0,0.0,0.0,0.0,0.0,0.0,0.0,0.0,0.0,0.0,0.0,0.0,0.0,0.9921,0.9915,1.0306,1.2165,1.2568,1.284,1.284,1.284,1.284,1.284,0.0,0.0,0.0,0.0,0.0,0.0,0.0,0.0,0.0,0.0,0.0,0.0,0.0,0.0,0.0,0.0,0.0,0.0,0.0,0.0,0.0,0.0,0.0,0.0,0.0,0.0,0.0,0.0,0.0,0.0,0.0,0.0,0.0,0.0,0.0,0.0,0.0,0.0,0.0,0.0,0.0,0.0,0.0,0.0,0.0,0.0,0.0,0.0,0.0,0.0,0.0,0.0,0.0,0.0,0.0,0.0,0.0,0.0,0.0,0.0,0.0,0.0,0.0,0.0,0.0,0.0,0.0,0.0,0.0,0.0,0.0,0.0,0.0,0.0,0.0,0.0,0.0,0.0,0.0,0.0,0.0,0.0,0.0,0.0,0.0,0.0,0.0,0.0,0.0,0.0,0.0,0.0,0.0,0.0,0.0,0.0,0.0,0.0,0.0,0.0,0.0,0.0,1.0452,1.0445,1.0836,1.2568,1.284,1.284,1.284,1.284,1.3095,1.3613,0.0,0.0,0.0,0.0,0.0,0.0,0.0,0.0,0.0,0.0,0.0,0.0,0.0,0.0,0.0,0.0,0.0,0.0,0.0,0.0,0.0,0.0,0.0,0.0,0.0,0.0,0.0,0.0,0.0,0.0,0.0,0.0,0.0,0.0,0.0,0.0,0.0,0.0,0.0,0.0,0.0,0.0,0.0,0.0,0.0,0.0,0.0,0.0,0.0,0.0,0.0,0.0,0.0,0.0,0.0,0.0,0.0,0.0,0.0,0.0,0.0,0.0,0.0,0.0,0.0,0.0,0.0,0.0,0.0,0.0,0.0,0.0,0.0,0.0,0.0,0.0,0.0,0.0,0.0,0.0,0.0,0.0,0.0,0.0,0.0,0.0,0.0,0.0,0.0,0.0,0.0,0.0,0.0,0.0,0.0,0.0,0.0,0.0,0.0,0.0,0.0,0.0,1.0452,1.0843,1.1497,1.2568,1.2708,1.284,1.284,1.284,1.3358,1.4782,0.0,0.0,0.0,0.0,0.0,0.0,0.0,0.0,0.0,0.0,0.0,0.0,0.0,0.0,0.0,0.0,0.0,0.0,0.0,0.0,0.0,0.0,0.0,0.0,0.0,0.0,0.0,0.0,0.0,0.0,0.0,0.0,0.0,0.0,0.0,0.0,0.0,0.0,0.0,0.0,0.0,0.0,0.0,0.0,0.0,0.0,0.0,0.0,0.0,0.0,0.0,0.0,0.0,0.0,0.0,0.0,0.0,0.0,0.0,0.0,1.9852,0.0,0.0,0.0,0.0,0.0,0.0,0.0,0.0,0.0,0.0,0.0,0.0,0.0,0.0,0.0,0.0,0.0,0.0,0.0,0.0,0.0,0.0,0.0,0.0,0.0,0.0,0.0,0.0,0.0,0.0,0.0,0.0,0.0,0.0,0.0,0.0,0.0,0.0,0.0,0.0,0.0,0.925,0.9782,1.0306,1.1365,1.2297,1.284,1.284,1.284,1.3358,1.4782,1.4651,0.0,0.0,0.0,0.0,0.0,0.0,0.0,0.0,0.0,0.0,0.0,0.0,0.0,0.0,0.0,0.0,0.0,0.0,0.0,0.0,0.0,0.0,0.0,0.0,0.0,0.0,0.0,0.0,0.0,0.0,0.0,0.0,0.0,0.0,0.0,0.0,0.0,0.0,0.0,0.0,0.0,0.0,0.0,0.0,0.0,0.0,0.0,0.0,0.0,0.0,0.0,0.0,0.0,0.0,0.0,0.0,0.0,0.0,0.0,0.0,2.0735,0.0,0.0,0.0,0.0,0.0,0.0,0.0,0.0,0.0,0.0,0.0,0.0,0.0,0.0,0.0,0.0,0.0,0.0,0.0,0.0,0.0,0.0,0.0,0.0,0.0,0.0,0.0,0.0,0.0,0.0,0.0,0.0,0.0,0.0,0.0,0.0,0.0,0.0,0.0,0.0,0.9516,1.0041,1.0836,1.1901,1.2437,1.284,1.284,1.284,1.3358,1.4782,1.4259,0.0,0.0,0.0,0.0,0.0,0.0,0.0,0.0,0.0,0.0,0.0,0.0,0.0,0.0,0.0,0.0,0.0,0.0,0.0,0.0,0.0,0.0,0.0,0.0,0.0,0.0,0.0,0.0,0.0,0.0,0.0,0.0,0.0,0.0,0.0,0.0,0.0,0.0,0.0,0.0,0.0,0.0,0.0,0.0,0.0,0.0,0.0,0.0,0.0,0.0,0.0,0.0,0.0,2.1254,2.141,2.1353,2.2063,2.2782,2.3602,2.3569,2.3616,2.3447,0.0,0.0,0.0,0.0,0.0,0.0,0.0,0.0,0.0,0.0,0.0,0.0,0.0,0.0,0.0,0.0,0.0,0.0,0.0,0.0,0.0,0.0,0.0,0.0,0.0,0.8546,0.7937,0.0,0.0,0.0,0.0,0.0,0.0,0.0,0.0,0.0,0.0,0.0,0.0,0.951,1.0439,1.1233,1.2173,1.2568,1.284,1.284,1.284,1.3358,1.4782,1.3875,1.4259,0.0,0.0,0.0,0.0,0.0,0.0,0.0,0.0,0.0,0.0,0.0,0.0,0.0,0.0,0.0,0.0,0.0,0.0,0.0,0.0,0.0,0.0,0.0,0.0,0.0,0.0,0.0,0.0,0.0,0.0,0.0,0.0,2.7179,2.701,0.0,0.0,0.0,0.0,0.0,0.0,0.0,0.0,0.0,0.0,0.0,0.0,0.0,2.0786,2.0831,2.1791,2.2386,2.2292,2.3657,2.4435,2.4687,2.4838,2.5172,2.5558,2.588,0.0,2.3943,2.3661,0.0,0.0,0.0,0.0,0.0,0.0,0.0,0.0,0.0,0.0,0.0,0.0,0.0,0.0,0.0,0.0,0.0,0.0,0.0,0.0,0.0,0.0,0.8448,0.8546,0.8595,0.8478,0.0,0.8328,0.8344,0.7675,0.5499,0.0,0.0,0.0,0.0,0.0,0.0,0.0,0.7383,0.8845,0.9908,1.0041,1.1637,1.284,1.284,1.284,1.3358,1.4782,1.4782,1.4782,1.5173,1.4782,0.0,0.0,0.0,0.0,0.0,0.0,0.0,0.0,0.0,0.0,0.0,0.0,0.0,0.0,0.0,0.0,0.0,0.0,0.0,0.0,0.0,0.0,0.0,0.0,0.0,0.0,0.0,0.0,0.0,2.8094,2.7489,2.722,2.5996,2.5088,0.0,0.0,0.0,0.0,0.0,0.0,0.0,0.0,0.0,2.3095,2.2879,2.2868,2.308,2.3591,2.3894,2.3894,2.4726,2.5206,2.5378,2.5806,2.608,2.6268,2.6645,2.6474,2.5691,2.4762,2.3831,2.2736,0.0,0.0,0.0,0.0,1.8865,1.7758,1.7908,1.6794,0.0,1.3713,0.0,0.0,0.0,0.0,0.0,0.0,0.0,0.0,0.0,0.0,0.8541,0.8579,0.8595,0.8595,0.859,0.8595,0.8472,0.0,0.7125,0.6715,0.7937,0.0,0.0,0.0,0.0,0.7116,0.7512,0.8712,0.9775,1.0439,1.1901,1.284,1.284,1.284,1.3095,1.3744,1.3744,1.439,1.6073,1.452,1.4137,0.0,0.0,0.0,0.0,0.0,0.0,0.0,0.0,0.0,0.0,0.0,0.0,0.0,0.0,0.0,0.0,0.0,0.0,0.0,0.0,0.0,0.0,0.0,0.0,0.0,0.0,0.0,0.0,2.9327,2.8391,2.762,2.6645,2.5648,0.0,0.0,0.0,0.0,0.0,0.0,2.4527,2.4333,2.4419,2.4585,2.4493,2.4521,2.4812,2.4812,2.4864,2.4967,2.5241,2.5463,2.5669,2.6234,2.6542,2.6662,2.6953,2.7073,2.7056,2.5786,2.5053,2.4658,2.3429,2.2011,2.0577,2.0681,1.9888,1.8807,1.9012,1.8033,1.6333,1.4754,0.0,1.0306,0.8318,0.0,0.0,0.0,0.0,0.8622,0.8611,0.8606,0.8606,0.859,0.859,0.859,0.859,0.859,0.8456,0.0,0.8066,0.7932,0.7932,0.0,0.0,0.0,0.0,0.7116,0.7512,0.8579,0.9643,1.0704,1.1769,1.2437,1.2832,1.284,1.284,1.284,1.284,1.3875,1.6333,1.4137,1.4006,1.6462,0.0,0.0,0.0,0.0,0.0,0.0,0.0,0.0,0.0,0.0,0.0,0.0,0.0,0.0,0.0,0.0,0.0,0.0,0.0,0.0,0.0,0.0,0.0,0.0,0.0,0.0,0.0,0.0,0.0,2.879,2.8978,0.0,0.0,0.0,0.0,2.4578,2.4473,2.4545,2.4611,2.452,2.4602,2.4778,2.4795,2.4795,2.4812,2.4812,2.5001,2.5343,2.536,2.5737,2.6439,2.6473,2.6696,2.7039,2.7073,2.7073,2.7073,2.7056,2.6172,2.504,2.5024,2.3405,2.1029,2.1042,2.0182,1.906,1.9072,1.8828,1.7916,1.4874,1.1739,0.9117,0.8739,0.8745,0.0,0.0,0.8472,0.8611,0.8595,0.859,0.859,0.859,0.859,0.859,0.859,0.859,0.859,0.0,0.8323,0.8061,0.8061,0.0,0.6987,0.6987,0.6719,0.6585,0.6589,0.7517,0.8446,0.951,1.0704,1.163,1.27,1.284,1.284,1.284,1.284,1.3481,1.4912,1.3613,1.3481,1.5043,1.3613,0.0,0.0,0.0,0.0,0.0,0.0,0.0,0.0,0.0,0.0,0.0,0.0,0.0,0.0,0.0,0.0,0.0,0.0,0.0,0.0,0.0,0.0,0.0,0.0,0.0,0.0,0.0,0.0,2.889,2.876,0.0,2.6777,2.6487,2.606,2.55,2.52,2.5058,2.47,2.4717,2.4786,2.4812,2.4812,2.4932,2.5172,2.5172,2.536,2.5737,2.5977,2.6234,2.6491,2.6747,2.6936,2.7073,2.7073,2.7073,2.7073,2.7073,2.683,2.6327,2.5456,2.3946,2.2327,2.1447,2.0195,1.9072,1.9072,1.8162,1.6333,1.2923,1.0432,0.8723,0.8595,0.8728,0.8862,0.8595,0.8595,0.8595,0.859,0.859,0.859,0.859,0.859,0.859,0.859,0.859,0.859,0.859,0.8056,0.7655,0.7388,0.6987,0.6719,0.6987,0.6719,0.6455,0.6455,0.7383,0.8446,0.951,1.0571,1.163,1.27,1.284,1.284,1.284,1.3613,1.439,1.4912,1.439,1.439,1.4912,1.349,1.284,0.0,0.0,0.0,0.0,0.0,0.0,0.0,0.0,0.0,0.0,0.0,0.0,0.0,0.0,0.0,0.0,0.0,0.0,0.0,0.0,0.0,0.0,0.0,0.0,0.0,0.0,3.0231,2.9074,2.914,2.8695,2.7246,2.724,2.7102,2.6435,2.6025,2.5612,2.5238,2.5044,2.5001,2.5001,2.5121,2.5309,2.5566,2.5566,2.5754,2.6131,2.6371,2.6559,2.6696,2.6953,2.7073,2.7073,2.7073,2.7073,2.7073,2.7073,2.7073,2.6952,2.6067,2.4702,2.2952,2.2076,2.0703,1.9072,1.8816,1.7378,1.5284,1.2405,1.0439,0.925,0.8717,0.859,0.859,0.859,0.859,0.859,0.859,0.859,0.859,0.859,0.859,0.859,0.859,0.8488,0.837,0.8195,0.7794,0.7393,0.7254,0.6853,0.6585,0.6853,0.6585,0.6455,0.6455,0.7116,0.8046,0.951,1.0306,1.1233,1.27,1.284,1.284,1.284,1.3744,1.439,1.4912,1.439,1.439,1.4912,1.335,1.2576,1.2305,0.0,0.0,0.0,0.0,0.0,0.0,0.0,0.0,0.0,0.0,0.0,0.0,0.0,0.0,0.0,0.0,0.0,0.0,0.0,0.0,0.0,0.0,0.0,3.1777,3.1705,3.113,2.9642,3.021,2.987,2.7486,2.8133,2.8368,2.7492,2.6645,2.61,2.61,2.5621,2.5395,2.5395,2.5737,2.5943,2.596,2.596,2.6148,2.6508,2.6508,2.6713,2.7073,2.7073,2.7073,2.7073,2.7073,2.7073,2.7073,2.7073,2.7073,2.7073,2.7073,2.5439,2.3076,2.3076,2.1321,1.8944,1.8291,1.685,1.5154,1.3316,1.1878,1.0439,0.8984,0.859,0.859,0.859,0.859,0.8595,0.8595,0.8595,0.86,0.86,0.86,0.86,0.86,0.8423,0.8068,0.7555,0.7536,0.7536,0.7526,0.6991,0.6455,0.646,0.646,0.0,0.6464,0.6594,0.7259,0.9383,0.9649,1.0439,1.2568,1.2832,1.284,1.284,1.284,1.3481,1.4782,1.3613,1.349,1.4791,1.3104,1.1924,1.1262,0.0,0.0,0.0,0.0,0.0,0.0,0.0,0.0,0.0,0.0,0.0,0.0,0.0,0.0,0.0,0.0,0.0,0.0,0.0,0.0,0.0,0.0,3.2167,3.1823,3.1705,3.1362,3.0612,3.0627,3.0432,2.9286,2.9493,2.9237,2.8368,2.7796,2.7197,2.6532,2.6022,2.5788,2.5788,2.5874,2.6062,2.6336,2.6336,2.6525,2.6919,2.6919,2.697,2.7073,2.7073,2.7073,2.7073,2.7073,2.7073,2.7073,2.7073,2.7073,2.6952,2.6067,2.4456,2.2577,2.1699,2.0068,1.8291,1.7787,1.6602,1.5154,1.3316,1.1878,1.0439,0.8984,0.859,0.859,0.859,0.8649,0.872,0.872,0.8785,0.8851,0.8851,0.8851,0.8851,0.8851,0.874,0.8618,0.8173,0.7888,0.7566,0.6879,0.6589,0.6476,0.6541,0.6553,0.0,0.6643,0.7274,0.7897,0.8574,0.9831,1.0969,1.163,1.2305,1.284,1.284,1.3744,1.4006,1.3358,1.4006,1.3936,1.3152,1.2608,1.1998,0.0,0.0,0.0,0.0,0.0,0.0,0.0,0.0,0.0,0.0,0.0,0.0,0.0,0.0,0.0,0.0,0.0,0.0,0.0,0.0,0.0,0.0,3.2489,3.2787,3.2718,3.2072,3.1516,3.1192,3.0739,3.0475,3.0263,3.0284,3.0134,2.989,2.8823,2.807,2.751,2.6637,2.6165,2.6165,2.6336,2.6525,2.673,2.673,2.685,2.7073,2.7073,2.7073,2.7073,2.7073,2.7073,0.0,2.7227,2.7295,2.7313,2.7467,2.7535,0.0,0.0,0.0,0.0,0.0,1.9004,1.7922,1.7562,1.6936,1.5954,1.4367,1.2913,1.1473,1.0065,0.9238,0.8677,0.8725,0.8791,0.8845,0.8845,0.8899,0.8954,0.8954,0.8954,0.8954,0.8954,0.8852,0.8588,0.8263,0.7874,0.0,0.6731,0.657,0.6586,0.6639,0.6647,0.6802,0.7413,0.7917,0.8697,0.9656,1.0812,1.1567,1.2105,1.2649,0.0,0.0,0.0,1.4112,1.3987,1.3979,0.0,0.0,0.0,1.2123,1.2399,0.0,0.0,0.0,1.1205,1.0677,0.0,0.0,0.0,0.0,0.0,0.0,0.0,0.0,0.0,0.0,0.0,0.0,0.0,0.0,0.0,0.0,3.2925,3.3453,3.3935,3.2699,3.1819,3.1782,3.083,3.0243,3.0719,3.076,3.0946,3.134,2.9813,2.8823,2.871,0.0,0.0,0.0,0.0,2.7194,2.7315,2.7194,2.7073,2.7073,2.7073,2.709,2.7141,2.7141,2.7158,2.7227,2.7535,2.7672,2.7706,2.8049,2.822,2.822,2.7435,2.5437,2.2677,1.9658,1.8273,1.7906,1.7554,0.0,0.0,1.5795,1.445,1.3133,1.1653,1.0241,0.9086,0.8921,0.8959,0.897,0.897,0.8981,0.8992,0.8992,0.8992,0.8992,0.8992,0.8792,0.8404,0.7888,0.7667,0.7274,0.677,0.6741,0.6729,0.6877,0.6881,0.7301,0.8563,0.8831,0.9515,1.1462,0.0,0.0,1.3093,1.3368,1.3368,1.3368,1.3368,1.3908,1.5264,1.3651,1.3796,1.6234,1.3263,1.2182,1.3141,1.1905,1.1287,1.1409,1.124,1.1185,0.0,0.0,0.0,0.0,0.0,0.0,0.0,0.0,0.0,0.0,0.0,0.0,0.0,0.0,0.0,3.2512,3.2925,3.3453,3.3935,3.3401,3.2871,3.2849,3.1508,3.0739,3.1195,3.1236,3.1278,3.136,3.067,2.9925,2.9126,2.8491,0.0,2.8134,2.7504,2.7418,2.8241,2.7418,2.7073,2.7073,0.0,0.0,2.7501,2.7501,2.7672,2.798,2.8049,2.8083,2.8083,2.8169,2.8374,2.8358,2.5221,2.3479,2.266,1.9158,1.7883,1.7781,1.7727,1.7615,1.7379,1.602,1.5334,1.4665,1.1964,1.0987,0.0,0.9221,0.9024,0.9101,0.9101,0.9166,0.9237,0.9237,0.9237,0.9237,0.9237,0.9253,0.8976,0.8237,0.7963,0.7684,0.7085,0.6823,0.703,0.8091,0.8242,0.8697,0.9935,1.0696,1.1047,1.0633,1.2066,1.2819,1.2131,1.2956,1.3368,1.3368,1.3368,1.3368,1.336,1.2812,1.2602,1.2874,1.203,1.1674,1.1952,1.1674,1.1545,1.1565,1.1294,1.1294,0.0,0.0,0.0,0.0,0.0,0.0,0.0,0.0,0.0,0.0,0.0,3.2879,0.0,0.0,3.2971,3.3201,3.3476,3.3788,3.423,3.3592,3.3126,3.3156,3.2105,3.1521,3.1671,3.1712,3.1795,3.2043,3.1305,3.0718,3.0258,2.9536,2.9176,2.9176,2.8719,2.8719,2.9176,2.8719,2.8349,2.8078,2.8078,2.8027,2.7895,2.7895,2.8015,2.8203,2.8408,2.8494,2.8494,2.8682,2.8871,2.8748,2.589,2.4349,2.3378,2.0585,1.9125,1.8428,1.816,1.8069,1.8031,1.7076,1.6382,1.5569,1.4136,1.2572,1.1134,1.0511,0.9735,0.922,0.922,0.9264,0.9302,0.9302,0.9302,0.9302,0.9302,0.9163,0.8874,0.815,0.844,0.8579,0.7996,0.8203,0.8576,0.8627,0.9066,0.9947,1.1162,1.1674,1.2087,1.2173,1.3113,1.3665,1.3174,1.3539,1.3774,1.3774,1.3544,1.3628,1.4457,1.3154,1.3059,1.4587,1.2565,1.2043,1.2753,1.2043,1.1619,1.1613,1.1463,1.147,0.0,0.0,0.0,0.0,0.0,0.0,0.0,0.0,3.3769,3.3568,3.3568,3.3568,3.3568,3.3568,3.3706,3.4096,3.4165,3.4256,3.4527,3.3874,3.3353,3.3225,3.2619,3.2091,3.2126,3.2168,3.2333,3.2706,3.1998,3.1516,3.1285,3.0587,3.0119,3.0119,3.0077,3.0116,3.0351,3.0211,2.9822,2.9184,2.9184,2.8783,2.8306,2.8306,2.834,2.8426,2.8751,2.8888,2.8905,2.9196,2.9316,2.9168,2.7684,2.6054,2.4232,2.2271,2.0527,1.921,1.8597,1.8528,1.8567,1.8291,1.7451,1.65,1.6253,1.4364,1.2328,1.1736,1.0794,0.9809,0.9518,0.9378,0.9378,0.9378,0.9378,0.9378,0.9378,0.9232,0.8941,0.8649,0.9227,0.9658,0.9216,1.0088,1.051,0.959,1.0179,1.1214,1.2366,1.2539,1.3047,1.4067,1.4229,1.4286,1.4416,1.431,1.4229,1.4229,1.3649,1.3993,1.5417,1.3395,1.3515,1.6188,1.319,1.2187,1.346,1.2187,1.1619,1.1619,1.1619,1.1619,4.2084,4.1159,4.0,3.8049,3.7825,3.769,0.0,0.0,3.5482,3.4832,3.4624,3.4624,3.4624,3.4624,3.4647,3.4693,3.4716,3.469,3.4571,3.4486,3.4185,3.3626,3.2658,3.2147,3.2602,3.2664,3.2664,3.2727,3.2612,3.2133,3.1285,3.1169,3.1169,3.1169,3.0719,3.0911,3.1762,3.1296,3.0653,2.9581,2.9581,2.9314,2.8717,2.8717,2.8888,2.9196,2.923,2.9248,2.9248,2.9299,2.9316,2.9316,2.9036,2.7286,2.4723,2.2466,2.0695,1.9345,1.9055,1.8927,1.8949,1.853,1.825,1.783,1.6574,1.6121,1.5381,1.251,1.1744,1.1405,1.0076,0.9628,0.9628,0.9628,0.9628,0.9628,0.9628,1.0225,1.0518,1.0065,1.081,1.1256,1.0804,1.1696,1.2346,1.1928,1.1997,1.267,1.3857,1.4131,1.4228,1.4399,1.4408,1.4408,1.4432,1.4416,1.4408,1.4408,1.3948,1.3644,1.3489,1.2758,1.2386,1.2379,1.1825,1.1619,1.19,1.1619,1.1619,1.1619,1.1619,1.1619,4.2296,4.1327,4.0442,0.0,3.8595,3.826,3.7568,3.6642,3.5955,3.5568,3.5074,3.4808,3.4808,3.4808,3.49,0.0,3.5221,3.5169,3.5106,3.4736,3.4272,3.3706,3.2901,3.252,3.2706,3.2727,3.2727,3.2727,3.2727,3.2498,3.2133,3.2133,3.2235,3.2479,3.2331,3.2552,3.317,3.2995,3.2489,3.1741,3.1741,3.1471,3.0865,3.0865,3.057,3.0083,2.9561,2.9316,2.9316,2.9316,2.9316,2.9316,2.9316,2.7567,2.4873,2.391,2.2147,2.0098,1.9541,1.9262,1.9262,1.8573,1.8433,1.8293,1.7721,1.7014,1.6164,1.4864,1.4123,1.3371,1.2777,1.248,1.248,1.248,1.248,1.248,1.248,1.2628,1.248,1.1884,1.2338,1.2784,1.2047,1.294,1.3637,1.3498,1.3536,1.3722,1.4179,1.4383,1.4473,1.4578,1.4684,1.4741,1.4741,1.4651,1.4445,1.4287,1.3752,1.3401,1.3252,1.2593,1.2261,1.2261,1.2052,1.1837,1.1742,1.1742,1.1701,1.1619,1.1619,1.1619,4.2398,4.1761,4.1356,4.0149,3.955,3.9137,3.8939,3.7814,3.6692,3.6486,3.5783,3.5198,3.5198,3.5198,3.5313,3.568,3.5726,3.5625,3.5443,3.5024,3.4491,3.3727,3.3182,3.2841,3.2727,3.2727,3.2727,3.2727,3.2727,3.2789,3.2913,3.2913,3.312,3.3555,3.3699,3.3927,3.4258,3.4383,3.4105,3.3446,3.3446,3.3105,3.2384,3.2128,3.1488,3.0732,2.9691,2.9316,2.9316,2.9316,2.9316,2.9316,2.9316,2.7567,2.5008,2.5008,2.3243,2.0665,1.9959,1.968,1.9541,1.8854,1.8433,1.8433,1.8433,1.7876,1.7038,1.6596,1.5912,1.5214,1.477,1.4662,1.4695,1.4695,1.4695,1.4695,1.4695,1.4695,1.4404,1.3514,1.3964,1.4263,1.3522,1.3979,1.4578,1.4578,1.4578,1.4562,1.4513,1.4546,1.4627,1.4765,1.4887,1.4968,1.4968,1.4854,1.4629,1.4174,1.3604,1.3236,1.3236,1.2449,1.2278,1.2571,1.223,1.2006,1.1898,1.1898,1.1843,1.1742,1.1694,1.1681,4.2398,4.2385,4.249,4.0834,4.0827,4.1045,4.0236,3.939,3.8533,3.769,3.6858,3.6231,3.6231,3.6231,3.6231,3.6254,3.6254,3.6036,3.5488,3.5378,3.4936,3.3727,3.3636,3.3296,0.0,3.2727,3.2727,3.2727,3.2727,3.2913,3.3327,3.3348,3.3575,3.4031,3.4486,3.4714,3.4734,3.5169,3.4881,3.3902,3.3902,3.3398,3.2384,3.1359,3.0861,3.0732,2.9691,2.9316,2.9316,2.9316,2.9316,2.9316,2.9316,2.7567,2.5008,2.5008,2.3243,2.0665,2.0249,1.9831,1.9541,1.9122,1.8714,1.8433,1.8433,1.8595,1.8349,1.674,1.6599,1.6609,1.496,1.4789,1.4927,1.4927,1.4927,1.4927,1.4927,1.5548,1.5863,1.5097,1.5557,1.5863,1.5105,1.4952,1.4952,1.4952,1.4952,1.4887,1.4724,1.4846,1.4952,1.496,1.496,1.4968,1.4968,1.496,1.4806,1.4353,1.3883,1.3568,1.3105,1.2512,1.2284,1.2284,1.2135,1.206,1.2054,1.2054,1.2054,1.2047,1.1898,1.1677,4.2821,4.2517,4.2137,4.1261,4.1167,4.1224,4.0997,3.9853,3.8687,3.8477,3.7203,3.6277,3.6277,3.6277,3.6277,3.6277,3.6277,3.6277,3.6036,3.5268,3.4602,3.4267,3.3501,0.0,0.0,0.0,0.0,3.2727,3.2996,3.3223,3.3368,3.3658,3.4051,3.4507,3.4672,3.49,3.519,3.5355,3.517,3.4922,3.4922,3.4673,3.4278,3.2638,3.1873,3.1744,3.0083,2.9316,2.9316,2.9316,2.9316,2.9316,2.9316,2.7567,2.5008,2.5008,2.3243,2.0665,1.9959,1.968,1.9541,1.8854,1.8573,1.8466,1.8616,1.8724,1.871,1.8425,1.8474,1.8628,1.816,1.8098,1.8158,1.8158,1.8158,1.8158,1.8158,1.8471,1.8471,1.7559,1.7255,1.6797,1.588,1.542,1.4968,1.4968,1.4968,1.4944,1.4887,1.4927,1.4968,1.4968,1.4968,1.4814,1.4669,1.4669,1.4361,1.359,1.3428,1.312,1.2656,1.2454,1.2433,1.2433,1.2379,1.2311,1.221,1.221,1.2162,1.206,1.1904,1.1697,4.3067,4.2679,4.219,4.1498,4.1324,4.1198,4.0896,3.9853,3.8687,3.8372,3.7203,3.6277,3.6277,3.6277,3.6277,3.6277,3.6277,3.6277,3.6277,3.5598,3.5024,3.4825,3.3931,3.3275,0.0,0.0,0.0,3.2727,3.3141,3.3451,3.3617,3.4072,3.4527,3.4983,3.4983,3.5128,3.5418,3.5418,3.5418,3.5418,3.5418,3.5418,3.5294,3.365,3.2842,3.2464,3.0799,2.9969,2.971,2.971,2.971,2.971,2.971,2.7938,2.5344,2.5344,2.3569,2.0943,2.0274,1.9959,1.9701,1.9226,1.8834,1.8713,1.8864,1.8918,1.8982,1.9284,1.9435,1.9531,1.9682,1.9779,1.9844,1.9844,1.9844,1.9844,1.9844,1.9844,1.9693,1.8774,1.8016,1.7093,1.6339,1.5573,1.4968,1.4968,1.4968,1.4968,1.4968,1.4968,1.4968,1.4968,1.4968,1.4814,1.4361,1.4368,1.4053,1.312,1.312,1.2965,1.2501,1.2501,1.2501,1.2501,1.2501,1.2461,1.2366,1.2366,1.2318,1.2216,1.1457,1.1379,4.3163,4.29,4.2582,4.1597,4.1324,4.1123,4.0287,3.944,3.8582,3.7737,3.6904,3.6277,0.0,0.0,3.6277,3.6277,3.6277,3.6277,3.63,3.6277,3.6059,0.0,0.0,0.0,0.0,0.0,0.0,3.2809,0.0,3.3617,3.4072,3.4548,3.4983,3.5418,3.5418,3.5418,3.5418,3.5418,3.5418,3.5418,3.5438,3.5459,3.5459,3.4483,3.3564,3.2898,3.1851,3.1025,3.0429,3.0429,3.0429,3.0429,3.0429,2.8599,2.5944,2.5944,2.414,2.145,2.1185,2.0663,1.9986,2.0226,1.9726,1.9155,1.9165,1.9155,1.9155,1.9176,1.9338,1.9499,1.951,1.9682,1.9844,1.9844,1.9844,1.9844,1.9844,1.9844,1.9693,1.8774,1.8016,1.7102,1.6339,1.5573,1.4968,1.4968,1.4968,1.4968,1.4968,1.4968,1.4968,1.4968,1.4968,1.4814,1.4361,1.4368,1.4053,1.312,1.312,1.2965,1.2501,1.2501,1.2501,1.2501,1.2501,1.2501,1.2501,1.2501,1.2501,1.234,1.065,1.0387,4.3067,4.2582,4.219,4.1524,4.1324,4.1123,4.0287,3.944,3.8582,3.7737,3.6904,3.6277,0.0,0.0,0.0,3.6277,3.6277,0.0,3.6782,3.6177,0.0,3.5332,0.0,3.4104,3.355,3.363,0.0,0.0,3.3824,3.4093,3.4569,3.5004,3.5314,3.5418,3.5418,3.5418,3.5418,3.5418,3.5418,3.5418,3.5769,3.5935,3.5956,3.5248,3.4803,3.4642,3.267,3.181,3.163,3.0701,3.0429,3.0429,3.0429,2.8599,2.5944,2.5944,2.414,2.1498,2.1619,2.1233,2.0503,1.9994,1.9726,1.9468,1.9506,1.9295,1.9219,1.9575,1.9585,1.9542,1.9714,1.9801,1.9844,1.9844,1.9844,1.9844,1.9844,1.9844,1.9844,1.9542,1.8319,1.695,1.5573,1.5122,1.4968,1.4968,1.4968,1.4968,1.4968,1.4968,1.4968,1.4968,1.4968,1.4661,1.3898,1.3898,1.359,1.2656,1.2656,1.2656,1.2501,1.2501,1.2501,1.2501,1.2501,1.2501,1.2501,1.2501,1.1876,1.0624,1.1287,1.0456,4.3986,4.3443,4.2663,4.2166,4.1892,4.1409,4.0338,3.944,3.8582,3.7737,3.6904,0.0,3.6277,0.0,0.0,0.0,0.0,0.0,3.6989,3.6632,3.6477,0.0,3.5883,0.0,3.4941,3.4731,3.4631,0.0,3.4601,3.4486,3.4755,3.519,3.5418,3.5418,3.5418,3.5418,3.5418,3.5625,3.5728,3.5728,3.6183,3.6411,3.6432,3.6146,3.5831,3.5488,0.0,3.2801,3.2557,3.1323,3.0926,3.0926,3.0926,2.9067,2.6369,2.6369,2.4603,2.1993,2.2029,2.187,2.1514,2.0672,2.0195,2.0092,1.9886,1.9725,1.9693,2.0059,2.007,1.9994,2.0124,2.0167,2.0167,2.0167,2.0167,2.0167,2.0167,2.0081,1.9821,1.8946,1.8016,1.695,1.5267,1.4968,1.4968,1.4968,1.4968,1.4968,1.4968,1.4968,1.4968,1.4968,1.4968,1.4661,1.3737,1.3744,1.3428,1.2501,1.2501,1.2501,1.2501,1.2501,1.2501,1.2501,1.2501,1.2185,1.1411,1.1411,1.0474,0.8915,0.9176,0.8515,4.5357,4.4755,4.385,4.3279,4.2722,4.1928,4.0491,3.949,3.8582,3.7737,3.6904,3.6277,3.6277,3.6277,3.6277,3.6277,0.0,3.7058,3.7127,3.7517,3.7816,3.7771,3.7313,3.6946,3.6831,3.5969,3.5499,3.587,3.5428,3.5063,3.4941,3.5355,3.5604,3.5604,3.5604,3.5645,3.5707,3.6101,3.6287,3.6308,3.6763,3.6949,3.6908,3.697,3.6656,3.6077,0.0,0.0,3.3345,3.2123,3.1593,3.1628,3.1576,2.9838,2.726,2.6969,2.5242,2.2925,2.2578,2.2512,2.2505,2.1453,2.0932,2.0536,2.0298,2.0231,2.0307,2.05,2.0565,2.0565,2.0565,2.0565,2.0565,2.0565,2.0565,2.0565,2.0565,2.0404,1.9727,1.7827,1.7483,1.7023,1.5308,1.5025,1.5033,1.5009,1.5025,1.5041,1.5041,1.4992,1.4968,1.4968,1.4968,1.4661,1.3898,1.3744,1.3428,1.2656,1.2501,1.2501,1.2501,1.2501,1.2501,1.2501,1.2347,1.1411,1.0008,0.9853,0.8915,0.7205,0.6427,0.5929,4.5607,4.5382,4.5001,4.3996,4.3317,4.2515,4.1054,3.974,0.0,0.0,3.6904,3.6277,3.6277,3.6277,3.6277,3.6277,0.0,0.0,0.0,0.0,3.7839,0.0,0.0,0.0,0.0,0.0,0.0,0.0,0.0,3.6518,3.5873,3.6308,3.6556,3.6556,3.6556,3.6742,3.7136,3.7218,3.726,3.726,3.7715,3.7736,3.7384,3.7777,3.7852,3.7647,3.5588,0.0,3.4452,3.2386,3.1748,3.2004,3.1696,3.0733,2.9065,2.7747,2.6164,2.4462,2.3298,2.2781,2.2271,2.136,2.1197,2.1063,2.0353,2.035,2.0511,2.0554,2.0565,2.0565,2.0565,2.0565,2.0565,2.0565,2.0565,2.0565,2.0565,2.0533,2.0011,1.824,1.7917,1.7235,1.5524,1.5317,1.5366,1.5212,1.5325,1.5423,1.5423,1.5155,1.4968,1.4968,1.4968,1.4814,1.4361,1.3898,1.3428,1.2965,1.2656,1.2501,1.2501,1.2501,1.2501,1.2501,1.1095,1.0319,1.0008,0.8604,0.7357,0.6111,0.6904,0.5802,4.674,4.6384,4.5806,4.5329,4.4361,4.3243,4.2186,0.0,0.0,0.0,3.7227,3.6277,3.6277,3.6277,0.0,3.6277,0.0,0.0,0.0,0.0,0.0,0.0,0.0,0.0,0.0,0.0,0.0,0.0,0.0,3.7488,3.6494,3.668,3.6908,3.7156,3.6929,3.7136,3.7839,3.786,3.7964,3.8212,3.8667,3.8771,3.8564,3.8543,3.8667,3.8739,3.6269,0.0,3.5387,3.3126,3.2261,3.2398,3.2227,3.1359,2.9881,2.8238,2.6706,2.5185,2.3649,2.2817,2.2408,2.1716,2.1374,2.1179,2.0689,2.0651,2.077,2.0899,2.0931,2.0931,2.0931,2.0931,2.0931,2.0931,2.0931,2.0899,2.077,2.0737,2.0222,1.8365,1.8021,1.7362,1.5714,1.5455,1.5488,1.5398,1.5455,1.5512,1.5512,1.5358,1.5252,1.5252,1.5252,1.5096,1.4625,1.4228,1.3708,1.3248,1.2859,1.2501,1.2501,1.2501,1.2037,1.125,1.0474,0.9071,0.7353,0.6577,0.5486,0.4081,0.4238,0.3611,4.7853,4.7438,4.6643,4.6643,4.5411,4.4023,4.3339,4.1132,0.0,3.8896,3.7631,3.6472,3.6386,3.6277,3.6277,0.0,3.6691,3.7219,0.0,0.0,0.0,0.0,0.0,0.0,0.0,0.0,0.0,0.0,0.0,0.0,3.7115,3.7198,3.7405,3.7777,3.7529,3.7798,3.8605,3.8626,3.8792,3.9144,3.9516,3.964,3.9537,3.9164,3.9185,3.9378,3.6755,0.0,0.0,3.3691,3.2724,3.2792,3.2724,3.199,3.0856,2.9198,2.7683,2.6189,2.4339,2.3345,2.2712,2.2188,2.1615,2.1301,2.1004,2.0942,2.1028,2.1222,2.1276,2.1276,2.1276,2.1276,2.1276,2.1276,2.1276,2.1222,2.1028,2.0985,2.0442,1.851,1.8163,1.7677,1.5897,1.5601,1.5618,1.5577,1.5601,1.5634,1.5634,1.5634,1.5634,1.5634,1.5561,1.5353,1.4875,1.4426,1.3877,1.3411,1.295,1.2549,1.2549,1.2205,1.1411,1.0008,0.9226,0.7665,0.5014,0.4701,0.3766,0.2514,0.1728,0.1571,4.828,4.7976,4.7847,4.7308,4.6321,4.5039,4.4077,0.0,4.0287,3.9104,3.8056,3.7203,3.6472,3.6277,3.6277,3.6277,3.6691,3.7219,0.0,0.0,0.0,0.0,0.0,0.0,0.0,0.0,0.0,0.0,0.0,0.0,3.8067,3.844,3.8688,3.873,3.9081,3.9537,4.0034,4.0054,4.0054,4.0054,4.0137,3.9951,3.9537,3.9495,3.9495,3.9399,3.7086,0.0,0.0,3.3691,3.2895,3.3186,3.2826,3.2895,3.2757,3.1211,2.9549,2.7928,2.6486,2.4723,2.3164,2.2659,2.202,2.1364,2.1058,2.106,2.1254,2.1276,2.1276,2.1276,2.1276,2.1276,2.1276,2.1276,2.1276,2.1276,2.1254,2.1243,2.0748,1.8923,1.8598,1.8054,1.6096,1.5886,1.5943,1.5772,1.5894,1.5999,1.5999,1.5999,1.5999,1.5999,1.5707,1.5353,1.4867,1.4373,1.4047,1.3568,1.2944,1.2712,1.2712,1.1161,1.0164,1.0008,0.7041,0.5327,0.5014,0.3452,0.2671,0.2514,0.1728,0.0942,4.8195,4.8134,4.8032,4.7829,4.6957,4.5889,4.5078,0.0,4.1029,3.96,3.8379,3.7203,3.6472,3.6277,3.6277,3.6277,3.6438,3.7072,3.8442,0.0,0.0,0.0,0.0,0.0,0.0,0.0,0.0,0.0,0.0,0.0,4.0255,3.9269,3.9102,3.964,3.9578,3.9889,4.0613,4.0365,4.0365,4.0593,4.0613,4.053,4.0323,4.0075,4.0096,4.0183,3.8323,0.0,0.0,3.5118,3.4057,3.3597,3.3443,3.3477,3.3447,3.175,3.0038,2.8356,2.6779,2.4933,2.3211,2.2728,2.2178,2.1618,2.1286,2.12,2.1276,2.1276,2.1276,2.1276,2.1276,2.1276,2.1276,2.1276,2.1276,2.1276,2.1276,2.1276,2.079,1.8981,1.8654,1.8137,1.627,1.5999,1.6024,1.5951,1.5999,1.6048,1.6048,1.6048,1.6048,1.6048,1.5918,1.5666,1.5178,1.4761,1.4216,1.3732,1.2128,1.1249,1.1249,0.954,0.8063,0.7118,0.5658,0.4547,0.3452,0.2828,0.2514,0.2514,0.22,-0.0942,4.8511,4.8308,4.8134,4.8134,4.7326,4.645,4.5738,4.3975,4.2006,4.0345,3.8843,3.7631,3.6796,3.6472,3.6277,3.6277,3.6472,3.7146,3.8642,3.8789,0.0,0.0,0.0,0.0,0.0,0.0,0.0,0.0,0.0,0.0,0.0,4.0813,4.0067,4.0179,4.0034,4.0241,4.0862,4.0572,4.0572,4.0882,4.0882,4.0882,4.0862,4.0551,4.0593,4.0862,0.0,0.0,0.0,3.6182,3.5174,3.4273,3.3988,3.3837,3.3685,3.2435,3.1024,2.9308,2.7591,2.5714,2.3988,2.2878,2.2406,2.2084,2.1438,2.1276,2.1276,2.1276,2.1276,2.1276,2.1276,2.1276,2.1276,2.1276,2.1276,2.1276,2.1276,2.1276,2.079,1.8981,1.8654,1.8164,1.6369,1.6048,1.6048,1.6048,1.6048,1.6048,1.6048,1.6048,1.6048,1.6048,1.6048,1.5719,1.5216,1.478,1.4386,1.3732,1.1619,1.0411,1.0411,0.805,0.6248,0.5131,0.4599,0.3786,0.2527,0.2519,0.2357,0.22,0.2357,-0.2042,4.9271,4.8681,4.8134,4.8134,4.7656,4.6907,4.584,4.4637,4.3245,4.1285,3.979,3.8477,3.7631,3.6796,3.6277,3.6277,3.6989,3.7557,3.7745,0.0,0.0,0.0,0.0,0.0,0.0,0.0,0.0,0.0,0.0,0.0,0.0,4.3241,4.2058,4.022,4.0634,4.0862,4.0882,4.0862,4.0862,4.0882,4.0882,4.0882,4.0882,4.0862,4.0862,0.0,0.0,0.0,0.0,3.6627,3.5605,3.5456,3.4273,3.3837,3.3837,3.3837,3.274,3.1024,2.9308,2.7591,2.5872,2.3359,2.2567,2.2406,2.1599,2.1276,2.1276,2.1276,2.1276,2.1276,2.1276,2.1276,2.1276,2.1276,2.1276,2.1276,2.1276,2.1276,2.079,1.8981,1.8654,1.8164,1.6369,1.6048,1.6048,1.6048,1.6048,1.6048,1.6048,1.6048,1.6048,1.6048,1.6048,1.5711,1.4713,1.4713,1.4383,1.3397,1.1599,1.0536,1.0536,0.7011,0.5194,0.5032,0.3537,0.2559,0.2559,0.2529,0.2043,0.1257,0.22,-0.204,4.9465,4.9079,4.8781,4.8207,4.7993,4.7521,4.6365,4.5533,4.4345,4.1952,4.1195,4.0333,3.8359,3.8395,3.8539,3.8327,3.8635,3.9511,0.0,0.0,0.0,0.0,0.0,0.0,0.0,0.0,0.0,0.0,0.0,0.0,0.0,4.5799,4.4635,4.2322,4.1368,4.1431,4.2398,4.1431,4.0882,4.0882,4.0882,4.0882,4.0882,4.0882,0.0,0.0,0.0,0.0,0.0,3.7511,3.6349,3.5456,3.4273,3.3837,3.3837,3.3837,3.274,3.1024,2.9308,2.7889,2.6134,2.3728,2.3005,2.2784,2.1967,2.1599,2.1276,2.1276,2.1276,2.1276,2.1276,2.1276,2.1276,2.1276,2.1276,2.1276,2.1276,2.1276,2.0952,1.9795,1.9144,1.8328,1.7199,1.6377,1.6048,1.6048,1.6048,1.6048,1.6048,1.6048,1.6048,1.6048,1.6048,1.5711,1.4713,1.3542,1.2542,1.1558,0.8685,0.7006,0.7006,0.4626,0.3453,0.3453,0.2928,0.2589,0.259,0.256,0.1743,0.0314,-0.4084,-0.6285,5.0007,4.9248,4.8681,4.8207,4.8134,4.7801,4.6977,4.6174,4.5115,4.3284,4.2285,4.1392,3.9864,3.9815,3.9864,3.9467,4.0021,0.0,0.0,0.0,0.0,0.0,0.0,0.0,0.0,0.0,0.0,0.0,0.0,0.0,0.0,4.681,4.6144,4.4165,4.2224,4.141,4.2021,4.1038,4.0717,4.0882,4.0882,4.0882,4.0882,4.0882,0.0,0.0,0.0,0.0,0.0,3.8097,3.6922,3.6052,3.4423,3.3837,3.3837,3.3837,3.3213,3.1977,2.9769,2.836,2.7241,2.4142,2.2887,2.2397,2.1827,2.1438,2.1276,2.1276,2.1276,2.1276,2.1276,2.1276,2.1276,2.1276,2.1276,2.1276,2.1276,2.1276,2.1114,2.013,1.9307,1.8491,1.7527,1.6542,1.6048,1.6048,1.6048,1.6048,1.6048,1.6048,1.6048,1.6048,1.5208,1.4541,1.3707,1.2707,1.1374,0.9721,0.7045,0.5371,0.5371,0.3673,0.2664,0.2664,0.2634,0.2619,0.262,0.2579,0.1594,-0.0158,-0.6934,-0.8812,0.0,4.9346,4.8207,4.8134,4.8134,4.7931,4.7391,4.6435,0.0,4.4807,4.323,4.194,4.1889,4.1222,4.0533,4.0088,4.1053,0.0,0.0,0.0,0.0,0.0,0.0,0.0,0.0,0.0,0.0,0.0,0.0,0.0,0.0,4.6806,4.6797,4.5644,4.3218,4.151,4.0542,4.0402,4.061,4.0882,4.0882,4.0882,4.0882,4.0882,0.0,0.0,0.0,0.0,0.0,3.8389,3.7364,3.7217,3.4724,3.3837,3.3837,3.3837,3.3837,3.3416,3.0465,2.9325,2.8762,2.487,2.2819,2.1763,2.1557,2.1459,2.1276,2.1276,2.1276,2.1276,2.1276,2.1276,2.1276,2.1276,2.1276,2.1276,2.1276,2.1276,2.1114,2.0292,1.9307,1.8491,1.7691,1.6706,1.6048,1.6048,1.6048,1.6048,1.6048,1.5883,1.5875,1.5875,1.3873,1.237,1.1706,1.1535,1.0538,0.8048,0.6208,0.5203,0.5203,0.353,0.2692,0.2692,0.2664,0.2649,0.2482,0.2431,0.1282,-0.0799,-0.6806,-0.9771,5.0698,0.0,4.9542,4.8409,4.8134,4.7931,0.0,4.6764,4.5867,4.4887,4.4308,4.3635,4.2525,4.2772,4.3008,4.2528,0.0,0.0,0.0,0.0,0.0,0.0,0.0,0.0,0.0,0.0,0.0,0.0,0.0,0.0,0.0,4.8477,4.7783,4.5467,4.5348,4.4813,4.3982,4.2922,4.189,4.0882,4.0882,4.0882,4.0882,4.0882,0.0,0.0,0.0,0.0,4.0719,3.8389,3.7364,3.7217,3.4724,3.3837,3.3837,3.3837,3.3837,3.3585,3.1884,3.1386,3.1174,2.8099,2.5728,2.3868,2.3457,2.2363,2.1276,2.1276,2.1276,2.1276,2.1276,2.1276,2.1276,2.1276,2.1276,2.1276,2.1276,2.1276,2.1276,2.0952,1.9805,1.8654,1.8491,1.7026,1.6048,1.6048,1.6048,1.6048,1.6048,1.5043,1.4548,1.4548,1.3045,1.1214,0.8707,0.7873,0.7038,0.6041,0.4369,0.3363,0.3363,0.2859,0.2692,0.2692,0.2686,0.2337,0.1656,0.0988,-0.2277,-0.7689,-0.6695,-0.7599,5.1169,5.0412,4.964,4.8409,4.8134,4.8032,4.7726,4.7184,4.6556,4.5681,0.0,4.4725,4.3738,4.3929,0.0,0.0,0.0,0.0,0.0,0.0,0.0,0.0,0.0,0.0,0.0,0.0,0.0,0.0,0.0,0.0,0.0,4.8755,4.8498,4.6713,4.6841,4.5919,4.3961,4.3161,4.2183,4.0882,4.0882,4.0882,4.0882,4.0882,4.0882,0.0,0.0,0.0,4.0719,3.8389,3.7364,3.7217,3.4724,3.3837,3.3837,3.3837,3.3837,3.3602,3.2544,3.1441,3.0395,2.8483,2.6415,2.4449,2.414,2.2939,2.1609,2.1599,2.1523,2.1459,2.1577,2.1523,2.1459,2.1566,2.1513,2.1437,2.1437,2.1351,2.1114,2.079,1.9632,1.8491,1.8174,1.6862,1.6048,1.6048,1.6048,1.6048,1.6048,1.4878,1.4045,1.4045,1.1546,0.9212,0.7543,0.5538,0.4367,0.4201,0.3195,0.2692,0.2692,0.2692,0.2692,0.2692,0.2692,0.2181,0.1334,0.0498,-0.3619,-1.0271,-0.8202,-0.8282,5.1757,5.0632,4.9473,4.8509,4.8308,4.8207,4.8134,0.0,0.0,0.0,0.0,0.0,0.0,4.4722,0.0,0.0,0.0,0.0,0.0,0.0,0.0,0.0,0.0,0.0,0.0,0.0,0.0,0.0,0.0,0.0,0.0,4.8661,4.8961,4.8355,4.8021,4.6204,4.276,4.2623,4.2011,4.0882,4.1147,4.1147,4.0882,4.1147,4.1147,0.0,0.0,0.0,4.074,3.8535,3.7511,3.7217,3.5025,3.3988,3.3837,3.3837,3.3871,3.372,3.3009,3.1401,2.9383,2.8315,2.6749,2.5023,2.4794,2.3746,2.2766,2.2408,2.2045,2.1717,2.1933,2.1836,2.1728,2.1922,2.1814,2.1663,2.1631,2.1502,2.121,2.0191,1.9385,1.8585,1.7616,1.6791,1.6121,1.6089,1.6081,1.5908,1.5719,1.4548,1.3714,1.3549,0.9711,0.7208,0.7041,0.4537,0.2861,0.2692,0.2692,0.2692,0.2692,0.2692,0.2692,0.2692,0.2692,0.2188,0.1346,-0.0667,-0.4477,-0.9958,-1.0082,-1.0115,5.1757,5.1386,5.0917,4.9444,4.9079,4.898,4.8207,4.7726,0.0,0.0,0.0,0.0,0.0,0.0,0.0,0.0,0.0,0.0,0.0,0.0,0.0,0.0,0.0,0.0,0.0,0.0,0.0,0.0,0.0,0.0,0.0,4.9385,4.9445,4.8711,4.906,4.7569,4.3934,4.3266,4.2333,4.0882,4.2138,4.2138,4.0882,4.2116,4.2116,4.0882,0.0,4.0882,4.0719,3.9405,3.8243,3.7217,3.5903,3.4724,3.3837,3.3837,3.4042,3.4419,3.484,3.4065,3.2772,3.2546,3.0549,2.8043,2.8157,2.7136,2.5785,2.4597,2.309,2.1922,2.1965,2.1943,2.1922,2.1954,2.1943,2.1857,2.1663,2.176,2.1482,2.0456,1.9727,1.8848,1.8015,1.7171,1.6446,1.6292,1.6267,1.5703,1.4397,1.3217,1.189,1.0893,0.8386,0.655,0.5712,0.4537,0.3532,0.2692,0.2692,0.2692,0.2692,0.2692,0.2692,0.2692,0.2692,0.2188,0.1346,-0.5714,-0.8027,-0.6275,-0.9057,-1.0416,5.2246,5.2155,5.1941,5.0822,4.9931,4.9178,4.8781,4.8207,4.7596,0.0,0.0,0.0,0.0,0.0,0.0,0.0,0.0,0.0,0.0,0.0,0.0,0.0,0.0,0.0,0.0,0.0,0.0,0.0,0.0,0.0,0.0,0.0,5.0013,4.9188,4.8354,4.6603,4.4183,4.2678,4.1573,4.0882,4.1573,4.1573,4.0882,4.1573,4.1573,4.0882,0.0,4.0882,4.0882,3.955,3.8389,3.7217,3.6052,3.4875,3.3837,3.3837,3.4076,3.447,3.439,3.3852,3.3206,3.289,3.0954,2.8796,2.8796,2.7941,2.6588,2.6078,2.4613,2.3191,2.249,2.2256,2.2202,2.232,2.2256,2.2137,2.2029,2.1997,2.162,2.067,1.9884,1.8941,1.8095,1.7256,1.6552,1.6462,1.5692,1.4937,1.4187,1.2266,1.0726,1.0226,0.7718,0.5882,0.5379,0.4036,0.3197,0.2692,0.2692,0.2692,0.2692,0.2692,0.2692,0.2692,0.2692,0.2188,0.1346,-0.6741,-0.9928,-0.8344,-0.9783,-1.0514,5.2698,5.2698,5.2518,5.1972,5.0793,4.9737,4.964,4.898,4.8207,4.7671,0.0,0.0,0.0,0.0,0.0,0.0,0.0,0.0,0.0,0.0,0.0,0.0,0.0,0.0,0.0,0.0,0.0,0.0,0.0,0.0,0.0,0.0,5.0024,4.9307,4.7401,4.5638,4.3907,4.2257,4.1289,4.0882,4.1289,4.1289,4.0882,4.1289,4.1289,4.0882,4.0882,4.0882,4.0882,3.9838,3.8681,3.7364,3.6349,3.5157,3.3854,3.3939,3.4196,3.4418,3.4009,3.3402,3.2933,3.2381,3.0803,2.93,2.93,2.8615,2.7604,2.7435,2.6436,2.5156,2.3481,2.306,2.2791,2.2815,2.2546,2.2406,2.2342,2.2234,2.18,2.0894,2.0069,1.908,1.8228,1.7383,1.669,1.6649,1.53,1.4161,1.3957,1.164,1.006,0.9726,0.7219,0.5544,0.5041,0.3532,0.2692,0.2692,0.2692,0.2692,0.2692,0.2692,0.2692,0.2692,0.2692,0.185,0.0336,-0.6227,-0.9948,-1.078,-1.0672,-1.0596,5.2698,5.2698,5.2729,5.2608,5.2063,5.1293,5.0508,4.9737,4.905,4.8396,0.0,0.0,0.0,0.0,0.0,0.0,0.0,0.0,0.0,0.0,0.0,0.0,0.0,0.0,0.0,0.0,0.0,0.0,0.0,0.0,0.0,0.0,0.0,4.8632,4.7449,4.5708,4.3236,4.2958,4.2257,4.0882,4.2257,4.2257,4.1025,4.2257,4.2116,4.0882,4.0882,4.0882,4.0882,4.0882,3.9405,3.7364,3.7364,3.5903,3.3888,3.4231,3.459,3.4827,3.4375,3.3775,3.3249,3.2443,3.1482,3.0651,3.0651,3.0651,3.0317,2.8964,2.8601,2.7915,2.5227,2.4531,2.4189,2.302,2.2675,2.26,2.2385,2.2492,2.2224,2.1139,2.0412,1.9507,1.8645,1.7772,1.7015,1.686,1.5466,1.4103,1.2614,1.1137,0.9559,0.8395,0.7223,0.5879,0.4204,0.3195,0.2692,0.2692,0.2692,0.2692,0.2692,0.2692,0.2692,0.2692,0.2692,0.1009,-0.2352,-0.4703,-0.7558,-1.0764,-1.0737,-1.0666,5.2698,5.2698,5.2698,5.2698,5.2518,5.2033,5.1293,5.0508,4.9902,4.9679,4.8296,0.0,0.0,0.0,0.0,0.0,0.0,0.0,0.0,0.0,0.0,0.0,0.0,0.0,0.0,0.0,0.0,0.0,0.0,0.0,0.0,0.0,0.0,4.8502,4.7027,4.5278,4.3097,4.27,4.1855,4.0882,4.1431,4.1431,4.0882,4.1431,4.1431,4.0882,4.0882,4.0882,4.0882,4.0882,3.9982,3.8243,3.6775,3.5306,3.3854,3.3991,3.4145,3.435,3.4654,3.3815,3.2696,3.2975,3.1978,3.0817,3.0817,3.0817,3.0651,3.015,2.9969,2.9467,2.6758,2.5397,2.4543,2.4041,2.3365,2.2665,2.2568,2.2622,2.2309,2.1353,2.0539,1.9553,1.8689,1.7639,1.7055,1.6877,1.4794,1.3088,1.2445,1.0299,0.8729,0.8227,0.6721,0.5376,0.4036,0.3195,0.2692,0.2692,0.2692,0.2692,0.2692,0.2692,0.2692,0.2692,0.2692,0.0841,-0.2688,-0.487,-0.7558,-1.0764,-1.0742,-1.071,5.2698,5.2698,5.2698,5.2698,5.2698,5.2518,5.2063,5.1536,5.0994,5.0773,4.9379,4.7501,4.5582,0.0,0.0,0.0,0.0,0.0,0.0,0.0,0.0,0.0,0.0,0.0,0.0,0.0,0.0,0.0,0.0,0.0,0.0,0.0,0.0,0.0,4.6358,4.4595,4.3097,4.2419,4.1594,4.0882,4.0882,4.0882,4.0882,4.0882,4.0882,4.0882,4.0882,4.0882,4.0882,4.0882,4.0146,3.8951,3.6922,3.5456,3.4423,3.4423,3.4208,3.3924,3.397,3.3346,3.249,3.2476,3.1722,3.0817,3.0817,3.0817,3.0817,3.0817,3.0817,3.0317,2.8615,2.7096,2.5738,2.4885,2.4041,2.3193,2.2859,2.2686,2.2341,2.1475,2.0598,1.9553,1.8689,1.7639,1.6888,1.6245,1.4125,1.2423,1.1827,0.9651,0.806,0.806,0.6553,0.5211,0.4539,0.3363,0.2692,0.2692,0.2692,0.2692,0.2692,0.2692,0.2692,0.2692,0.2188,0.0168,-0.3191,-0.5876,-0.8399,-1.0753,-1.0742,-1.0737,5.2698,5.2698,5.2698,5.2698,0.0,5.2698,5.2729,5.2673,5.2347,5.1491,5.0254,4.8668,4.6796,0.0,0.0,0.0,0.0,0.0,0.0,0.0,0.0,0.0,0.0,0.0,0.0,0.0,0.0,0.0,0.0,0.0,0.0,0.0,0.0,0.0,4.5708,4.3814,4.3097,4.2419,4.1594,4.0882,4.0882,4.0882,4.0882,4.0882,4.0882,4.0882,4.0882,4.0882,4.0882,4.0882,4.0146,3.8971,3.7805,3.6627,3.5605,3.5605,3.5104,3.4231,3.2495,3.2332,3.2613,3.1003,3.0568,3.0817,3.0817,3.0817,3.0817,3.0817,3.0817,3.0817,3.0817,2.9802,2.811,2.5397,2.4714,2.4384,2.302,2.2686,2.2341,2.1475,2.0598,1.9553,1.8689,1.7639,1.6577,1.5154,1.3667,1.211,1.0741,0.9018,0.806,0.806,0.6553,0.5376,0.5376,0.37,0.2692,0.2692,0.2692,0.2692,0.2692,0.2692,0.2692,0.2692,0.0841,-0.1344,-0.4025,-0.7387,-0.9574,-1.0737,-1.0737,-1.0737,5.2698,5.2698,0.0,5.2698,0.0,0.0,0.0,5.3009,5.2337,0.0,4.9548,4.819,4.6714,0.0,0.0,0.0,0.0,0.0,0.0,0.0,0.0,0.0,0.0,0.0,0.0,0.0,0.0,0.0,0.0,0.0,0.0,0.0,0.0,0.0,4.6493,4.5165,4.4618,4.284,4.2138,4.2398,4.1431,4.0882,4.0882,4.0882,4.0882,4.0882,4.0882,4.0882,4.0882,4.0882,4.0146,3.9116,3.8681,3.7951,3.6922,3.6922,3.6125,3.5069,3.4248,3.3248,3.2111,3.1487,3.0899,3.0525,3.0759,3.0817,3.0817,3.0817,3.0817,3.0817,3.0817,3.0484,2.9467,2.6758,2.5397,2.4384,2.302,2.2168,2.1475,2.0424,1.9553,1.8681,1.7639,1.6393,1.5432,1.4858,1.2681,1.0511,0.9004,0.8429,0.806,0.806,0.6553,0.5376,0.5376,0.37,0.2692,0.2692,0.2692,0.2692,0.2692,0.2692,0.2188,0.1346,0.0841,-0.1512,-0.5365,-0.6376,-0.8219,-1.0737,-1.0737,-1.0737,5.2698,5.2914,0.0,5.3129,5.3314,5.356,5.3683,0.0,0.0,0.0,0.0,4.9606,0.0,0.0,0.0,0.0,0.0,0.0,0.0,0.0,0.0,0.0,0.0,0.0,0.0,0.0,0.0,0.0,0.0,0.0,0.0,0.0,0.0,0.0,4.6736,4.5549,4.5978,4.3097,4.2138,4.3097,4.1573,4.0882,4.0882,4.0882,4.0882,4.0882,4.0882,4.0882,4.0882,4.0882,4.0433,3.9838,3.9838,3.9116,3.8097,3.8097,3.6756,3.5025,3.4329,3.2967,3.1339,3.1098,3.0721,3.0407,3.0729,3.0817,3.0817,3.0817,3.0817,3.0817,3.0817,3.0484,2.9467,2.7266,2.6078,2.5056,2.3193,2.2341,2.1465,2.0076,1.9379,1.8681,1.7288,1.5866,1.4717,1.3953,1.1418,0.9247,0.8248,0.806,0.806,0.806,0.6553,0.5376,0.5376,0.37,0.2692,0.2692,0.2692,0.2524,0.185,0.185,0.1514,0.0673,-0.0336,-0.2519,-0.6038,-0.6543,-0.8219,-1.0737,-1.0737,-1.0737,5.2698,0.0,0.0,5.3714,5.4268,0.0,0.0,0.0,0.0,0.0,0.0,0.0,0.0,0.0,0.0,0.0,0.0,0.0,0.0,0.0,0.0,0.0,0.0,0.0,0.0,0.0,0.0,0.0,0.0,0.0,0.0,0.0,0.0,5.0078,4.6846,4.5661,4.7027,4.3075,4.1855,0.0,4.1714,4.0882,4.0882,4.0882,4.0882,4.0882,4.0882,4.0882,4.0882,4.0882,4.0882,4.0882,4.0882,4.0289,3.9261,3.9261,3.7326,3.4654,3.36,3.2309,3.0805,3.007,3.0218,3.0527,3.0715,3.0817,3.0817,3.0817,3.0817,3.0817,3.0817,2.9802,2.8446,2.7096,2.6758,2.5908,2.3193,2.2514,2.1984,2.025,1.9718,1.903,1.7279,1.5675,1.419,1.2469,1.0007,0.8158,0.8072,0.806,0.806,0.806,0.6382,0.5376,0.5211,0.37,0.2692,0.2524,0.2524,0.185,0.0505,0.0673,0.0505,0.0336,-0.2186,-0.4367,-0.6205,-0.7554,-0.9063,-1.0737,-1.0737,-1.0737,5.2698,5.3221,0.0,0.0,5.4607,5.5343,0.0,0.0,0.0,0.0,0.0,0.0,0.0,0.0,0.0,0.0,0.0,0.0,0.0,0.0,0.0,0.0,0.0,0.0,0.0,0.0,0.0,0.0,0.0,0.0,0.0,0.0,0.0,4.9719,4.8322,4.7773,4.8109,4.4436,4.3353,0.0,4.2116,4.0882,4.0882,4.0882,4.0882,4.0882,4.0882,4.0882,4.0882,4.0882,4.0882,4.0882,4.0882,4.0719,4.0433,4.0166,3.8971,3.7345,3.4918,3.4087,3.3534,3.0764,3.0861,3.1833,3.0972,3.0817,3.0817,3.0817,3.0817,3.0817,3.0817,2.9802,2.8446,2.7096,2.5908,2.4726,2.302,2.1465,2.0414,1.9892,1.8681,1.7279,1.5682,1.4177,1.2271,0.965,0.8497,0.8085,0.8064,0.806,0.7893,0.7056,0.6047,0.5041,0.4372,0.3363,0.2188,0.1178,0.1178,0.0504,-0.084,0.0168,-0.0336,-0.2522,-0.3026,-0.487,-0.7722,-0.7893,-0.9063,-1.0737,-1.0737,-1.0737,5.2698,0.0,0.0,5.5007,0.0,0.0,0.0,0.0,0.0,0.0,0.0,0.0,0.0,0.0,0.0,0.0,0.0,0.0,0.0,0.0,0.0,0.0,0.0,0.0,0.0,0.0,0.0,0.0,0.0,0.0,0.0,5.1596,5.122,5.0359,4.9102,4.8713,4.9307,4.5797,4.4436,4.5096,4.2936,4.1573,4.0882,4.0882,4.0882,4.0882,4.0882,4.0882,4.0882,4.0882,4.0882,4.0882,4.074,4.0596,4.0596,4.0166,3.8971,3.7492,3.5979,3.4936,3.3988,3.1653,3.1476,3.2013,3.0929,3.07,3.0817,3.0817,3.0817,3.0817,3.0817,2.93,2.7604,2.6927,2.5738,2.4201,2.2503,2.1292,2.025,1.9379,1.8506,1.7255,1.5235,1.3114,1.0704,0.8552,0.8121,0.806,0.806,0.806,0.7725,0.6721,0.5879,0.5043,0.4036,0.3195,0.2188,0.0841,0.0673,-0.0168,-0.2184,-0.168,-0.2017,-0.3362,-0.4036,-0.5547,-0.806,-0.806,-0.9063,-1.0737,-1.0737,-1.0737,5.2698,0.0,5.5068,5.6423,5.6761,0.0,0.0,0.0,0.0,0.0,0.0,0.0,0.0,0.0,0.0,0.0,0.0,0.0,0.0,0.0,0.0,0.0,0.0,0.0,0.0,0.0,0.0,0.0,0.0,0.0,5.1596,5.1596,5.1471,5.0994,4.9515,4.9127,5.0001,4.7003,4.548,4.5388,4.4049,4.2688,4.1446,4.1389,4.1147,4.0882,4.0882,4.0882,4.0882,4.0882,4.0882,4.074,4.0453,4.031,4.0166,3.9714,3.8535,3.7051,3.6756,3.57,3.4255,3.2365,3.2251,3.2459,3.0899,3.0568,3.0817,3.0817,3.0817,3.0817,3.0484,2.8628,2.6758,2.6418,2.5227,2.3525,2.1649,2.1128,2.0598,1.8819,1.7912,1.6776,1.4873,1.1892,0.955,0.8344,0.8109,0.806,0.806,0.806,0.7725,0.6553,0.5882,0.5041,0.3868,0.3197,0.2018,0.0504,0.0336,-0.0841,-0.3698,-0.37,-0.37,-0.37,-0.4878,-0.6221,-0.806,-0.806,-0.9063,-1.0737,-1.0737,-1.0737,0.0,0.0,5.5068,0.0,5.6761,5.673,0.0,0.0,0.0,0.0,0.0,0.0,0.0,0.0,0.0,0.0,0.0,0.0,0.0,0.0,0.0,0.0,0.0,0.0,0.0,0.0,0.0,0.0,0.0,0.0,5.1596,5.1596,5.1346,5.0715,5.0461,5.0078,4.9719,4.7953,4.6921,4.6466,4.499,4.4052,4.3939,4.3156,4.2138,4.0882,4.0882,4.0882,4.0882,4.0882,4.074,4.031,4.031,4.0022,3.9714,3.9445,3.9176,3.8574,3.6922,3.707,3.7293,3.3122,3.3035,3.3851,3.1209,3.0568,3.0817,3.0817,3.0817,3.0484,2.93,2.7941,2.6418,2.5227,2.3354,2.1638,2.1302,2.0598,1.9671,1.8459,1.5526,1.3152,1.2677,1.0248,0.834,0.8093,0.8068,0.806,0.806,0.806,0.7391,0.5712,0.5544,0.4707,0.3029,0.2692,0.1682,-0.084,-0.1008,-0.2184,-0.5046,-0.5216,-0.5216,-0.5216,-0.5384,-0.6221,-0.806,-0.806,-0.9063,-1.0737,-1.0737,-1.0737,5.3191,5.3991,5.4976,0.0,5.6453,5.6761,0.0,0.0,0.0,0.0,0.0,0.0,0.0,0.0,0.0,0.0,0.0,0.0,0.0,0.0,0.0,0.0,0.0,0.0,0.0,0.0,0.0,0.0,0.0,5.1596,5.1596,5.1596,5.1346,5.0867,5.0715,5.0359,4.9847,4.8749,4.7507,4.6175,4.4612,4.3553,4.2772,4.2452,4.218,4.2138,4.1289,4.0882,4.0882,4.0882,4.074,4.0596,4.0453,4.0022,3.9714,3.9321,3.903,3.872,3.7824,3.797,3.799,3.4091,3.3634,3.3814,3.0695,3.0159,3.0554,3.0554,3.0554,3.0224,2.8883,2.7416,2.5787,2.3943,2.2605,2.1258,1.9723,1.9121,1.845,1.6543,1.4145,1.2155,1.1255,0.9502,0.8109,0.8068,0.806,0.806,0.806,0.7558,0.6888,0.5544,0.4873,0.4036,0.2861,0.2018,0.0673,-0.1176,-0.2016,-0.3362,-0.5384,-0.5384,-0.5384,-0.5384,-0.5384,-0.6221,-0.806,-0.806,-0.9063,-1.0737,-1.0737,-1.0737,0.0,0.0,5.4668,5.5499,5.6084,5.6546,0.0,0.0,0.0,0.0,0.0,0.0,0.0,0.0,0.0,0.0,0.0,0.0,0.0,0.0,0.0,0.0,0.0,0.0,0.0,0.0,0.0,0.0,0.0,5.1465,5.1596,5.1596,5.1294,5.0787,5.0509,5.0079,4.9571,4.8484,4.7076,4.5621,4.4207,4.2899,4.1994,4.1724,4.2049,4.2587,4.1215,4.053,4.0551,4.0655,4.0717,4.0574,4.0269,3.9878,3.959,3.9156,3.8885,3.8574,3.8117,3.797,3.7511,3.4203,3.3398,3.3083,3.0302,2.9778,3.0232,3.0232,3.0054,2.94,2.8071,2.6579,2.4931,2.2943,2.1954,2.0782,1.8762,1.7656,1.6657,1.482,1.2978,1.1368,1.0356,0.9114,0.806,0.806,0.806,0.806,0.806,0.7558,0.6553,0.5544,0.4705,0.37,0.2355,0.1346,-0.0,-0.168,-0.2858,-0.4036,-0.5384,-0.5384,-0.5384,-0.5384,-0.5384,-0.6221,-0.7725,-0.806,-0.8896,-1.0404,-1.057,-1.0721,0.0,5.3745,0.0,5.5376,0.0,0.0,0.0,0.0,0.0,0.0,0.0,0.0,0.0,0.0,0.0,0.0,0.0,0.0,0.0,0.0,0.0,0.0,0.0,0.0,0.0,0.0,0.0,0.0,0.0,5.1047,5.157,5.1596,5.1112,4.9944,4.9794,4.9288,4.8008,4.6162,4.5242,4.5092,4.3799,4.3028,4.3051,4.2082,4.1677,4.1721,4.0267,3.9599,3.964,4.0075,3.9959,3.9718,3.9697,3.959,3.9176,3.872,3.8574,3.8428,3.6922,3.6312,3.5718,3.2538,3.157,3.1559,2.9844,2.9617,2.9895,2.9895,2.9072,2.7758,2.6436,2.5108,2.3773,2.2299,2.0792,1.9447,1.9278,1.6767,1.4477,1.4301,1.216,1.0237,1.007,0.9063,0.806,0.806,0.806,0.806,0.806,0.806,0.7391,0.5547,0.5376,0.4034,0.1009,0.0673,-0.0504,-0.3194,-0.3362,-0.4036,-0.5384,-0.5384,-0.5384,-0.5384,-0.5384,-0.5885,-0.6717,-0.7725,-0.8566,-0.9407,-1.0237,-1.0677,0.0,0.0,0.0,5.3614,0.0,0.0,0.0,0.0,0.0,0.0,0.0,0.0,0.0,0.0,0.0,0.0,0.0,0.0,0.0,0.0,0.0,0.0,0.0,0.0,0.0,0.0,0.0,0.0,0.0,0.0,5.0498,5.0253,5.0026,4.9574,4.923,4.848,4.7405,4.5917,4.4832,4.4181,4.2771,4.1615,4.0768,4.043,4.0039,3.9453,3.8937,3.8999,3.9558,3.9723,3.9672,3.9657,3.9658,3.9493,3.9176,3.903,3.8117,3.6922,3.646,3.5551,3.4203,3.2097,3.1427,3.1213,2.9531,2.9295,2.9384,2.8584,2.8103,2.7122,2.5012,2.4064,2.2958,2.1185,1.8881,1.7059,1.6875,1.5331,1.3798,1.3131,1.1421,0.9893,0.8896,0.8395,0.806,0.806,0.806,0.806,0.806,0.7558,0.6721,0.5544,0.4875,0.353,0.0841,-0.0168,-0.1344,-0.3362,-0.4204,-0.4878,-0.5384,-0.5384,-0.5384,-0.5384,-0.5384,-0.5885,-0.6721,-0.7725,-0.8531,-0.9302,-0.9633,-1.0066,5.1293,0.0,0.0,0.0,0.0,0.0,0.0,0.0,0.0,0.0,0.0,0.0,0.0,0.0,0.0,0.0,0.0,0.0,0.0,0.0,0.0,0.0,0.0,0.0,0.0,0.0,0.0,0.0,0.0,0.0,4.9871,4.9629,4.9161,4.8858,4.8095,4.7374,4.6577,4.4763,4.344,4.2587,4.0842,3.9484,3.8616,3.8616,3.8293,3.7736,3.7881,3.8378,3.9102,3.9247,3.944,3.9573,3.9434,3.9352,3.9301,3.903,3.7824,3.6164,3.5551,3.4354,3.269,3.1024,3.0423,3.0268,2.9197,2.9047,2.8892,2.7624,2.6973,2.6174,2.4082,2.282,2.1566,1.9632,1.7346,1.5703,1.5036,1.4045,1.3052,1.1718,1.0393,0.9226,0.8227,0.806,0.806,0.806,0.806,0.806,0.806,0.7558,0.6721,0.5544,0.4875,0.3194,0.0336,-0.084,-0.2016,-0.4036,-0.4878,-0.5384,-0.5384,-0.5384,-0.5384,-0.5384,-0.5384,-0.572,-0.6218,-0.7198,-0.7821,-0.8259,-0.8716,-0.9317,0.0,0.0,0.0,0.0,0.0,0.0,0.0,0.0,0.0,0.0,0.0,0.0,0.0,0.0,0.0,0.0,0.0,0.0,0.0,0.0,0.0,0.0,0.0,0.0,0.0,0.0,0.0,0.0,0.0,4.9296,4.9819,4.9456,4.8711,4.7542,4.6673,4.5905,4.5354,4.2824,4.1191,4.0541,3.7995,3.6784,3.6784,3.6784,3.6784,3.6825,3.7281,3.7736,3.8191,3.8647,3.9102,3.9419,3.9171,3.9312,3.955,3.8846,3.7511,3.5867,3.4203,3.269,3.1024,2.9353,2.8886,2.8886,2.8886,2.8886,2.8573,2.7305,2.6043,2.4786,2.3496,2.1566,1.9479,1.7855,1.6361,1.5036,1.421,1.2886,1.1724,1.0393,0.9059,0.806,0.806,0.806,0.806,0.806,0.806,0.806,0.806,0.806,0.7391,0.5712,0.5376,0.3528,-0.084,-0.1344,-0.252,-0.5216,-0.5384,-0.5384,-0.5384,-0.5384,-0.5384,-0.5382,-0.5382,-0.5382,-0.5376,-0.6151,-0.6612,-0.6608,-0.7502,-0.8267,4.9756,0.0,0.0,0.0,0.0,0.0,0.0,0.0,0.0,0.0,0.0,0.0,0.0,0.0,0.0,0.0,0.0,0.0,0.0,0.0,0.0,0.0,0.0,0.0,0.0,0.0,0.0,0.0,4.8433,4.8486,4.8643,4.7136,4.5892,4.513,4.3599,4.2678,4.2158,4.0422,3.933,3.8842,3.7148,3.6308,3.6308,3.6308,3.6494,3.6804,3.6949,3.726,3.7715,3.8171,3.8356,3.8239,3.8427,3.8445,3.8413,3.8602,3.6756,3.4354,3.3885,3.1928,2.9508,2.9042,2.8886,2.8886,2.8886,2.8886,2.8417,2.6201,2.5422,2.4455,2.1566,1.9469,1.8019,1.7527,1.5867,1.4045,1.2886,1.1558,1.056,1.0226,0.9059,0.806,0.806,0.806,0.806,0.806,0.806,0.806,0.806,0.806,0.7725,0.6385,0.5206,0.3023,-0.0168,-0.1512,-0.3194,-0.5216,-0.5384,-0.5384,-0.5384,-0.5384,-0.5363,-0.5319,-0.5319,-0.5275,-0.5188,-0.6079,-0.6588,-0.653,-0.7194,-0.7441,4.9052,4.8781,4.8781,0.0,0.0,0.0,4.9323,4.9266,0.0,0.0,0.0,0.0,0.0,0.0,0.0,0.0,0.0,0.0,0.0,0.0,0.0,0.0,0.0,0.0,0.0,0.0,0.0,4.8172,4.8172,4.7834,4.7133,4.5529,4.4157,4.3144,4.1883,4.1015,4.0531,3.9187,3.8328,3.7846,3.6413,3.5832,3.5832,3.5832,3.5976,3.6246,3.6432,3.6784,3.7239,3.7167,3.7449,3.792,3.7509,3.7236,3.7066,3.6754,3.4954,3.269,3.269,3.1024,2.8886,2.8886,2.8886,2.8886,2.8886,2.8573,2.7633,2.5727,2.4136,2.2372,2.012,1.8337,1.7191,1.6205,1.4541,1.2886,1.1552,1.0226,0.9226,0.9226,0.8562,0.806,0.806,0.806,0.806,0.806,0.806,0.806,0.806,0.806,0.7725,0.6721,0.5038,0.2855,0.0168,-0.168,-0.353,-0.5216,-0.536,-0.5346,-0.5346,-0.5322,-0.5292,-0.5256,-0.5256,-0.5207,-0.5112,-0.5668,-0.5994,-0.5925,-0.6346,-0.6462,4.8703,4.8331,4.8302,4.8246,0.0,0.0,4.7931,4.7937,4.7828,0.0,0.0,0.0,0.0,0.0,0.0,0.0,0.0,0.0,0.0,0.0,0.0,0.0,0.0,0.0,0.0,4.7756,4.7756,4.7756,4.7756,4.7056,4.5372,4.4023,4.2758,4.1633,4.0762,4.0121,3.9454,3.8431,3.7601,3.698,3.5869,3.5418,3.5418,3.5418,3.5418,3.5438,3.5727,3.6201,3.6568,3.589,3.6589,3.7839,3.6412,3.5818,3.5649,3.4127,3.2657,3.1331,3.1331,3.0268,2.8886,2.8886,2.873,2.873,2.873,2.779,2.6517,2.5263,2.2533,1.9632,1.8981,1.7837,1.6369,1.4541,1.2886,1.1552,1.0393,0.9063,0.806,0.806,0.806,0.806,0.806,0.806,0.806,0.806,0.806,0.806,0.806,0.806,0.7725,0.6888,0.5038,0.2855,0.0504,-0.168,-0.353,-0.5216,-0.5333,-0.5303,-0.5303,-0.5245,-0.521,-0.5202,-0.5188,-0.5155,-0.5101,-0.5109,-0.5079,-0.5022,-0.5076,-0.5548,4.9868,4.9595,0.0,0.0,0.0,0.0,4.7032,4.7073,4.7055,0.0,0.0,0.0,0.0,0.0,0.0,0.0,0.0,0.0,0.0,0.0,0.0,0.0,0.0,0.0,0.0,4.5036,4.4686,4.4686,4.4686,4.4519,4.4184,4.2136,4.067,4.0014,3.8059,3.6682,3.5855,3.5848,3.5683,3.5244,3.5375,3.5418,3.5418,3.5418,3.5418,3.5314,3.4649,3.4752,3.5491,3.439,3.5045,3.6289,3.4874,3.4287,3.4124,3.3613,3.2442,3.1331,3.1331,3.0268,2.8886,2.8886,2.8261,2.7305,2.7305,2.6517,2.5251,2.3976,2.1405,1.8981,1.8818,1.6681,1.4541,1.4045,1.2222,1.0393,1.0226,0.9063,0.806,0.806,0.806,0.806,0.806,0.806,0.806,0.806,0.806,0.806,0.806,0.806,0.8064,0.7893,0.4868,0.2518,0.1679,-0.168,-0.4036,-0.471,-0.5206,-0.5368,-0.5368,-0.5308,-0.5254,-0.5204,-0.5106,-0.5049,-0.5038,-0.5087,-0.5079,-0.5022,-0.5033,-0.5033,0.0,0.0,0.0,4.9567,0.0,0.0,0.0,4.6383,4.5605,0.0,0.0,0.0,0.0,0.0,0.0,0.0,0.0,0.0,0.0,0.0,0.0,0.0,0.0,0.0,0.0,4.4011,4.3777,4.3777,4.353,4.3008,4.2303,4.0472,3.9017,3.8089,3.6406,3.5211,3.4755,3.4983,3.4983,3.4755,3.5211,3.5418,3.5418,3.4922,3.4673,3.4548,3.3524,3.3514,3.4115,3.3161,3.3476,3.4228,3.3126,3.2584,3.2414,3.128,3.0588,3.0114,3.0114,2.9493,2.873,2.8104,2.7462,2.6833,2.6201,2.5092,2.3816,2.2545,2.0607,1.8654,1.8654,1.6353,1.388,1.3217,1.1552,0.9893,0.9226,0.8562,0.806,0.806,0.806,0.806,0.806,0.806,0.806,0.806,0.806,0.806,0.806,0.806,0.806,0.806,0.4843,0.2502,0.2012,-0.1671,-0.4172,-0.4669,-0.4977,-0.5281,-0.5248,-0.5191,-0.5142,-0.5112,-0.5052,-0.5022,-0.5022,-0.5052,-0.5052,-0.5022,-0.5022,-0.5489,0.0,0.0,0.0,0.0,0.0,4.7083,0.0,0.0,0.0,0.0,0.0,0.0,0.0,0.0,0.0,0.0,0.0,0.0,0.0,0.0,0.0,0.0,0.0,0.0,0.0,4.2988,4.2871,4.2871,4.2482,4.1633,4.0455,3.909,3.7932,3.6667,3.5491,3.4755,3.4755,3.4755,3.4755,3.4755,3.5211,3.5294,3.5046,3.4298,3.3796,3.3524,3.2511,3.241,3.2768,3.2041,3.2069,3.2414,3.1571,3.1181,3.0843,2.9124,2.8688,2.8812,2.8559,2.8573,2.8261,2.6991,2.6517,2.6043,2.4786,2.3668,2.2545,2.1427,1.9967,1.8654,1.8155,1.5851,1.3383,1.2056,1.0726,0.9392,0.8395,0.806,0.806,0.806,0.806,0.806,0.806,0.806,0.806,0.806,0.806,0.806,0.806,0.8048,0.8036,0.8036,0.4804,0.2477,0.2167,-0.149,-0.3958,-0.4285,-0.4739,-0.4857,-0.4811,-0.4913,-0.4876,-0.5022,-0.5022,-0.5022,-0.5022,-0.5321,-0.5321,-0.5022,-0.5321,-0.6091,0.0,0.0,0.0,0.0,4.7829,0.0,0.0,0.0,0.0,0.0,0.0,0.0,0.0,0.0,0.0,0.0,0.0,0.0,0.0,0.0,0.0,0.0,0.0,0.0,0.0,0.0,3.9823,3.9823,3.9777,3.9613,3.9495,3.8238,3.7495,3.7253,3.5713,3.4755,3.4755,3.4755,3.4755,3.4755,3.5211,3.4922,3.4047,3.3922,3.3398,3.2511,3.1488,3.1407,3.198,3.0955,3.0978,3.1649,3.0868,3.0258,2.9886,2.9225,2.8821,2.8366,2.7535,2.7148,2.6991,2.574,2.4614,2.3336,2.2073,2.1599,2.1276,2.0455,1.9469,1.8328,1.6344,1.4038,1.2056,1.056,0.9226,0.8227,0.8064,0.806,0.806,0.806,0.806,0.806,0.806,0.806,0.806,0.806,0.806,0.806,0.806,0.7995,0.795,0.795,0.4749,0.2604,0.2608,-0.1141,-0.3422,-0.3422,-0.3907,-0.4063,-0.4059,-0.4335,-0.4762,-0.5022,-0.5022,-0.5022,-0.5022,-0.6354,-0.62,-0.5019,-0.6351,-0.7084,0.0,0.0,0.0,0.0,0.0,0.0,4.4497,0.0,4.1582,0.0,0.0,0.0,0.0,0.0,0.0,0.0,0.0,0.0,0.0,0.0,0.0,0.0,0.0,0.0,0.0,0.0,0.0,0.0,3.7309,3.656,3.6215,3.5479,3.486,3.4507,3.3351,3.2627,3.2627,3.2627,3.2509,3.2394,3.3198,3.3262,3.2671,3.227,3.1873,3.1359,3.0343,3.0145,3.0478,3.0376,3.0617,3.0977,3.1203,3.0809,2.9813,2.8012,2.7478,2.7465,2.6319,2.5898,2.5727,2.4455,2.3187,2.2073,2.1438,2.1276,2.1114,2.0292,1.8808,1.7156,1.5687,1.3211,1.0726,1.0226,0.9059,0.806,0.806,0.806,0.806,0.806,0.806,0.8048,0.7995,0.8027,0.806,0.806,0.8019,0.7987,0.7987,0.7909,0.7856,0.7856,0.4695,0.2579,0.2597,-0.0969,-0.322,-0.322,-0.3679,-0.3825,-0.3825,-0.3965,-0.4261,-0.4711,-0.4678,-0.466,-0.4973,-0.6434,-0.6869,-0.6291,-0.7772,-0.9111,5.0544,0.0,0.0,0.0,0.0,0.0,0.0,0.0,0.0,0.0,0.0,0.0,0.0,0.0,0.0,0.0,0.0,0.0,0.0,0.0,0.0,0.0,0.0,0.0,0.0,0.0,0.0,3.6824,3.556,3.4571,3.4238,3.3611,3.3049,3.2574,3.1637,3.1134,3.1134,3.102,3.0869,3.0819,3.1721,3.1935,3.1402,3.0938,3.0602,3.0343,2.9561,2.9367,2.9521,3.0172,3.0498,3.0549,3.1002,3.0584,2.9405,2.7539,2.6639,2.6095,2.5066,2.4308,2.3988,2.3027,2.2073,2.1276,2.1276,2.1276,2.0952,1.9632,1.7973,1.6328,1.4526,1.205,1.006,0.9559,0.8729,0.806,0.806,0.806,0.806,0.806,0.806,0.8036,0.795,0.7987,0.8019,0.7995,0.7938,0.7897,0.7897,0.7819,0.7601,0.7114,0.4316,0.239,0.1929,-0.1118,-0.3022,-0.3022,-0.3313,-0.3454,-0.3611,-0.3601,-0.3751,-0.422,-0.4169,-0.4601,-0.5367,-0.6804,-0.7809,-0.8258,-0.959,-1.0779,0.0,0.0,0.0,4.6162,0.0,0.0,0.0,0.0,3.8862,0.0,0.0,0.0,0.0,0.0,3.7593,3.8656,0.0,0.0,0.0,0.0,0.0,0.0,0.0,0.0,0.0,0.0,0.0,3.55,3.5088,3.4799,3.4799,3.3842,3.3164,3.2734,3.1712,3.1134,3.1256,3.0857,3.0857,3.1256,3.1694,3.1276,3.0393,3.0681,3.0213,2.9316,2.9316,2.9521,2.9915,3.0275,3.0652,3.0784,2.9199,2.849,2.8357,2.8684,2.6975,2.4579,2.3572,2.2384,2.1438,2.1438,2.1276,2.1276,2.1276,2.1276,2.0779,1.8155,1.6992,1.5827,1.1878,1.056,0.9726,0.8395,0.8064,0.806,0.806,0.806,0.806,0.806,0.806,0.8036,0.795,0.7938,0.7909,0.7819,0.7807,0.7803,0.7803,0.7725,0.7027,0.5428,0.3632,0.1882,0.0157,-0.1571,-0.2515,-0.2515,-0.2515,-0.2671,-0.3139,-0.3106,-0.3242,-0.3702,-0.3657,-0.4691,-0.6499,-0.7603,-0.9171,-1.0938,-1.1377,-1.167,0.0,0.0,4.622,4.5399,0.0,0.0,0.0,0.0,0.0,0.0,0.0,0.0,0.0,0.0,3.3398,3.3819,3.2204,0.0,0.0,0.0,0.0,0.0,0.0,0.0,0.0,0.0,0.0,3.3426,3.1932,3.1146,3.1172,3.0574,3.0283,3.0139,2.9493,2.9048,2.8905,2.864,2.8638,2.8549,2.9332,2.9506,2.8898,2.9543,2.9561,2.9316,2.9316,2.8975,2.8402,2.876,2.8547,2.7971,2.8131,2.7173,2.5935,2.5321,2.4617,2.3536,2.2361,2.1599,2.1276,2.1276,2.1276,2.1276,2.1276,2.1276,2.079,1.7992,1.6336,1.4676,1.1546,0.9726,0.8729,0.8227,0.806,0.806,0.806,0.806,0.806,0.806,0.8015,0.795,0.786,0.7795,0.7766,0.7795,0.7746,0.7709,0.7709,0.6673,0.5676,0.5201,0.2514,0.0627,-0.0,-0.157,-0.2514,-0.2514,-0.2495,-0.2493,-0.2669,-0.262,-0.2907,-0.324,-0.3327,-0.4185,-0.6117,-0.7504,-0.9055,-1.0661,-1.1818,-1.2539,4.7416,4.6295,0.0,4.4157,4.1986,0.0,3.9299,0.0,0.0,0.0,0.0,0.0,0.0,0.0,0.0,3.0531,2.9128,2.7833,0.0,2.6729,0.0,0.0,0.0,0.0,0.0,0.0,3.1364,3.1615,3.0156,2.9242,0.0,0.0,2.8717,2.858,2.8323,2.7946,2.7415,2.7415,2.7051,2.6466,2.731,2.7388,2.6791,2.7507,2.7833,2.7833,2.7833,2.7359,2.6876,2.7216,2.6994,2.6401,2.6915,2.606,2.4585,2.4202,2.3353,2.2384,2.1599,2.1276,2.1276,2.1276,2.1276,2.1114,2.0607,2.0282,1.9805,1.6749,1.5058,1.3542,1.1109,0.9426,0.8232,0.8232,0.8232,0.806,0.806,0.806,0.806,0.806,0.7995,0.7741,0.7,0.6916,0.6868,0.6734,0.6691,0.6501,0.5865,0.4881,0.3916,0.329,0.1254,-0.0314,-0.0785,-0.1877,-0.2503,-0.2514,-0.2485,-0.2477,-0.2497,-0.245,-0.2894,-0.3852,-0.3746,-0.4884,-0.7455,-0.8198,-0.9435,-1.1031,-1.19,-1.2617]},{"header":{"parameterUnit":"m.s-1","parameterCategory":1,"la1":30.6,"la2":29.2853,"lo1":-89.7004,"lo2":-87.6739,"dy":0.0162,"dx":0.0183,"nx":112,"ny":82,"refTime":"2023-04-13T00:00:00:Z","depth":0,"parameterNumber":3,"parameterNumberName":"V-component_of_WINDS"},"data":[0.0,0.0,0.0,0.0,0.0,0.0,0.0,0.0,0.0,0.0,0.0,0.0,0.0,0.0,0.0,0.0,0.0,0.0,0.0,0.0,0.0,0.0,0.0,0.0,0.0,0.0,0.0,0.0,0.0,0.0,0.0,0.0,0.0,0.0,0.0,0.0,0.0,0.0,0.0,0.0,0.0,0.0,0.0,0.0,0.0,0.0,0.0,0.0,0.0,0.0,0.0,0.0,0.0,0.0,0.0,0.0,0.0,0.0,0.0,0.0,0.0,0.0,0.0,0.0,0.0,0.0,0.0,0.0,0.0,0.0,0.0,0.0,0.0,0.0,0.0,0.0,0.0,0.0,0.0,0.0,0.0,0.0,0.0,0.0,0.0,0.0,0.0,0.0,0.0,0.0,0.0,-5.8372,-6.0132,-6.1041,-6.1022,-6.092,-6.0569,-5.984,0.0,0.0,0.0,0.0,0.0,0.0,0.0,0.0,0.0,0.0,0.0,0.0,0.0,0.0,0.0,0.0,0.0,0.0,0.0,0.0,0.0,0.0,0.0,0.0,0.0,0.0,0.0,0.0,0.0,0.0,0.0,0.0,0.0,0.0,0.0,0.0,0.0,0.0,0.0,0.0,0.0,0.0,0.0,0.0,0.0,0.0,0.0,0.0,0.0,0.0,0.0,0.0,0.0,0.0,0.0,0.0,0.0,0.0,0.0,0.0,0.0,0.0,0.0,0.0,0.0,0.0,0.0,0.0,0.0,0.0,0.0,0.0,0.0,0.0,0.0,0.0,0.0,0.0,0.0,0.0,0.0,0.0,0.0,0.0,0.0,0.0,0.0,0.0,0.0,0.0,0.0,0.0,0.0,0.0,0.0,0.0,0.0,0.0,0.0,0.0,0.0,0.0,0.0,0.0,-5.6668,-5.849,-6.0036,-6.0982,-6.1099,-6.0789,-6.0657,-6.0689,0.0,0.0,0.0,0.0,0.0,0.0,0.0,0.0,0.0,0.0,0.0,0.0,0.0,0.0,0.0,0.0,0.0,0.0,0.0,0.0,0.0,0.0,0.0,0.0,0.0,0.0,0.0,0.0,0.0,0.0,0.0,0.0,0.0,0.0,0.0,0.0,0.0,0.0,0.0,0.0,0.0,0.0,0.0,0.0,0.0,0.0,0.0,0.0,0.0,0.0,0.0,0.0,0.0,0.0,0.0,0.0,0.0,0.0,0.0,0.0,0.0,0.0,0.0,0.0,0.0,0.0,0.0,0.0,0.0,0.0,0.0,0.0,0.0,0.0,0.0,0.0,0.0,0.0,0.0,0.0,0.0,0.0,0.0,0.0,0.0,0.0,0.0,0.0,0.0,0.0,0.0,0.0,0.0,0.0,0.0,0.0,0.0,0.0,0.0,0.0,0.0,0.0,0.0,-5.6869,-5.807,-5.9142,-6.0288,-6.092,-6.085,-6.0685,-6.061,-6.0622,-5.9024,0.0,0.0,0.0,0.0,0.0,0.0,0.0,0.0,0.0,0.0,0.0,0.0,0.0,0.0,0.0,0.0,0.0,0.0,0.0,0.0,0.0,0.0,0.0,0.0,0.0,0.0,0.0,0.0,0.0,0.0,0.0,0.0,0.0,0.0,0.0,0.0,0.0,0.0,0.0,0.0,0.0,0.0,0.0,0.0,0.0,0.0,0.0,0.0,0.0,0.0,0.0,0.0,0.0,0.0,0.0,0.0,0.0,0.0,0.0,0.0,0.0,0.0,0.0,0.0,0.0,0.0,0.0,0.0,0.0,0.0,0.0,0.0,0.0,0.0,0.0,0.0,0.0,0.0,0.0,0.0,0.0,0.0,0.0,0.0,0.0,0.0,0.0,0.0,0.0,0.0,0.0,0.0,0.0,0.0,0.0,0.0,0.0,0.0,0.0,0.0,0.0,0.0,-5.8054,-5.9124,-5.9688,-6.046,-6.0811,-6.0635,-6.0559,-6.048,-6.0436,-5.8994,0.0,0.0,0.0,0.0,0.0,0.0,0.0,0.0,0.0,0.0,0.0,0.0,0.0,0.0,0.0,0.0,0.0,0.0,0.0,0.0,0.0,0.0,0.0,0.0,0.0,0.0,0.0,0.0,0.0,0.0,0.0,0.0,0.0,0.0,0.0,0.0,0.0,0.0,0.0,0.0,0.0,0.0,0.0,0.0,0.0,0.0,0.0,0.0,0.0,0.0,0.0,0.0,0.0,0.0,0.0,0.0,0.0,0.0,0.0,0.0,0.0,0.0,0.0,0.0,0.0,0.0,0.0,0.0,0.0,0.0,0.0,0.0,0.0,0.0,0.0,0.0,0.0,0.0,0.0,0.0,0.0,0.0,0.0,0.0,0.0,0.0,0.0,0.0,0.0,0.0,0.0,0.0,0.0,0.0,0.0,0.0,0.0,0.0,0.0,0.0,0.0,0.0,-5.922,-5.9688,-5.9856,-6.0333,-6.0635,-6.0608,-6.0506,-6.0436,-6.0408,-5.9529,0.0,0.0,0.0,0.0,0.0,0.0,0.0,0.0,0.0,0.0,0.0,0.0,0.0,0.0,0.0,0.0,0.0,0.0,0.0,0.0,0.0,0.0,0.0,0.0,0.0,0.0,0.0,0.0,0.0,0.0,0.0,0.0,0.0,0.0,0.0,0.0,0.0,0.0,0.0,0.0,0.0,0.0,0.0,0.0,0.0,0.0,0.0,0.0,0.0,0.0,0.0,0.0,0.0,0.0,0.0,0.0,0.0,0.0,0.0,0.0,0.0,0.0,0.0,0.0,0.0,0.0,0.0,0.0,0.0,0.0,0.0,0.0,0.0,0.0,0.0,0.0,0.0,0.0,0.0,0.0,0.0,0.0,0.0,0.0,0.0,0.0,0.0,0.0,0.0,0.0,0.0,0.0,0.0,0.0,0.0,0.0,0.0,0.0,0.0,0.0,0.0,0.0,-5.9668,-5.992,0.0,-6.0488,-6.0572,-6.0468,-6.0425,-6.0408,-6.0408,0.0,0.0,0.0,0.0,0.0,0.0,0.0,0.0,0.0,0.0,0.0,0.0,0.0,0.0,0.0,0.0,0.0,0.0,0.0,0.0,0.0,0.0,0.0,0.0,0.0,0.0,0.0,0.0,0.0,0.0,0.0,0.0,0.0,0.0,0.0,0.0,0.0,0.0,0.0,0.0,0.0,0.0,0.0,0.0,0.0,0.0,0.0,0.0,0.0,0.0,0.0,0.0,0.0,0.0,0.0,0.0,0.0,0.0,0.0,0.0,0.0,0.0,0.0,0.0,0.0,0.0,0.0,0.0,0.0,0.0,0.0,0.0,0.0,0.0,0.0,0.0,0.0,0.0,0.0,0.0,0.0,0.0,0.0,0.0,0.0,0.0,0.0,0.0,0.0,0.0,0.0,0.0,0.0,0.0,0.0,0.0,0.0,0.0,0.0,0.0,0.0,0.0,-6.021,-6.0191,-6.0246,0.0,-6.0559,-6.0494,-6.0436,-6.0408,-6.0408,-6.0408,0.0,0.0,0.0,0.0,0.0,0.0,0.0,0.0,0.0,0.0,0.0,0.0,0.0,0.0,0.0,0.0,0.0,0.0,0.0,0.0,0.0,0.0,0.0,0.0,0.0,0.0,0.0,0.0,0.0,0.0,0.0,0.0,0.0,0.0,0.0,0.0,0.0,0.0,0.0,0.0,0.0,0.0,0.0,0.0,0.0,0.0,0.0,0.0,0.0,0.0,0.0,0.0,0.0,0.0,0.0,0.0,0.0,0.0,0.0,0.0,0.0,0.0,0.0,0.0,0.0,0.0,0.0,0.0,0.0,0.0,0.0,0.0,0.0,0.0,0.0,0.0,0.0,0.0,0.0,0.0,0.0,0.0,0.0,0.0,0.0,0.0,0.0,0.0,0.0,0.0,0.0,0.0,0.0,0.0,0.0,0.0,0.0,0.0,0.0,0.0,0.0,0.0,-6.1022,-6.0962,-6.0817,-6.0633,-6.0468,-6.0408,-6.0408,-6.0408,-6.0408,0.0,0.0,0.0,0.0,0.0,0.0,0.0,0.0,0.0,0.0,0.0,0.0,0.0,0.0,0.0,0.0,0.0,0.0,0.0,0.0,0.0,0.0,0.0,0.0,0.0,0.0,0.0,0.0,0.0,0.0,0.0,0.0,0.0,0.0,0.0,0.0,0.0,0.0,0.0,0.0,0.0,0.0,0.0,0.0,0.0,0.0,0.0,0.0,0.0,0.0,0.0,0.0,0.0,0.0,0.0,0.0,0.0,0.0,0.0,0.0,0.0,0.0,0.0,0.0,0.0,0.0,0.0,0.0,0.0,0.0,0.0,0.0,0.0,0.0,0.0,0.0,0.0,0.0,0.0,0.0,0.0,0.0,0.0,0.0,0.0,0.0,0.0,0.0,0.0,0.0,0.0,0.0,0.0,0.0,0.0,0.0,0.0,0.0,0.0,0.0,0.0,0.0,0.0,-6.0916,-6.0877,-6.0773,-6.0468,-6.0425,-6.0408,-6.0408,-6.0408,-6.0408,-6.0408,0.0,0.0,0.0,0.0,0.0,0.0,0.0,0.0,0.0,0.0,0.0,0.0,0.0,0.0,0.0,0.0,0.0,0.0,0.0,0.0,0.0,0.0,0.0,0.0,0.0,0.0,0.0,0.0,0.0,0.0,0.0,0.0,0.0,0.0,0.0,0.0,0.0,0.0,0.0,0.0,0.0,0.0,0.0,0.0,0.0,0.0,0.0,0.0,0.0,0.0,0.0,0.0,0.0,0.0,0.0,0.0,0.0,0.0,0.0,0.0,0.0,0.0,0.0,0.0,0.0,0.0,0.0,0.0,0.0,0.0,0.0,0.0,0.0,0.0,0.0,0.0,0.0,0.0,0.0,0.0,0.0,0.0,0.0,0.0,0.0,0.0,0.0,0.0,0.0,0.0,0.0,0.0,0.0,0.0,0.0,0.0,0.0,0.0,0.0,0.0,0.0,0.0,-6.0827,-6.0789,-6.0681,-6.0425,-6.0408,-6.0408,-6.0408,-6.0408,-6.0313,-6.0159,0.0,0.0,0.0,0.0,0.0,0.0,0.0,0.0,0.0,0.0,0.0,0.0,0.0,0.0,0.0,0.0,0.0,0.0,0.0,0.0,0.0,0.0,0.0,0.0,0.0,0.0,0.0,0.0,0.0,0.0,0.0,0.0,0.0,0.0,0.0,0.0,0.0,0.0,0.0,0.0,0.0,0.0,0.0,0.0,0.0,0.0,0.0,0.0,0.0,0.0,0.0,0.0,0.0,0.0,0.0,0.0,0.0,0.0,0.0,0.0,0.0,0.0,0.0,0.0,0.0,0.0,0.0,0.0,0.0,0.0,0.0,0.0,0.0,0.0,0.0,0.0,0.0,0.0,0.0,0.0,0.0,0.0,0.0,0.0,0.0,0.0,0.0,0.0,0.0,0.0,0.0,0.0,0.0,0.0,0.0,0.0,0.0,0.0,0.0,0.0,0.0,0.0,-6.0827,-6.0719,-6.0559,-6.0425,-6.0436,-6.0408,-6.0408,-6.0408,-6.0256,-5.9842,0.0,0.0,0.0,0.0,0.0,0.0,0.0,0.0,0.0,0.0,0.0,0.0,0.0,0.0,0.0,0.0,0.0,0.0,0.0,0.0,0.0,0.0,0.0,0.0,0.0,0.0,0.0,0.0,0.0,0.0,0.0,0.0,0.0,0.0,0.0,0.0,0.0,0.0,0.0,0.0,0.0,0.0,0.0,0.0,0.0,0.0,0.0,0.0,0.0,0.0,0.0,0.0,0.0,0.0,0.0,0.0,0.0,0.0,0.0,0.0,-5.0076,0.0,0.0,0.0,0.0,0.0,0.0,0.0,0.0,0.0,0.0,0.0,0.0,0.0,0.0,0.0,0.0,0.0,0.0,0.0,0.0,0.0,0.0,0.0,0.0,0.0,0.0,0.0,0.0,0.0,0.0,0.0,0.0,0.0,0.0,0.0,0.0,0.0,0.0,0.0,0.0,0.0,-6.0982,-6.0899,-6.0773,-6.0584,-6.0441,-6.0408,-6.0408,-6.0408,-6.0256,-5.9842,-5.9874,0.0,0.0,0.0,0.0,0.0,0.0,0.0,0.0,0.0,0.0,0.0,0.0,0.0,0.0,0.0,0.0,0.0,0.0,0.0,0.0,0.0,0.0,0.0,0.0,0.0,0.0,0.0,0.0,0.0,0.0,0.0,0.0,0.0,0.0,0.0,0.0,0.0,0.0,0.0,0.0,0.0,0.0,0.0,0.0,0.0,0.0,0.0,0.0,0.0,0.0,0.0,0.0,0.0,0.0,0.0,0.0,0.0,0.0,0.0,0.0,-5.1321,0.0,0.0,0.0,0.0,0.0,0.0,0.0,0.0,0.0,0.0,0.0,0.0,0.0,0.0,0.0,0.0,0.0,0.0,0.0,0.0,0.0,0.0,0.0,0.0,0.0,0.0,0.0,0.0,0.0,0.0,0.0,0.0,0.0,0.0,0.0,0.0,0.0,0.0,0.0,0.0,-6.0941,-6.0817,-6.0681,-6.052,-6.0453,-6.0408,-6.0408,-6.0408,-6.0256,-5.9842,-5.9969,0.0,0.0,0.0,0.0,0.0,0.0,0.0,0.0,0.0,0.0,0.0,0.0,0.0,0.0,0.0,0.0,0.0,0.0,0.0,0.0,0.0,0.0,0.0,0.0,0.0,0.0,0.0,0.0,0.0,0.0,0.0,0.0,0.0,0.0,0.0,0.0,0.0,0.0,0.0,0.0,0.0,0.0,0.0,0.0,0.0,0.0,0.0,0.0,0.0,0.0,0.0,0.0,0.0,-5.0685,-5.0746,-5.0304,-5.2294,-5.2709,-5.1789,-5.2019,-5.2426,-5.2973,0.0,0.0,0.0,0.0,0.0,0.0,0.0,0.0,0.0,0.0,0.0,0.0,0.0,0.0,0.0,0.0,0.0,0.0,0.0,0.0,0.0,0.0,0.0,0.0,0.0,-6.0809,-6.1324,0.0,0.0,0.0,0.0,0.0,0.0,0.0,0.0,0.0,0.0,0.0,0.0,-6.0902,-6.075,-6.0608,-6.0506,-6.0425,-6.0408,-6.0408,-6.0408,-6.0256,-5.9842,-6.0099,-5.9969,0.0,0.0,0.0,0.0,0.0,0.0,0.0,0.0,0.0,0.0,0.0,0.0,0.0,0.0,0.0,0.0,0.0,0.0,0.0,0.0,0.0,0.0,0.0,0.0,0.0,0.0,0.0,0.0,0.0,0.0,0.0,0.0,-4.3495,-4.3647,0.0,0.0,0.0,0.0,0.0,0.0,0.0,0.0,0.0,0.0,0.0,0.0,0.0,-4.9568,-4.9676,-5.0116,-5.0281,-5.0365,-5.0732,-5.1229,-5.1758,-5.2075,-5.2478,-5.2986,-5.3655,0.0,-5.3778,-5.3774,0.0,0.0,0.0,0.0,0.0,0.0,0.0,0.0,0.0,0.0,0.0,0.0,0.0,0.0,0.0,0.0,0.0,0.0,0.0,0.0,0.0,0.0,-6.0112,-6.0809,-6.1157,-6.1291,0.0,-6.1194,-6.131,-6.1397,-6.1316,0.0,0.0,0.0,0.0,0.0,0.0,0.0,-6.1236,-6.1003,-6.0839,-6.0817,-6.0572,-6.0408,-6.0408,-6.0408,-6.0256,-5.9842,-5.9842,-5.9842,-5.9744,-5.9842,0.0,0.0,0.0,0.0,0.0,0.0,0.0,0.0,0.0,0.0,0.0,0.0,0.0,0.0,0.0,0.0,0.0,0.0,0.0,0.0,0.0,0.0,0.0,0.0,0.0,0.0,0.0,0.0,0.0,-4.3469,-4.3992,-4.3562,-4.4801,-4.5494,0.0,0.0,0.0,0.0,0.0,0.0,0.0,0.0,0.0,-4.9528,-4.9628,-4.9891,-5.0353,-5.059,-5.0664,-5.0664,-5.1262,-5.1681,-5.2032,-5.2909,-5.3471,-5.3857,-5.463,-5.4886,-5.4783,-5.4652,-5.4809,-5.523,0.0,0.0,0.0,0.0,-5.6792,-5.7189,-5.7674,-5.809,0.0,-5.8813,0.0,0.0,0.0,0.0,0.0,0.0,0.0,0.0,0.0,0.0,-6.077,-6.1041,-6.1157,-6.1157,-6.1118,-6.1157,-6.1253,0.0,-6.1345,-6.1313,-6.1324,0.0,0.0,0.0,0.0,-6.1268,-6.1181,-6.1022,-6.086,-6.075,-6.052,-6.0408,-6.0408,-6.0408,-6.0313,-6.0129,-6.0129,-5.9937,-5.9467,-5.9906,-6.0038,0.0,0.0,0.0,0.0,0.0,0.0,0.0,0.0,0.0,0.0,0.0,0.0,0.0,0.0,0.0,0.0,0.0,0.0,0.0,0.0,0.0,0.0,0.0,0.0,0.0,0.0,0.0,0.0,-4.3073,-4.3928,-4.3355,-4.5009,-4.6032,0.0,0.0,0.0,0.0,0.0,0.0,-4.8398,-4.8539,-4.8977,-4.9853,-4.9942,-5.0276,-5.0873,-5.0873,-5.0978,-5.1189,-5.1751,-5.2207,-5.2628,-5.3787,-5.4419,-5.4665,-5.5262,-5.5507,-5.5472,-5.5299,-5.5292,-5.5384,-5.5194,-5.5523,-5.6153,-5.6822,-5.7353,-5.7881,-5.8512,-5.8984,-5.9397,-5.9728,0.0,-6.0773,-6.1116,0.0,0.0,0.0,0.0,-6.135,-6.1273,-6.1234,-6.1234,-6.1118,-6.1118,-6.1118,-6.1118,-6.1118,-6.1137,0.0,-6.1268,-6.1286,-6.1286,0.0,0.0,0.0,0.0,-6.1268,-6.1181,-6.1041,-6.0882,-6.0704,-6.0546,-6.0453,-6.037,-6.0408,-6.0408,-6.0408,-6.0408,-6.0099,-5.9397,-6.0038,-6.0068,-5.9361,0.0,0.0,0.0,0.0,0.0,0.0,0.0,0.0,0.0,0.0,0.0,0.0,0.0,0.0,0.0,0.0,0.0,0.0,0.0,0.0,0.0,0.0,0.0,0.0,0.0,0.0,0.0,0.0,0.0,-4.2682,-4.4199,0.0,0.0,0.0,0.0,-4.7977,-4.8031,-4.8432,-4.9361,-4.945,-4.9888,-5.0803,-5.0838,-5.0838,-5.0873,-5.0873,-5.1259,-5.1961,-5.1997,-5.2769,-5.4208,-5.4279,-5.4735,-5.5437,-5.5507,-5.5507,-5.5507,-5.5472,-5.5808,-5.624,-5.6204,-5.6855,-5.7776,-5.7813,-5.8201,-5.8661,-5.8698,-5.8818,-5.9061,-5.9658,-6.0393,-6.1002,-6.1215,-6.1254,0.0,0.0,-6.1253,-6.1273,-6.1157,-6.1118,-6.1118,-6.1118,-6.1118,-6.1118,-6.1118,-6.1118,-6.1118,0.0,-6.1155,-6.1229,-6.1229,0.0,-6.1322,-6.1322,-6.1352,-6.1366,-6.1405,-6.122,-6.1059,-6.0902,-6.0704,-6.0533,-6.0398,-6.0408,-6.0408,-6.0408,-6.0408,-6.0188,-5.9809,-6.0159,-6.0188,-5.9777,-6.0159,0.0,0.0,0.0,0.0,0.0,0.0,0.0,0.0,0.0,0.0,0.0,0.0,0.0,0.0,0.0,0.0,0.0,0.0,0.0,0.0,0.0,0.0,0.0,0.0,0.0,0.0,0.0,0.0,-4.3649,-4.5362,0.0,-4.638,-4.6816,-4.7501,-4.8467,-4.8667,-4.9179,-5.0363,-5.0398,-5.0538,-5.0873,-5.0873,-5.1119,-5.161,-5.161,-5.1997,-5.2769,-5.326,-5.3787,-5.4314,-5.484,-5.5227,-5.5507,-5.5507,-5.5507,-5.5507,-5.5507,-5.5625,-5.5822,-5.6182,-5.6757,-5.7413,-5.7747,-5.8238,-5.8698,-5.8698,-5.8945,-5.9397,-6.0151,-6.0712,-6.1099,-6.1157,-6.1138,-6.1119,-6.1157,-6.1157,-6.1157,-6.1118,-6.1118,-6.1118,-6.1118,-6.1118,-6.1118,-6.1118,-6.1118,-6.1118,-6.1118,-6.1191,-6.1242,-6.1275,-6.1322,-6.1352,-6.1322,-6.1352,-6.1419,-6.1419,-6.1236,-6.1059,-6.0902,-6.0727,-6.0533,-6.0398,-6.0408,-6.0408,-6.0408,-6.0159,-5.9937,-5.9809,-5.9937,-5.9937,-5.9809,-6.0226,-6.0408,0.0,0.0,0.0,0.0,0.0,0.0,0.0,0.0,0.0,0.0,0.0,0.0,0.0,0.0,0.0,0.0,0.0,0.0,0.0,0.0,0.0,0.0,0.0,0.0,0.0,0.0,-4.482,-4.4556,-4.6185,-4.7287,-4.7192,-4.742,-4.7903,-4.8942,-4.9205,-4.9729,-5.062,-5.1064,-5.1259,-5.1259,-5.1505,-5.1891,-5.2418,-5.2418,-5.2804,-5.3576,-5.4068,-5.4454,-5.4735,-5.5262,-5.5507,-5.5507,-5.5507,-5.5507,-5.5507,-5.5507,-5.5507,-5.5566,-5.5901,-5.6474,-5.7166,-5.751,-5.806,-5.8698,-5.8781,-5.914,-5.9635,-6.03,-6.075,-6.0982,-6.106,-6.1118,-6.1118,-6.1118,-6.1118,-6.1118,-6.1118,-6.1118,-6.1118,-6.1118,-6.1118,-6.1118,-6.1118,-6.1369,-6.1503,-6.1212,-6.1264,-6.1314,-6.1291,-6.1337,-6.1366,-6.1337,-6.1366,-6.1419,-6.1419,-6.1268,-6.1113,-6.0902,-6.0773,-6.0608,-6.0398,-6.0408,-6.0408,-6.0408,-6.0129,-5.9937,-5.9809,-5.9937,-5.9937,-5.9809,-6.0217,-6.0464,-6.048,0.0,0.0,0.0,0.0,0.0,0.0,0.0,0.0,0.0,0.0,0.0,0.0,0.0,0.0,0.0,0.0,0.0,0.0,0.0,0.0,0.0,0.0,0.0,-4.3737,-4.4655,-4.5295,-4.5212,-4.652,-4.7571,-4.809,-4.8483,-4.8889,-4.9342,-4.9849,-5.0137,-5.0137,-5.1389,-5.2067,-5.2067,-5.2769,-5.319,-5.3225,-5.3225,-5.3612,-5.4349,-5.4349,-5.477,-5.5507,-5.5507,-5.5507,-5.5507,-5.5507,-5.5507,-5.5507,-5.5507,-5.5507,-5.5507,-5.5507,-5.6146,-5.7116,-5.7116,-5.7794,-5.8739,-5.8905,-5.9252,-5.9668,-6.0065,-6.0406,-6.075,-6.1022,-6.1118,-6.1118,-6.1118,-6.1118,-6.1157,-6.1157,-6.1157,-6.1195,-6.1195,-6.1195,-6.1195,-6.1195,-6.189,-6.2331,-6.153,-6.1375,-6.1375,-6.1297,-6.1361,-6.1419,-6.1458,-6.1458,0.0,-6.1497,-6.1444,-6.133,-6.0962,-6.092,-6.075,-6.0425,-6.037,-6.0408,-6.0408,-6.0408,-6.0188,-5.9842,-6.0159,-6.0226,-5.988,-6.0352,-6.0635,-6.0762,0.0,0.0,0.0,0.0,0.0,0.0,0.0,0.0,0.0,0.0,0.0,0.0,0.0,0.0,0.0,0.0,0.0,0.0,0.0,0.0,0.0,0.0,-4.4275,-4.3801,-4.4655,-4.5419,-4.5599,-4.6714,-4.7539,-4.8025,-4.8127,-4.842,-4.8889,-4.9888,-5.0617,-5.0968,-5.2193,-5.2874,-5.2874,-5.305,-5.3436,-5.3998,-5.3998,-5.4384,-5.5191,-5.5191,-5.5297,-5.5507,-5.5507,-5.5507,-5.5507,-5.5507,-5.5507,-5.5507,-5.5507,-5.5507,-5.5566,-5.5901,-5.6582,-5.7315,-5.7653,-5.8282,-5.8905,-5.91,-5.9363,-5.9668,-6.0065,-6.0406,-6.075,-6.1022,-6.1118,-6.1118,-6.1118,-6.1543,-6.2046,-6.2046,-6.2511,-6.2975,-6.2975,-6.2975,-6.2975,-6.2975,-6.3187,-6.3322,-6.3145,-6.3103,-6.2749,-6.157,-6.1405,-6.1614,-6.2235,-6.2352,0.0,-6.3206,-6.2626,-6.2078,-6.1988,-6.1208,-6.0657,-6.0533,-6.048,-6.0408,-6.0408,-6.0129,-6.0068,-6.0256,-6.0068,-6.0365,-6.122,-6.1972,-6.2452,0.0,0.0,0.0,0.0,0.0,0.0,0.0,0.0,0.0,0.0,0.0,0.0,0.0,0.0,0.0,0.0,0.0,0.0,0.0,0.0,0.0,0.0,-4.4717,-4.5128,-4.5033,-4.5591,-4.6072,-4.6245,-4.7108,-4.7836,-4.8431,-4.8465,-4.8696,-4.9258,-5.043,-5.1165,-5.1468,-5.2846,-5.3647,-5.3647,-5.3998,-5.4384,-5.4805,-5.4805,-5.5051,-5.5507,-5.5507,-5.5507,-5.5507,-5.5507,-5.5507,0.0,-5.5823,-5.5964,-5.5999,-5.6315,-5.6455,0.0,0.0,0.0,0.0,0.0,-5.8925,-5.9549,-5.9289,-5.9553,-6.0066,-6.0425,-6.0752,-6.116,-6.1803,-6.1813,-6.1737,-6.2085,-6.2549,-6.2936,-6.2936,-6.3323,-6.371,-6.371,-6.371,-6.371,-6.371,-6.4,-6.4154,-6.3842,-6.4128,0.0,-6.2726,-6.2507,-6.2663,-6.3168,-6.3245,-6.3386,-6.3829,-6.3335,-6.2878,-6.2738,-6.2113,-6.1659,-6.1555,-6.1486,0.0,0.0,0.0,-6.1126,-6.1195,-6.1157,0.0,0.0,0.0,-6.3104,-6.305,0.0,0.0,0.0,-6.1964,-6.2136,0.0,0.0,0.0,0.0,0.0,0.0,0.0,0.0,0.0,0.0,0.0,0.0,0.0,0.0,0.0,0.0,-4.5317,-4.6044,-4.6708,-4.6917,-4.6953,-4.7119,-4.7701,-4.8398,-4.916,-4.9226,-4.9525,-5.0154,-5.1121,-5.1731,-5.1794,0.0,0.0,0.0,0.0,-5.5448,-5.5389,-5.5448,-5.5507,-5.5507,-5.5507,-5.5543,-5.5648,-5.5648,-5.5683,-5.5823,-5.6455,-5.6736,-5.6806,-5.7509,-5.786,-5.786,-5.7198,-5.7132,-5.7569,-5.8751,-5.9769,-6.045,-5.974,0.0,0.0,-6.1076,-6.1368,-6.1784,-6.2874,-6.2882,-6.2665,-6.3478,-6.3748,-6.3826,-6.3826,-6.3903,-6.398,-6.398,-6.398,-6.398,-6.398,-6.46,-6.4927,-6.4244,-6.4782,-6.5103,-6.4411,-6.4139,-6.4022,-6.4085,-6.4124,-6.4077,-6.396,-6.3845,-6.3668,-6.3386,0.0,0.0,-6.2949,-6.2892,-6.2892,-6.2892,-6.2892,-6.2734,-6.2378,-6.2871,-6.2879,-6.2213,-6.3074,-6.3411,-6.3179,-6.3463,-6.4012,-6.4705,-6.3743,-6.3435,0.0,0.0,0.0,0.0,0.0,0.0,0.0,0.0,0.0,0.0,0.0,0.0,0.0,0.0,0.0,-4.4749,-4.5317,-4.6044,-4.6708,-4.7044,-4.7605,-4.8472,-4.8751,-4.9193,-4.9922,-4.9988,-5.0055,-5.0187,-5.1296,-5.2094,-5.2545,-5.3867,0.0,-5.4626,-5.5164,-5.5294,-5.4834,-5.5294,-5.5507,-5.5507,0.0,0.0,-5.6385,-5.6385,-5.6736,-5.7368,-5.7509,-5.7579,-5.7579,-5.7754,-5.8176,-5.8792,-5.9059,-5.9227,-5.9419,-6.0762,-6.1353,-6.1504,-6.1317,-6.143,-6.162,-6.1946,-6.2079,-6.2281,-6.3015,-6.3113,0.0,-6.3593,-6.4213,-6.4754,-6.4754,-6.5218,-6.5721,-6.5721,-6.5721,-6.5721,-6.5721,-6.5837,-6.5954,-6.5893,-6.6045,-6.6157,-6.6027,-6.4916,-6.4186,-6.473,-6.479,-6.4967,-6.5501,-6.4787,-6.4292,-6.4401,-6.3552,-6.3006,-6.3142,-6.2978,-6.2892,-6.2892,-6.2892,-6.2892,-6.2853,-6.3685,-6.4085,-6.3991,-6.491,-6.5372,-6.5282,-6.5372,-6.5474,-6.559,-6.4051,-6.4051,0.0,0.0,0.0,0.0,0.0,0.0,0.0,0.0,0.0,0.0,0.0,-4.5254,0.0,0.0,-4.5381,-4.5697,-4.6076,-4.6719,-4.7988,-4.8198,-4.8425,-4.8925,-4.9202,-4.9717,-5.0684,-5.075,-5.0883,-5.128,-5.21,-5.2674,-5.294,-5.3836,-5.4299,-5.4299,-5.4586,-5.4586,-5.4299,-5.4586,-5.5043,-5.5706,-5.5706,-5.6213,-5.7193,-5.7193,-5.7438,-5.7825,-5.8246,-5.8421,-5.8421,-5.8808,-5.9194,-5.9601,-6.026,-6.0646,-6.0901,-6.1078,-6.1591,-6.2211,-6.1801,-6.1991,-6.2368,-6.2636,-6.278,-6.3027,-6.3764,-6.3932,-6.396,-6.454,-6.5136,-6.5605,-6.5605,-6.5915,-6.6185,-6.6185,-6.6185,-6.6185,-6.6185,-6.6244,-6.6284,-6.6376,-6.634,-6.6283,-6.6316,-6.5622,-6.5141,-6.5528,-6.5548,-6.5578,-6.5818,-6.5372,-6.5217,-6.5678,-6.5178,-6.4985,-6.5485,-6.5091,-6.4802,-6.4802,-6.4412,-6.4114,-6.3892,-6.4652,-6.491,-6.4464,-6.5405,-6.5781,-6.5608,-6.5781,-6.5897,-6.5859,-6.5013,-6.5051,0.0,0.0,0.0,0.0,0.0,0.0,0.0,0.0,-4.6055,-4.6202,-4.6202,-4.6202,-4.6202,-4.6202,-4.6392,-4.6929,-4.7024,-4.7585,-4.9309,-4.9286,-4.9216,-4.9491,-4.9752,-5.0373,-5.1413,-5.1479,-5.1744,-5.234,-5.2731,-5.2974,-5.3111,-5.3516,-5.3781,-5.3781,-5.3983,-5.4051,-5.3919,-5.4222,-5.4926,-5.6062,-5.6062,-5.6795,-5.8035,-5.8035,-5.8105,-5.8281,-5.8948,-5.9229,-5.9264,-5.9861,-6.0107,-6.0135,-6.0747,-6.1379,-6.1911,-6.119,-6.1797,-6.2832,-6.2283,-6.2548,-6.3188,-6.3268,-6.3465,-6.3799,-6.4588,-6.4794,-6.4934,-6.5718,-6.6275,-6.6625,-6.6668,-6.6727,-6.6727,-6.6727,-6.6727,-6.6727,-6.6727,-6.6747,-6.6787,-6.6825,-6.6709,-6.6608,-6.6631,-6.6505,-6.636,-6.6144,-6.6135,-6.6126,-6.592,-6.6047,-6.6346,-6.6896,-6.6942,-6.7209,-6.7821,-6.7324,-6.6942,-6.6942,-6.6345,-6.5834,-6.5475,-6.5839,-6.5694,-6.4926,-6.5561,-6.5755,-6.5427,-6.5755,-6.5897,-6.5897,-6.5897,-6.5897,-4.1718,-4.2251,-4.3083,-4.3578,-4.4288,-4.5117,0.0,0.0,-4.6874,-4.7505,-4.7656,-4.7656,-4.7656,-4.7656,-4.7688,-4.7751,-4.7782,-4.8187,-4.9373,-4.948,-4.9973,-5.1288,-5.1262,-5.1446,-5.2175,-5.2274,-5.2274,-5.2373,-5.2445,-5.2694,-5.3111,-5.3179,-5.3179,-5.3179,-5.4295,-5.4635,-5.419,-5.5315,-5.6164,-5.6824,-5.6824,-5.7532,-5.8878,-5.8878,-5.9229,-5.9861,-5.9931,-5.9966,-5.9966,-6.0072,-6.0107,-6.0107,-6.0199,-6.0927,-6.1969,-6.2573,-6.3222,-6.3771,-6.3817,-6.3896,-6.3971,-6.4094,-6.4174,-6.4292,-6.4668,-6.5265,-6.5965,-6.6688,-6.7462,-6.8154,-6.8442,-6.8506,-6.8506,-6.8506,-6.8506,-6.8506,-6.8506,-6.842,-6.8336,-6.8365,-6.8251,-6.8178,-6.8212,-6.8065,-6.7434,-6.5961,-6.6346,-6.6737,-6.6621,-6.7202,-6.7661,-6.7744,-6.7782,-6.7782,-6.7897,-6.7821,-6.7782,-6.7782,-6.7799,-6.7821,-6.7812,-6.7198,-6.683,-6.6792,-6.6218,-6.5897,-6.5808,-6.5897,-6.5897,-6.5897,-6.5897,-6.5897,-4.2667,-4.2795,-4.2991,0.0,-4.4398,-4.4995,-4.5574,-4.6272,-4.6857,-4.72,-4.7617,-4.7909,-4.7909,-4.7909,-4.8035,0.0,-4.8478,-4.8853,-4.9904,-5.0305,-5.0811,-5.1655,-5.1894,-5.2042,-5.234,-5.2373,-5.2373,-5.2373,-5.2373,-5.2516,-5.2694,-5.2694,-5.2861,-5.3261,-5.3807,-5.4176,-5.4395,-5.4912,-5.5711,-5.6678,-5.6678,-5.7364,-5.8665,-5.8665,-5.9039,-5.9683,-5.9943,-6.0107,-6.0107,-6.0107,-6.0107,-6.0107,-6.0107,-6.0843,-6.1951,-6.2287,-6.2977,-6.3742,-6.3915,-6.4,-6.4,-6.4244,-6.4284,-6.4324,-6.4444,-6.5199,-6.6059,-6.6363,-6.7164,-6.7995,-6.8109,-6.8164,-6.8164,-6.8164,-6.8164,-6.8164,-6.8164,-6.8136,-6.8164,-6.827,-6.8229,-6.8147,-6.8321,-6.8157,-6.7782,-6.7093,-6.7285,-6.7446,-6.7431,-6.7668,-6.8088,-6.8585,-6.9082,-6.9349,-6.9349,-6.8929,-6.8693,-6.8686,-6.8357,-6.8148,-6.8177,-6.7944,-6.7806,-6.7806,-6.7487,-6.7128,-6.659,-6.659,-6.6359,-6.5897,-6.5897,-6.5897,-4.3333,-4.3245,-4.3201,-4.4007,-4.4703,-4.5221,-4.5391,-4.6282,-4.7176,-4.7336,-4.7919,-4.8446,-4.8446,-4.8446,-4.8604,-4.911,-4.9173,-4.9487,-5.0384,-5.0723,-5.1135,-5.1688,-5.2086,-5.2302,-5.2373,-5.2373,-5.2373,-5.2373,-5.2373,-5.2473,-5.2672,-5.2672,-5.3003,-5.3699,-5.393,-5.4295,-5.4825,-5.5024,-5.5655,-5.678,-5.678,-5.734,-5.8422,-5.8562,-5.8909,-5.9351,-5.9879,-6.0107,-6.0107,-6.0107,-6.0107,-6.0107,-6.0107,-6.0843,-6.1897,-6.1897,-6.2581,-6.3602,-6.3786,-6.3873,-6.3915,-6.4162,-6.4284,-6.4284,-6.4284,-6.5009,-6.5879,-6.5951,-6.6923,-6.7926,-6.8024,-6.8247,-6.84,-6.84,-6.84,-6.84,-6.84,-6.84,-6.8502,-6.8723,-6.8633,-6.8571,-6.8761,-6.8709,-6.8585,-6.8585,-6.8585,-6.8508,-6.8279,-6.8432,-6.8814,-6.9464,-7.0037,-7.0419,-7.0419,-6.9884,-6.9572,-6.9666,-6.9183,-6.8896,-6.8896,-6.8844,-6.8756,-6.8663,-6.8487,-6.809,-6.7475,-6.7475,-6.7167,-6.659,-6.632,-6.6244,-4.3333,-4.3891,-4.4386,-4.4758,-4.5343,-4.5987,-4.6697,-4.7362,-4.8012,-4.8677,-4.9358,-4.9868,-4.9868,-4.9868,-4.9868,-4.99,-4.99,-5.0058,-5.0448,-5.0525,-5.0832,-5.1688,-5.1794,-5.2013,0.0,-5.2373,-5.2373,-5.2373,-5.2373,-5.2672,-5.3334,-5.3367,-5.3732,-5.446,-5.5189,-5.5554,-5.5587,-5.6282,-5.692,-5.7554,-5.7554,-5.7848,-5.8422,-5.8978,-5.9284,-5.9351,-5.9879,-6.0107,-6.0107,-6.0107,-6.0107,-6.0107,-6.0107,-6.0843,-6.1897,-6.1897,-6.2581,-6.3602,-6.3736,-6.3867,-6.3915,-6.4042,-6.4203,-6.4284,-6.4284,-6.4847,-6.5607,-6.5915,-6.7199,-6.8523,-6.8902,-6.9578,-7.0228,-7.0228,-7.0228,-7.0228,-7.0228,-7.0133,-7.0103,-7.0271,-7.0171,-7.0103,-7.031,-7.0342,-7.0342,-7.0342,-7.0342,-7.0037,-6.9273,-6.9846,-7.0342,-7.0381,-7.0381,-7.0419,-7.0419,-7.0381,-7.0413,-7.0547,-7.0601,-7.0622,-7.071,-7.0063,-6.9667,-6.9667,-6.8821,-6.8398,-6.8359,-6.8359,-6.8359,-6.8321,-6.7475,-6.7077,-4.3957,-4.4414,-4.4989,-4.5425,-4.5721,-4.5985,-4.6135,-4.7076,-4.7988,-4.8157,-4.9147,-4.9931,-4.9931,-4.9931,-4.9931,-4.9931,-4.9931,-4.9931,-5.0058,-5.0602,-5.1059,-5.1285,-5.1835,0.0,0.0,0.0,0.0,-5.2373,-5.2804,-5.3169,-5.34,-5.3864,-5.4494,-5.5222,-5.5487,-5.5852,-5.6316,-5.6581,-5.6834,-5.6987,-5.6987,-5.7139,-5.7331,-5.828,-5.8702,-5.8771,-5.9683,-6.0107,-6.0107,-6.0107,-6.0107,-6.0107,-6.0107,-6.0843,-6.1897,-6.1897,-6.2581,-6.3602,-6.3786,-6.3873,-6.3915,-6.4162,-6.4244,-6.4397,-6.4923,-6.5298,-6.579,-6.7005,-6.7761,-6.8326,-6.8977,-6.9357,-6.9584,-6.9584,-6.9584,-6.9584,-6.9584,-6.9542,-6.9542,-6.9778,-6.9853,-6.9965,-7.0179,-7.0281,-7.0419,-7.0419,-7.0419,-7.0304,-7.0037,-7.0228,-7.0419,-7.0419,-7.0419,-7.0451,-7.0522,-7.0522,-7.0585,-7.0737,-7.0729,-7.0787,-7.0871,-7.0629,-7.0514,-7.0514,-7.0206,-6.9821,-6.9244,-6.9244,-6.8975,-6.8398,-6.7513,-6.7192,-4.4209,-4.4583,-4.5046,-4.5685,-4.5895,-4.5956,-4.6225,-4.7076,-4.7988,-4.824,-4.9147,-4.9931,-4.9931,-4.9931,-4.9931,-4.9931,-4.9931,-4.9931,-4.9931,-5.037,-5.0723,-5.0908,-5.1508,-5.198,0.0,0.0,0.0,-5.2373,-5.3036,-5.3533,-5.3798,-5.4527,-5.5256,-5.5984,-5.5984,-5.6216,-5.668,-5.668,-5.668,-5.668,-5.668,-5.668,-5.6757,-5.7701,-5.8345,-5.8869,-5.98,-6.0438,-6.0914,-6.0914,-6.0914,-6.0914,-6.0914,-6.1661,-6.273,-6.273,-6.346,-6.4456,-6.4301,-6.4277,-6.4438,-6.4907,-6.5144,-6.5261,-6.5786,-6.5974,-6.6199,-6.7251,-6.7776,-6.8114,-6.864,-6.8978,-6.9203,-6.9203,-6.9203,-6.9203,-6.9203,-6.9203,-6.9246,-6.946,-6.9661,-6.9853,-7.0073,-7.0247,-7.0419,-7.0419,-7.0419,-7.0419,-7.0419,-7.0419,-7.0419,-7.0419,-7.0419,-7.0451,-7.0585,-7.0623,-7.0647,-7.0787,-7.0787,-7.0815,-7.0898,-7.0898,-7.0898,-7.0898,-7.0898,-7.0667,-7.0129,-7.0129,-6.986,-6.9283,-6.8462,-6.8,-4.4115,-4.4425,-4.4676,-4.5595,-4.5895,-4.6075,-4.6756,-4.7422,-4.8072,-4.8738,-4.9421,-4.9931,0.0,0.0,-4.9931,-4.9931,-4.9931,-4.9931,-4.9963,-4.9931,-5.0089,0.0,0.0,0.0,0.0,0.0,0.0,-5.2506,0.0,-5.3798,-5.4527,-5.5289,-5.5984,-5.668,-5.668,-5.668,-5.668,-5.668,-5.668,-5.668,-5.6713,-5.6746,-5.6746,-5.739,-5.8428,-5.9655,-6.022,-6.122,-6.2389,-6.2389,-6.2389,-6.2389,-6.2389,-6.312,-6.4215,-6.4215,-6.4998,-6.6017,-6.5199,-6.5039,-6.5372,-6.6157,-6.6593,-6.68,-6.6838,-6.68,-6.68,-6.6875,-6.7438,-6.8002,-6.8039,-6.864,-6.9203,-6.9203,-6.9203,-6.9203,-6.9203,-6.9203,-6.9246,-6.946,-6.9661,-6.9891,-7.0073,-7.0247,-7.0419,-7.0419,-7.0419,-7.0419,-7.0419,-7.0419,-7.0419,-7.0419,-7.0419,-7.0451,-7.0585,-7.0623,-7.0647,-7.0787,-7.0787,-7.0815,-7.0898,-7.0898,-7.0898,-7.0898,-7.0898,-7.0898,-7.0898,-7.0898,-7.0898,-7.0887,-7.0212,-6.9501,-4.4209,-4.4676,-4.5046,-4.5714,-4.5895,-4.6075,-4.6756,-4.7422,-4.8072,-4.8738,-4.9421,-4.9931,0.0,0.0,0.0,-4.9931,-4.9931,0.0,-5.0627,-5.0485,0.0,-5.1649,0.0,-5.2515,-5.2917,-5.3559,0.0,0.0,-5.4129,-5.456,-5.5322,-5.6017,-5.6514,-5.668,-5.668,-5.668,-5.668,-5.668,-5.668,-5.668,-5.7243,-5.7508,-5.7541,-5.8662,-5.938,-5.97,-6.0802,-6.1433,-6.1745,-6.2255,-6.2389,-6.2389,-6.2389,-6.312,-6.4215,-6.4215,-6.4998,-6.6165,-6.6537,-6.6333,-6.6031,-6.6431,-6.6593,-6.6791,-6.7471,-6.7288,-6.7025,-6.8264,-6.8302,-6.8152,-6.8753,-6.9053,-6.9203,-6.9203,-6.9203,-6.9203,-6.9203,-6.9203,-6.9203,-6.9289,-6.9582,-6.9928,-7.0247,-7.0386,-7.0419,-7.0419,-7.0419,-7.0419,-7.0419,-7.0419,-7.0419,-7.0419,-7.0419,-7.0483,-7.0678,-7.0678,-7.0737,-7.0871,-7.0871,-7.0871,-7.0898,-7.0898,-7.0898,-7.0898,-7.0898,-7.0898,-7.0898,-7.0898,-7.0966,-7.1085,-7.0271,-6.9965,-4.4566,-4.4987,-4.5352,-4.5815,-4.6119,-4.6395,-4.6815,-4.7422,-4.8072,-4.8738,-4.9421,0.0,-4.9931,0.0,0.0,0.0,0.0,0.0,-5.0911,-5.112,-5.1375,0.0,-5.2455,0.0,-5.3041,-5.3738,-5.4359,0.0,-5.484,-5.5189,-5.562,-5.6316,-5.668,-5.668,-5.668,-5.668,-5.668,-5.7011,-5.7177,-5.7177,-5.7906,-5.827,-5.8303,-5.8985,-5.9633,-6.0247,0.0,-6.2016,-6.2541,-6.3168,-6.3407,-6.3407,-6.3407,-6.4152,-6.5265,-6.5265,-6.6243,-6.7688,-6.78,-6.781,-6.7719,-6.7614,-6.7635,-6.7829,-6.8784,-6.879,-6.8677,-6.9954,-6.9992,-6.9729,-7.0179,-7.033,-7.033,-7.033,-7.033,-7.033,-7.033,-7.0029,-6.9697,-6.9495,-6.9661,-6.9928,-7.0315,-7.0419,-7.0419,-7.0419,-7.0419,-7.0419,-7.0419,-7.0419,-7.0419,-7.0419,-7.0419,-7.0483,-7.0669,-7.0708,-7.0729,-7.0898,-7.0898,-7.0898,-7.0898,-7.0898,-7.0898,-7.0898,-7.0898,-7.0914,-7.1042,-7.1042,-7.1147,-7.132,-7.0893,-7.0621,-4.4963,-4.5344,-4.5408,-4.6007,-4.6419,-4.677,-4.6993,-4.7482,-4.8072,-4.8738,-4.9421,-4.9931,-4.9931,-4.9931,-4.9931,-4.9931,0.0,-5.1006,-5.1101,-5.1638,-5.2049,-5.2226,-5.2554,-5.2765,-5.2845,-5.3577,-5.4403,-5.5234,-5.5611,-5.5842,-5.5918,-5.6581,-5.6978,-5.6978,-5.6978,-5.7044,-5.7144,-5.7773,-5.8071,-5.8104,-5.8833,-5.9131,-5.9065,-5.9164,-5.9818,-6.0942,0.0,0.0,-6.3716,-6.4428,-6.4776,-6.4846,-6.4741,-6.5474,-6.6632,-6.675,-6.7964,-6.9521,-6.8977,-6.9286,-6.9781,-6.909,-6.9004,-6.9327,-7.021,-7.0555,-7.0818,-7.1494,-7.1719,-7.1719,-7.1719,-7.1719,-7.1719,-7.1719,-7.1719,-7.1719,-7.1719,-7.1156,-7.0535,-7.0193,-7.0119,-7.0232,-7.0506,-7.0686,-7.0724,-7.061,-7.0686,-7.0763,-7.0763,-7.0533,-7.0419,-7.0419,-7.0419,-7.0483,-7.0678,-7.0708,-7.0729,-7.0871,-7.0898,-7.0898,-7.0898,-7.0898,-7.0898,-7.0898,-7.0925,-7.1042,-7.1214,-7.1236,-7.132,-7.1552,-7.1665,-7.1355,-4.5211,-4.5382,-4.5594,-4.6565,-4.6452,-4.6397,-4.7436,-4.7782,0.0,0.0,-4.9421,-4.9931,-4.9931,-4.9931,-4.9931,-4.9931,0.0,0.0,0.0,0.0,-5.2321,0.0,0.0,0.0,0.0,0.0,0.0,0.0,0.0,-5.7047,-5.7409,-5.8104,-5.8502,-5.8502,-5.8502,-5.88,-5.9429,-5.9562,-5.9628,-5.9628,-6.0357,-6.039,-5.9827,-6.0456,-6.087,-6.1135,-6.2266,0.0,-6.3124,-6.4252,-6.5092,-6.5619,-6.4987,-6.5534,-6.6845,-6.7403,-6.8159,-6.9078,-7.0138,-7.0636,-7.0634,-6.9323,-6.9332,-6.9985,-7.0398,-7.0968,-7.1531,-7.1681,-7.1719,-7.1719,-7.1719,-7.1719,-7.1719,-7.1719,-7.1719,-7.1719,-7.1719,-7.1606,-7.1551,-7.1821,-7.1862,-7.1788,-7.1498,-7.2062,-7.2291,-7.1565,-7.21,-7.2559,-7.2559,-7.1298,-7.0419,-7.0419,-7.0419,-7.0451,-7.0585,-7.0678,-7.0729,-7.0815,-7.0871,-7.0898,-7.0898,-7.0898,-7.0898,-7.0898,-7.1053,-7.117,-7.1214,-7.1358,-7.1497,-7.1654,-7.1699,-7.1719,-4.5731,-4.5981,-4.6007,-4.6532,-4.6543,-4.6575,-4.6853,0.0,0.0,0.0,-4.9178,-4.9931,-4.9931,-4.9931,0.0,-4.9931,0.0,0.0,0.0,0.0,0.0,0.0,0.0,0.0,0.0,0.0,0.0,0.0,0.0,-5.8281,-5.8403,-5.8701,-5.9065,-5.9463,-5.9098,-5.9429,-6.0556,-6.0589,-6.0755,-6.1152,-6.1881,-6.2047,-6.1715,-6.1682,-6.1881,-6.2297,-6.3137,0.0,-6.417,-6.5366,-6.6145,-6.6426,-6.6075,-6.6491,-6.7511,-6.8172,-6.9122,-7.0147,-7.068,-7.1281,-7.1615,-7.048,-7.0462,-7.0929,-7.1561,-7.2019,-7.2432,-7.2883,-7.2996,-7.2996,-7.2996,-7.2996,-7.2996,-7.2996,-7.2996,-7.2883,-7.2432,-7.232,-7.2303,-7.2314,-7.2279,-7.232,-7.2376,-7.2711,-7.2864,-7.2444,-7.2711,-7.2979,-7.2979,-7.2253,-7.1756,-7.1756,-7.1756,-7.1789,-7.1886,-7.1528,-7.1351,-7.1478,-7.1112,-7.0898,-7.0898,-7.0898,-7.0979,-7.1029,-7.1147,-7.13,-7.1458,-7.1573,-7.1704,-7.1876,-7.1867,-7.1901,-4.6211,-4.6414,-4.644,-4.644,-4.6615,-4.6594,-4.6272,-4.6902,0.0,-4.7819,-4.8821,-4.9741,-4.9852,-4.9931,-4.9931,0.0,-5.05,-5.1227,0.0,0.0,0.0,0.0,0.0,0.0,0.0,0.0,0.0,0.0,0.0,0.0,-5.9396,-5.9529,-5.986,-6.0456,-6.0059,-6.049,-6.1781,-6.1815,-6.208,-6.2643,-6.3239,-6.3438,-6.3272,-6.2676,-6.2709,-6.3325,-6.3983,0.0,0.0,-6.6481,-6.7093,-6.7234,-6.7093,-6.7446,-6.8101,-6.8786,-6.983,-7.0987,-7.1189,-7.1849,-7.2584,-7.2011,-7.1818,-7.1911,-7.265,-7.3033,-7.3334,-7.4009,-7.4197,-7.4197,-7.4197,-7.4197,-7.4197,-7.4197,-7.4197,-7.4009,-7.3334,-7.3183,-7.3093,-7.2881,-7.2848,-7.2927,-7.3216,-7.3399,-7.3476,-7.3284,-7.3399,-7.3552,-7.3552,-7.3552,-7.3552,-7.3552,-7.3208,-7.3012,-7.3111,-7.2524,-7.2234,-7.2361,-7.1612,-7.1168,-7.1168,-7.1029,-7.1042,-7.1214,-7.128,-7.1426,-7.17,-7.1721,-7.1854,-7.1987,-7.201,-7.2014,-4.6218,-4.6533,-4.661,-4.7102,-4.6321,-4.5832,-4.665,0.0,-4.655,-4.7649,-4.849,-4.9147,-4.9741,-4.9931,-4.9931,-4.9931,-5.05,-5.1227,0.0,0.0,0.0,0.0,0.0,0.0,0.0,0.0,0.0,0.0,0.0,0.0,-6.092,-6.1516,-6.1914,-6.198,-6.2543,-6.3272,-6.4067,-6.41,-6.41,-6.41,-6.4233,-6.3935,-6.3272,-6.3206,-6.3206,-6.3358,-6.4559,0.0,0.0,-6.6481,-6.7445,-6.8041,-6.7304,-6.7445,-6.8292,-6.8884,-6.9613,-7.0447,-7.1793,-7.2832,-7.3466,-7.3541,-7.3164,-7.2707,-7.2837,-7.3446,-7.4122,-7.4197,-7.4197,-7.4197,-7.4197,-7.4197,-7.4197,-7.4197,-7.4197,-7.4197,-7.4122,-7.4085,-7.4184,-7.4509,-7.4591,-7.4484,-7.4132,-7.4736,-7.5004,-7.4201,-7.4775,-7.5271,-7.5271,-7.5271,-7.5271,-7.5271,-7.3896,-7.3012,-7.3073,-7.3092,-7.3116,-7.3206,-7.2486,-7.2091,-7.2091,-7.1477,-7.1192,-7.1214,-7.149,-7.1677,-7.17,-7.187,-7.1982,-7.1987,-7.201,-7.1986,-4.6137,-4.6482,-4.6587,-4.6796,-4.6346,-4.609,-4.6884,0.0,-4.6991,-4.8253,-4.8683,-4.9147,-4.9741,-4.9931,-4.9931,-4.9931,-5.0153,-5.056,-5.1246,0.0,0.0,0.0,0.0,0.0,0.0,0.0,0.0,0.0,0.0,0.0,-6.0532,-6.164,-6.2577,-6.3438,-6.3338,-6.3835,-6.4995,-6.4597,-6.4597,-6.4962,-6.4995,-6.4862,-6.4531,-6.4133,-6.4167,-6.4619,-6.506,0.0,0.0,-6.7461,-6.8309,-6.8884,-6.8568,-6.8638,-6.8957,-6.9669,-7.0339,-7.1076,-7.2102,-7.2926,-7.3615,-7.3765,-7.3688,-7.3569,-7.3625,-7.3934,-7.4197,-7.4197,-7.4197,-7.4197,-7.4197,-7.4197,-7.4197,-7.4197,-7.4197,-7.4197,-7.4197,-7.4197,-7.4335,-7.4737,-7.4819,-7.4825,-7.4934,-7.5271,-7.5386,-7.5042,-7.5271,-7.5501,-7.5501,-7.5501,-7.5501,-7.5501,-7.4889,-7.4503,-7.4604,-7.421,-7.3998,-7.409,-7.3459,-7.3085,-7.3085,-7.2461,-7.2168,-7.2267,-7.1887,-7.177,-7.187,-7.1976,-7.1987,-7.1987,-7.1997,-7.1986,-4.5634,-4.6245,-4.6482,-4.6482,-4.6305,-4.6247,-4.6951,-4.6747,-4.6858,-4.8295,-4.8614,-4.8821,-4.9501,-4.9741,-4.9931,-4.9931,-4.9741,-4.9972,-5.1047,-5.1474,0.0,0.0,0.0,0.0,0.0,0.0,0.0,0.0,0.0,0.0,0.0,-6.1662,-6.2892,-6.4299,-6.4067,-6.4399,-6.5392,-6.4929,-6.4929,-6.5425,-6.5425,-6.5425,-6.5392,-6.4895,-6.4962,-6.5392,0.0,0.0,0.0,-6.8049,-6.8663,-6.9118,-6.9302,-6.9376,-6.9449,-6.9956,-7.0507,-7.1195,-7.1878,-7.2613,-7.3283,-7.3678,-7.3864,-7.3961,-7.4151,-7.4197,-7.4197,-7.4197,-7.4197,-7.4197,-7.4197,-7.4197,-7.4197,-7.4197,-7.4197,-7.4197,-7.4197,-7.4197,-7.4335,-7.4737,-7.4819,-7.4939,-7.5392,-7.5501,-7.5501,-7.5501,-7.5501,-7.5501,-7.5501,-7.5501,-7.5501,-7.5501,-7.5501,-7.557,-7.5633,-7.5162,-7.488,-7.5003,-7.4411,-7.4077,-7.4077,-7.3506,-7.325,-7.3375,-7.2589,-7.2244,-7.2378,-7.2143,-7.1993,-7.1997,-7.1993,-7.1963,-4.4754,-4.5795,-4.6482,-4.6482,-4.6021,-4.5895,-4.6851,-4.6223,-4.577,-4.7494,-4.7842,-4.8157,-4.8821,-4.9501,-4.9931,-4.9931,-4.9309,-4.9614,-5.1714,0.0,0.0,0.0,0.0,0.0,0.0,0.0,0.0,0.0,0.0,0.0,0.0,-6.2043,-6.2945,-6.4365,-6.5028,-6.5392,-6.5425,-6.5392,-6.5392,-6.5425,-6.5425,-6.5425,-6.5425,-6.5392,-6.5392,0.0,0.0,0.0,0.0,-6.7811,-6.8397,-6.8474,-6.9118,-6.9376,-6.9376,-6.9376,-6.9813,-7.0507,-7.1195,-7.1878,-7.2556,-7.3527,-7.3815,-7.3864,-7.4104,-7.4197,-7.4197,-7.4197,-7.4197,-7.4197,-7.4197,-7.4197,-7.4197,-7.4197,-7.4197,-7.4197,-7.4197,-7.4197,-7.4335,-7.4737,-7.4819,-7.4939,-7.5392,-7.5501,-7.5501,-7.5501,-7.5501,-7.5501,-7.5501,-7.5501,-7.5501,-7.5501,-7.5501,-7.5532,-7.5692,-7.5692,-7.5756,-7.5976,-7.5362,-7.4966,-7.4966,-7.4514,-7.4272,-7.4283,-7.3626,-7.3275,-7.3275,-7.2417,-7.2002,-7.202,-7.1997,-7.1924,-4.4539,-4.5368,-4.5688,-4.635,-4.6347,-4.6496,-4.7595,-4.715,-4.6934,-4.826,-4.8447,-4.8711,-4.9542,-4.9365,-4.955,-5.0403,-4.9674,-4.923,0.0,0.0,0.0,0.0,0.0,0.0,0.0,0.0,0.0,0.0,0.0,0.0,0.0,-6.0229,-6.1435,-6.3942,-6.4934,-6.5033,-6.436,-6.5033,-6.5425,-6.5425,-6.5425,-6.5425,-6.5425,-6.5425,0.0,0.0,0.0,0.0,0.0,-6.7325,-6.8004,-6.8474,-6.9118,-6.9376,-6.9376,-6.9376,-6.9813,-7.0507,-7.1195,-7.2182,-7.3292,-7.3573,-7.4088,-7.4524,-7.4159,-7.4104,-7.4197,-7.4197,-7.4197,-7.4197,-7.4197,-7.4197,-7.4197,-7.4197,-7.4197,-7.4197,-7.4197,-7.4197,-7.4289,-7.4525,-7.4695,-7.4899,-7.5247,-7.543,-7.5501,-7.5501,-7.5501,-7.5501,-7.5501,-7.5501,-7.5501,-7.5501,-7.5501,-7.5532,-7.5692,-7.5831,-7.5964,-7.6199,-7.6225,-7.6241,-7.6241,-7.564,-7.5311,-7.5311,-7.4513,-7.4134,-7.4173,-7.3315,-7.2596,-7.1991,-7.1915,-7.1835,-4.4048,-4.5127,-4.5795,-4.635,-4.6482,-4.6769,-4.7596,-4.7399,-4.7334,-4.8283,-4.8643,-4.8894,-4.9448,-4.9387,-4.9448,-5.0064,-4.9422,0.0,0.0,0.0,0.0,0.0,0.0,0.0,0.0,0.0,0.0,0.0,0.0,0.0,0.0,-5.8848,-5.9866,-6.2492,-6.3492,-6.4072,-6.4093,-6.4728,-6.516,-6.5425,-6.5425,-6.5425,-6.5425,-6.5425,0.0,0.0,0.0,0.0,0.0,-6.6995,-6.765,-6.8162,-6.9043,-6.9376,-6.9376,-6.9376,-6.9633,-7.0166,-7.1427,-7.246,-7.3347,-7.4301,-7.4861,-7.5009,-7.4281,-7.4151,-7.4197,-7.4197,-7.4197,-7.4197,-7.4197,-7.4197,-7.4197,-7.4197,-7.4197,-7.4197,-7.4197,-7.4197,-7.4243,-7.4476,-7.4653,-7.4859,-7.5171,-7.5394,-7.5501,-7.5501,-7.5501,-7.5501,-7.5501,-7.5501,-7.5501,-7.5501,-7.5595,-7.5686,-7.5802,-7.5936,-7.6108,-7.6415,-7.6669,-7.6804,-7.6804,-7.6474,-7.6281,-7.6281,-7.5423,-7.4993,-7.5032,-7.3861,-7.3029,-7.2461,-7.2011,-7.1766,0.0,-4.502,-4.635,-4.6482,-4.6482,-4.6692,-4.7184,-4.7253,0.0,-4.784,-4.8435,-4.8889,-4.883,-4.9344,-4.9609,-4.9065,-4.8925,0.0,0.0,0.0,0.0,0.0,0.0,0.0,0.0,0.0,0.0,0.0,0.0,0.0,0.0,-5.78,-5.8308,-6.0297,-6.1152,-6.2418,-6.4255,-6.4344,-6.4674,-6.5425,-6.5425,-6.5425,-6.5425,-6.5425,0.0,0.0,0.0,0.0,0.0,-6.6829,-6.7407,-6.7488,-6.8892,-6.9376,-6.9376,-6.9376,-6.9376,-6.9666,-7.177,-7.2581,-7.3016,-7.5419,-7.582,-7.5276,-7.4563,-7.4226,-7.4197,-7.4197,-7.4197,-7.4197,-7.4197,-7.4197,-7.4197,-7.4197,-7.4197,-7.4197,-7.4197,-7.4197,-7.4243,-7.4432,-7.4653,-7.4859,-7.5133,-7.5358,-7.5501,-7.5501,-7.5501,-7.5501,-7.5501,-7.5535,-7.5497,-7.5497,-7.5772,-7.5952,-7.6057,-7.6044,-7.6189,-7.657,-7.6741,-7.6816,-7.6816,-7.6989,-7.7101,-7.7101,-7.6281,-7.5852,-7.5819,-7.4257,-7.3426,-7.3277,-7.2337,-7.1799,-4.3492,0.0,-4.4804,-4.6139,-4.6482,-4.6692,0.0,-4.7587,-4.7913,-4.7926,-4.8779,-4.9538,-4.9571,-4.9203,-4.9257,-5.0236,0.0,0.0,0.0,0.0,0.0,0.0,0.0,0.0,0.0,0.0,0.0,0.0,0.0,0.0,0.0,-5.6509,-5.7198,-5.9253,-5.9098,-6.0286,-6.2812,-6.3635,-6.4505,-6.5425,-6.5425,-6.5425,-6.5425,-6.5425,0.0,0.0,0.0,0.0,-6.5481,-6.6829,-6.7407,-6.7488,-6.8892,-6.9376,-6.9376,-6.9376,-6.9376,-6.9628,-7.1194,-7.2182,-7.2997,-7.5153,-7.5791,-7.5701,-7.5543,-7.4896,-7.4197,-7.4197,-7.4197,-7.4197,-7.4197,-7.4197,-7.4197,-7.4197,-7.4197,-7.4197,-7.4197,-7.4197,-7.4197,-7.4289,-7.4563,-7.4819,-7.4859,-7.5246,-7.5501,-7.5501,-7.5501,-7.5501,-7.5501,-7.5628,-7.5724,-7.5724,-7.5918,-7.6171,-7.6419,-7.651,-7.6591,-7.6755,-7.6946,-7.7036,-7.7036,-7.7056,-7.7101,-7.7101,-7.6906,-7.6488,-7.588,-7.5462,-7.4535,-7.3152,-7.2857,-7.2297,-4.2936,-4.3823,-4.4696,-4.6139,-4.6482,-4.6587,-4.6901,-4.7391,-4.7791,-4.7928,0.0,-4.9455,-4.9655,-4.9435,0.0,0.0,0.0,0.0,0.0,0.0,0.0,0.0,0.0,0.0,0.0,0.0,0.0,0.0,0.0,0.0,0.0,-5.5595,-5.6285,-5.8726,-5.8624,-5.9842,-6.2492,-6.3095,-6.4034,-6.5425,-6.5425,-6.5425,-6.5425,-6.5425,-6.5425,0.0,0.0,0.0,-6.5481,-6.6829,-6.7407,-6.7488,-6.8892,-6.9376,-6.9376,-6.9376,-6.9376,-6.9663,-7.141,-7.318,-7.476,-7.5677,-7.6175,-7.6378,-7.5984,-7.5621,-7.5361,-7.5324,-7.5061,-7.4836,-7.5249,-7.5061,-7.4836,-7.5211,-7.5023,-7.476,-7.476,-7.446,-7.4243,-7.4335,-7.4568,-7.4859,-7.4977,-7.5283,-7.5501,-7.5501,-7.5501,-7.5501,-7.5501,-7.566,-7.578,-7.578,-7.6121,-7.64,-7.6582,-7.6793,-7.6907,-7.6956,-7.7043,-7.7101,-7.7101,-7.7101,-7.7101,-7.7101,-7.7101,-7.6883,-7.6433,-7.6092,-7.5343,-7.4254,-7.341,-7.2694,-4.2287,-4.3628,-4.4938,-4.6034,-4.6245,-4.635,-4.6482,0.0,0.0,0.0,0.0,0.0,0.0,-4.9669,0.0,0.0,0.0,0.0,0.0,0.0,0.0,0.0,0.0,0.0,0.0,0.0,0.0,0.0,0.0,0.0,0.0,-5.5001,-5.583,-5.8399,-5.8775,-6.0214,-6.2801,-6.2894,-6.3773,-6.5425,-6.5213,-6.5213,-6.5425,-6.5213,-6.5213,0.0,0.0,0.0,-6.5514,-6.6745,-6.7325,-6.7488,-6.874,-6.9302,-6.9376,-6.9376,-6.9446,-6.991,-7.2014,-7.4428,-7.6546,-7.624,-7.6596,-7.7013,-7.6307,-7.6476,-7.6855,-7.6879,-7.6252,-7.5737,-7.6488,-7.615,-7.5774,-7.645,-7.6075,-7.5549,-7.5436,-7.4986,-7.4582,-7.4702,-7.4956,-7.5238,-7.5551,-7.5739,-7.5844,-7.5692,-7.5653,-7.565,-7.557,-7.5724,-7.584,-7.587,-7.6338,-7.6615,-7.663,-7.6936,-7.7095,-7.7101,-7.7101,-7.7101,-7.7101,-7.7101,-7.7101,-7.7101,-7.7101,-7.7117,-7.7097,-7.6403,-7.5923,-7.5636,-7.4083,-7.3132,-4.2287,-4.2737,-4.3295,-4.4912,-4.5368,-4.5475,-4.635,-4.6901,0.0,0.0,0.0,0.0,0.0,0.0,0.0,0.0,0.0,0.0,0.0,0.0,0.0,0.0,0.0,0.0,0.0,0.0,0.0,0.0,0.0,0.0,0.0,-5.5089,-5.6133,-5.8052,-5.8727,-6.034,-6.3036,-6.3544,-6.4262,-6.5425,-6.4577,-6.4577,-6.5425,-6.4545,-6.4545,-6.5425,0.0,-6.5425,-6.5481,-6.6235,-6.6912,-6.7488,-6.8241,-6.8892,-6.9376,-6.9376,-6.9797,-7.0569,-7.2232,-7.3893,-7.5371,-7.5299,-7.6088,-7.7047,-7.6839,-7.7164,-7.7626,-7.8011,-7.7329,-7.645,-7.66,-7.6525,-7.645,-7.6563,-7.6525,-7.6225,-7.5549,-7.5887,-7.6169,-7.5682,-7.6279,-7.7024,-7.7263,-7.7455,-7.7373,-7.6647,-7.6532,-7.6331,-7.5833,-7.5928,-7.6147,-7.6297,-7.6573,-7.6791,-7.6858,-7.6936,-7.7028,-7.7101,-7.7101,-7.7101,-7.7101,-7.7101,-7.7101,-7.7101,-7.7101,-7.7117,-7.7097,-7.6897,-7.6376,-7.5521,-7.512,-7.4115,-4.1745,-4.1859,-4.2061,-4.3406,-4.437,-4.5261,-4.5688,-4.635,-4.6977,0.0,0.0,0.0,0.0,0.0,0.0,0.0,0.0,0.0,0.0,0.0,0.0,0.0,0.0,0.0,0.0,0.0,0.0,0.0,0.0,0.0,0.0,0.0,-5.6778,-5.862,-5.9713,-6.1286,-6.31,-6.4175,-6.4943,-6.5425,-6.4943,-6.4943,-6.5425,-6.4943,-6.4943,-6.5425,0.0,-6.5425,-6.5425,-6.6148,-6.6829,-6.7488,-6.8162,-6.8816,-6.9376,-6.9376,-6.9867,-7.0675,-7.2101,-7.3432,-7.4582,-7.5192,-7.6135,-7.7019,-7.7019,-7.7292,-7.7768,-7.794,-7.7473,-7.7054,-7.7791,-7.7614,-7.7426,-7.7839,-7.7614,-7.7201,-7.6826,-7.6713,-7.6658,-7.6474,-7.6884,-7.7404,-7.7606,-7.7837,-7.787,-7.7449,-7.7131,-7.6843,-7.6548,-7.6365,-7.632,-7.6389,-7.6643,-7.6885,-7.6921,-7.7004,-7.7082,-7.7101,-7.7101,-7.7101,-7.7101,-7.7101,-7.7101,-7.7101,-7.7101,-7.7117,-7.7097,-7.7049,-7.6704,-7.6185,-7.558,-7.4811,-4.1172,-4.1172,-4.1402,-4.2086,-4.3381,-4.4587,-4.4696,-4.5475,-4.635,-4.6846,0.0,0.0,0.0,0.0,0.0,0.0,0.0,0.0,0.0,0.0,0.0,0.0,0.0,0.0,0.0,0.0,0.0,0.0,0.0,0.0,0.0,0.0,-5.7546,-5.9285,-6.0671,-6.1959,-6.3292,-6.4453,-6.5123,-6.5425,-6.5123,-6.5123,-6.5425,-6.5123,-6.5123,-6.5425,-6.5425,-6.5425,-6.5425,-6.5975,-6.666,-6.7407,-6.8004,-6.8628,-6.9411,-6.9586,-7.0113,-7.096,-7.2109,-7.3294,-7.4404,-7.5369,-7.6239,-7.6829,-7.6829,-7.7045,-7.7413,-7.7473,-7.7324,-7.7422,-7.8639,-7.8479,-7.8191,-7.8916,-7.8628,-7.814,-7.7915,-7.7539,-7.7297,-7.7304,-7.7603,-7.7973,-7.8176,-7.8409,-7.8519,-7.8328,-7.7807,-7.7347,-7.7186,-7.6739,-7.6411,-7.6454,-7.6731,-7.687,-7.6905,-7.7028,-7.7101,-7.7101,-7.7101,-7.7101,-7.7101,-7.7101,-7.7101,-7.7101,-7.7101,-7.7087,-7.7069,-7.6975,-7.6859,-7.6707,-7.5933,-7.5392,-4.1172,-4.1172,-4.1196,-4.1287,-4.1972,-4.2849,-4.3713,-4.4587,-4.5342,-4.5926,0.0,0.0,0.0,0.0,0.0,0.0,0.0,0.0,0.0,0.0,0.0,0.0,0.0,0.0,0.0,0.0,0.0,0.0,0.0,0.0,0.0,0.0,0.0,-5.9789,-6.0732,-6.2053,-6.38,-6.3988,-6.4453,-6.5425,-6.4453,-6.4453,-6.5336,-6.4453,-6.4545,-6.5425,-6.5425,-6.5425,-6.5425,-6.5425,-6.6235,-6.7407,-6.7407,-6.8241,-6.9481,-7.0183,-7.092,-7.1804,-7.2886,-7.4112,-7.5119,-7.5513,-7.6003,-7.6342,-7.6342,-7.6342,-7.6475,-7.6956,-7.7009,-7.7218,-7.822,-7.84,-7.8506,-7.8979,-7.9079,-7.8816,-7.8065,-7.844,-7.8801,-7.8209,-7.8927,-7.9718,-7.9964,-8.0163,-8.0047,-7.9321,-7.865,-7.7993,-7.7456,-7.6814,-7.6475,-7.6651,-7.677,-7.6846,-7.6995,-7.7043,-7.7101,-7.7101,-7.7101,-7.7101,-7.7101,-7.7101,-7.7101,-7.7101,-7.7101,-7.7064,-7.6995,-7.6887,-7.6738,-7.6591,-7.6397,-7.5895,-4.1172,-4.1172,-4.1172,-4.1172,-4.1402,-4.1948,-4.2849,-4.3713,-4.4344,-4.4535,-4.6032,0.0,0.0,0.0,0.0,0.0,0.0,0.0,0.0,0.0,0.0,0.0,0.0,0.0,0.0,0.0,0.0,0.0,0.0,0.0,0.0,0.0,0.0,-5.9895,-6.101,-6.2319,-6.3894,-6.4207,-6.4761,-6.5425,-6.5033,-6.5033,-6.5425,-6.5033,-6.5033,-6.5425,-6.5425,-6.5425,-6.5425,-6.5425,-6.5888,-6.6912,-6.7731,-6.8551,-6.9411,-6.9691,-7.0007,-7.0429,-7.1845,-7.2932,-7.3869,-7.4941,-7.5796,-7.6275,-7.6275,-7.6275,-7.6342,-7.6541,-7.657,-7.6765,-7.771,-7.8165,-7.8437,-7.8633,-7.8878,-7.9041,-7.8703,-7.8891,-7.9102,-7.9001,-7.9418,-7.9908,-8.0154,-8.0392,-8.0238,-7.9398,-7.8859,-7.8209,-7.7483,-7.6931,-7.6614,-7.6669,-7.6816,-7.6882,-7.7004,-7.7043,-7.7101,-7.7101,-7.7101,-7.7101,-7.7101,-7.7101,-7.7101,-7.7101,-7.7101,-7.7066,-7.6984,-7.6877,-7.6738,-7.6591,-7.6436,-7.6204,-4.1172,-4.1172,-4.1172,-4.1172,-4.1172,-4.1402,-4.1972,-4.2862,-4.3746,-4.3943,-4.5446,-4.7295,-4.8881,0.0,0.0,0.0,0.0,0.0,0.0,0.0,0.0,0.0,0.0,0.0,0.0,0.0,0.0,0.0,0.0,0.0,0.0,0.0,0.0,0.0,-6.152,-6.281,-6.3894,-6.4393,-6.4976,-6.5425,-6.5425,-6.5425,-6.5425,-6.5425,-6.5425,-6.5425,-6.5425,-6.5425,-6.5425,-6.5425,-6.5834,-6.6457,-6.765,-6.8474,-6.9043,-6.9043,-6.9367,-6.9941,-7.1219,-7.2332,-7.3404,-7.469,-7.5649,-7.6275,-7.6275,-7.6275,-7.6275,-7.6275,-7.6275,-7.6475,-7.7045,-7.7592,-7.8053,-7.8329,-7.8633,-7.8929,-7.9066,-7.9116,-7.9214,-7.9453,-7.9645,-7.9908,-8.0154,-8.0392,-8.0314,-7.9848,-7.91,-7.8436,-7.7975,-7.7211,-7.6687,-7.6687,-7.683,-7.6933,-7.6975,-7.7036,-7.7101,-7.7101,-7.7101,-7.7101,-7.7101,-7.7101,-7.7101,-7.7101,-7.7117,-7.7031,-7.6926,-7.6807,-7.669,-7.6514,-7.6436,-7.6397,-4.1172,-4.1172,-4.1172,-4.1172,0.0,-4.1172,-4.1196,-4.2274,-4.3537,-4.4367,-4.5647,-4.6998,-4.7829,0.0,0.0,0.0,0.0,0.0,0.0,0.0,0.0,0.0,0.0,0.0,0.0,0.0,0.0,0.0,0.0,0.0,0.0,0.0,0.0,0.0,-6.2053,-6.3452,-6.3894,-6.4393,-6.4976,-6.5425,-6.5425,-6.5425,-6.5425,-6.5425,-6.5425,-6.5425,-6.5425,-6.5425,-6.5425,-6.5425,-6.5834,-6.6491,-6.7161,-6.7811,-6.8397,-6.8397,-6.9269,-7.0574,-7.1304,-7.262,-7.4119,-7.4849,-7.5659,-7.6275,-7.6275,-7.6275,-7.6275,-7.6275,-7.6275,-7.6275,-7.6275,-7.6636,-7.7231,-7.8165,-7.8383,-7.8528,-7.8979,-7.9116,-7.9214,-7.9453,-7.9645,-7.9908,-8.0154,-8.0392,-8.0578,-8.0778,-7.9537,-7.8683,-7.8921,-7.7642,-7.6687,-7.6687,-7.683,-7.6882,-7.6882,-7.702,-7.7101,-7.7101,-7.7101,-7.7101,-7.7101,-7.7101,-7.7101,-7.7101,-7.7105,-7.698,-7.6808,-7.6715,-7.6591,-7.6397,-7.6397,-7.6397,-4.1172,-4.1172,0.0,-4.1172,0.0,0.0,0.0,-4.1789,-4.2193,0.0,-4.5204,-4.6537,-4.7745,0.0,0.0,0.0,0.0,0.0,0.0,0.0,0.0,0.0,0.0,0.0,0.0,0.0,0.0,0.0,0.0,0.0,0.0,0.0,0.0,0.0,-6.1418,-6.245,-6.2841,-6.4114,-6.4577,-6.436,-6.5033,-6.5425,-6.5425,-6.5425,-6.5425,-6.5425,-6.5425,-6.5425,-6.5425,-6.5425,-6.5834,-6.6406,-6.666,-6.7078,-6.765,-6.765,-6.83,-6.9199,-7.0218,-7.1301,-7.2547,-7.418,-7.506,-7.5551,-7.613,-7.6275,-7.6275,-7.6275,-7.6275,-7.6275,-7.6275,-7.6409,-7.6765,-7.771,-7.8165,-7.8528,-7.8979,-7.9263,-7.9453,-7.969,-7.9908,-8.0116,-8.0392,-8.0576,-8.0328,-7.9204,-7.8949,-7.8518,-7.7526,-7.6962,-7.6687,-7.6687,-7.683,-7.6882,-7.6882,-7.702,-7.7101,-7.7101,-7.7101,-7.7101,-7.7101,-7.7101,-7.7117,-7.7097,-7.7105,-7.6977,-7.6727,-7.6728,-7.6591,-7.6397,-7.6397,-7.6397,-4.1172,-4.1341,0.0,-4.1509,-4.1653,-4.1846,-4.1942,0.0,0.0,0.0,0.0,-4.5257,0.0,0.0,0.0,0.0,0.0,0.0,0.0,0.0,0.0,0.0,0.0,0.0,0.0,0.0,0.0,0.0,0.0,0.0,0.0,0.0,0.0,0.0,-6.1184,-6.2121,-6.1853,-6.3894,-6.4577,-6.3894,-6.4943,-6.5425,-6.5425,-6.5425,-6.5425,-6.5425,-6.5425,-6.5425,-6.5425,-6.5425,-6.5658,-6.5975,-6.5975,-6.6406,-6.6995,-6.6995,-6.7696,-6.874,-6.9613,-7.0699,-7.2075,-7.3708,-7.4627,-7.5261,-7.6058,-7.6275,-7.6275,-7.6275,-7.6275,-7.6275,-7.6275,-7.6409,-7.6765,-7.7533,-7.794,-7.8275,-7.8929,-7.9214,-7.9416,-7.9778,-7.995,-8.0116,-8.0468,-8.0681,-8.0382,-7.9131,-7.8747,-7.8126,-7.6863,-7.6687,-7.6687,-7.6687,-7.683,-7.6882,-7.6882,-7.702,-7.7101,-7.7101,-7.7101,-7.7107,-7.7087,-7.7087,-7.7094,-7.7106,-7.7069,-7.6951,-7.6716,-7.6713,-7.6591,-7.6397,-7.6397,-7.6397,-4.1172,0.0,0.0,-4.1966,-4.2399,0.0,0.0,0.0,0.0,0.0,0.0,0.0,0.0,0.0,0.0,0.0,0.0,0.0,0.0,0.0,0.0,0.0,0.0,0.0,0.0,0.0,0.0,0.0,0.0,0.0,0.0,0.0,0.0,-5.8634,-6.1051,-6.199,-6.101,-6.3862,-6.4761,0.0,-6.4852,-6.5425,-6.5425,-6.5425,-6.5425,-6.5425,-6.5425,-6.5425,-6.5425,-6.5425,-6.5425,-6.5425,-6.5425,-6.5746,-6.632,-6.632,-6.7339,-6.8752,-6.9273,-7.0487,-7.2135,-7.3501,-7.4326,-7.5086,-7.6022,-7.6275,-7.6275,-7.6275,-7.6275,-7.6275,-7.6275,-7.6636,-7.7107,-7.7592,-7.771,-7.7997,-7.8929,-7.9165,-7.9273,-7.9734,-7.9827,-8.0034,-8.043,-8.0639,-8.0477,-7.9852,-7.8663,-7.7619,-7.6803,-7.6687,-7.6687,-7.6687,-7.6805,-7.6882,-7.6933,-7.702,-7.7101,-7.7107,-7.7107,-7.7087,-7.7108,-7.7106,-7.7108,-7.7108,-7.7039,-7.6907,-7.6702,-7.6699,-7.6575,-7.6397,-7.6397,-7.6397,-4.1172,-4.1581,0.0,0.0,-4.2663,-4.3433,0.0,0.0,0.0,0.0,0.0,0.0,0.0,0.0,0.0,0.0,0.0,0.0,0.0,0.0,0.0,0.0,0.0,0.0,0.0,0.0,0.0,0.0,0.0,0.0,0.0,0.0,0.0,-5.8991,-5.994,-6.0328,-6.0211,-6.2875,-6.3673,0.0,-6.4545,-6.5425,-6.5425,-6.5425,-6.5425,-6.5425,-6.5425,-6.5425,-6.5425,-6.5425,-6.5425,-6.5425,-6.5425,-6.5481,-6.5658,-6.5867,-6.6491,-6.7373,-6.8531,-6.9122,-6.9912,-7.2916,-7.3596,-7.3649,-7.5706,-7.6275,-7.6275,-7.6275,-7.6275,-7.6275,-7.6275,-7.6636,-7.7107,-7.7592,-7.7997,-7.8421,-7.8979,-7.9416,-7.9652,-7.9784,-8.0116,-8.043,-8.0677,-8.04,-7.9725,-7.8589,-7.7583,-7.692,-7.6726,-7.6687,-7.6704,-7.6786,-7.6833,-7.6905,-7.6985,-7.7036,-7.7117,-7.71,-7.71,-7.7068,-7.7026,-7.707,-7.7069,-7.7029,-7.7011,-7.6877,-7.6682,-7.6704,-7.6575,-7.6397,-7.6397,-7.6397,-4.1172,0.0,0.0,-4.2976,0.0,0.0,0.0,0.0,0.0,0.0,0.0,0.0,0.0,0.0,0.0,0.0,0.0,0.0,0.0,0.0,0.0,0.0,0.0,0.0,0.0,0.0,0.0,0.0,0.0,0.0,0.0,-5.7303,-5.764,-5.8445,-5.9302,-5.9622,-5.9285,-6.1891,-6.2875,-6.2355,-6.3955,-6.4943,-6.5425,-6.5425,-6.5425,-6.5425,-6.5425,-6.5425,-6.5425,-6.5425,-6.5425,-6.5425,-6.5514,-6.5603,-6.5603,-6.5867,-6.6491,-6.7291,-6.8024,-6.8566,-6.9302,-7.1938,-7.2824,-7.3187,-7.5133,-7.5985,-7.6275,-7.6275,-7.6275,-7.6275,-7.6275,-7.6829,-7.7413,-7.7651,-7.8053,-7.8544,-7.9128,-7.9462,-7.9734,-7.995,-8.0157,-8.0316,-8.0246,-7.9432,-7.865,-7.8088,-7.727,-7.6687,-7.6687,-7.6687,-7.6721,-7.6816,-7.6846,-7.6944,-7.7004,-7.7043,-7.7117,-7.7105,-7.7106,-7.707,-7.7,-7.7013,-7.7044,-7.6997,-7.7004,-7.6909,-7.6687,-7.6687,-7.6575,-7.6397,-7.6397,-7.6397,-4.1172,0.0,-4.3024,-4.4082,-4.4347,0.0,0.0,0.0,0.0,0.0,0.0,0.0,0.0,0.0,0.0,0.0,0.0,0.0,0.0,0.0,0.0,0.0,0.0,0.0,0.0,0.0,0.0,0.0,0.0,0.0,-5.7303,-5.7303,-5.7416,-5.7892,-5.9009,-5.9332,-5.8803,-6.0979,-6.2027,-6.1901,-6.2908,-6.3887,-6.4745,-6.4967,-6.5213,-6.5425,-6.5425,-6.5425,-6.5425,-6.5425,-6.5425,-6.5514,-6.5692,-6.578,-6.5867,-6.6095,-6.6745,-6.7535,-6.7696,-6.8215,-6.9083,-7.1019,-7.2014,-7.2905,-7.4596,-7.5659,-7.6275,-7.6275,-7.6275,-7.6275,-7.6409,-7.7082,-7.771,-7.7826,-7.822,-7.8789,-7.9406,-7.9546,-7.9645,-7.9923,-7.9971,-7.9779,-7.9281,-7.84,-7.7775,-7.7757,-7.7153,-7.6687,-7.6687,-7.6687,-7.6721,-7.683,-7.6885,-7.6905,-7.7012,-7.7082,-7.7083,-7.7068,-7.7069,-7.7066,-7.6981,-7.702,-7.702,-7.702,-7.6994,-7.6897,-7.6687,-7.6687,-7.6575,-7.6397,-7.6397,-7.6397,0.0,0.0,-4.3024,0.0,-4.4347,-4.4323,0.0,0.0,0.0,0.0,0.0,0.0,0.0,0.0,0.0,0.0,0.0,0.0,0.0,0.0,0.0,0.0,0.0,0.0,0.0,0.0,0.0,0.0,0.0,0.0,-5.7303,-5.7303,-5.7528,-5.8085,-5.8305,-5.8634,-5.8991,-6.0285,-6.0599,-6.0012,-6.1078,-6.1758,-6.1886,-6.3382,-6.4577,-6.5425,-6.5425,-6.5425,-6.5425,-6.5425,-6.5514,-6.578,-6.578,-6.5955,-6.6095,-6.6302,-6.6507,-6.6812,-6.765,-6.7569,-6.7625,-7.0627,-7.1658,-7.2183,-7.4424,-7.5659,-7.6275,-7.6275,-7.6275,-7.6409,-7.6829,-7.7292,-7.7826,-7.822,-7.884,-7.9369,-7.95,-7.9645,-7.9637,-7.9165,-7.8956,-7.8594,-7.7841,-7.7844,-7.7718,-7.6998,-7.6764,-7.6687,-7.6687,-7.6687,-7.6754,-7.6858,-7.687,-7.6965,-7.7089,-7.7101,-7.7091,-7.7026,-7.7024,-7.7,-7.6983,-7.7011,-7.7011,-7.7011,-7.6999,-7.6897,-7.6687,-7.6687,-7.6575,-7.6397,-7.6397,-7.6397,-4.1557,-4.2182,-4.2952,0.0,-4.4106,-4.4347,0.0,0.0,0.0,0.0,0.0,0.0,0.0,0.0,0.0,0.0,0.0,0.0,0.0,0.0,0.0,0.0,0.0,0.0,0.0,0.0,0.0,0.0,0.0,-5.7303,-5.7303,-5.7303,-5.7528,-5.8003,-5.8085,-5.8445,-5.8882,-5.9138,-5.9192,-5.9101,-6.0289,-6.1059,-6.1655,-6.2349,-6.3427,-6.4577,-6.5123,-6.5425,-6.5425,-6.5425,-6.5514,-6.5603,-6.5692,-6.5955,-6.6095,-6.6421,-6.6592,-6.6728,-6.7195,-6.7112,-6.7146,-6.9512,-7.0514,-7.1293,-7.32,-7.4645,-7.5623,-7.5623,-7.5623,-7.5756,-7.6235,-7.636,-7.6513,-7.711,-7.7554,-7.7974,-7.8377,-7.8887,-7.9127,-7.867,-7.8223,-7.7846,-7.7626,-7.7387,-7.7153,-7.6764,-7.6687,-7.6687,-7.6687,-7.6738,-7.6801,-7.687,-7.6916,-7.7004,-7.7095,-7.7083,-7.7067,-7.6983,-7.7005,-7.6997,-7.6999,-7.6999,-7.6999,-7.6999,-7.6999,-7.6897,-7.6687,-7.6687,-7.6575,-7.6397,-7.6397,-7.6397,0.0,0.0,-4.2711,-4.3361,-4.3818,-4.4178,0.0,0.0,0.0,0.0,0.0,0.0,0.0,0.0,0.0,0.0,0.0,0.0,0.0,0.0,0.0,0.0,0.0,0.0,0.0,0.0,0.0,0.0,0.0,-5.7158,-5.7303,-5.7303,-5.747,-5.7658,-5.7849,-5.8119,-5.8297,-5.8038,-5.8134,-5.8393,-5.9471,-6.0421,-6.1101,-6.1569,-6.234,-6.3437,-6.4383,-6.4862,-6.4895,-6.5061,-6.516,-6.5249,-6.5713,-6.6042,-6.6215,-6.6473,-6.6677,-6.6812,-6.7029,-6.7112,-6.7325,-6.8978,-7.0021,-7.0947,-7.2263,-7.3704,-7.4826,-7.4826,-7.4856,-7.5115,-7.558,-7.558,-7.5605,-7.6231,-7.6563,-7.6889,-7.7407,-7.8027,-7.8366,-7.8059,-7.7554,-7.7214,-7.7357,-7.7001,-7.6687,-7.6687,-7.6687,-7.6687,-7.6687,-7.6738,-7.683,-7.687,-7.6926,-7.702,-7.7073,-7.7097,-7.707,-7.7013,-7.7017,-7.7004,-7.6999,-7.6999,-7.6999,-7.6999,-7.6999,-7.6897,-7.6721,-7.6687,-7.6594,-7.6444,-7.6421,-7.6281,0.0,-4.199,0.0,-4.3265,0.0,0.0,0.0,0.0,0.0,0.0,0.0,0.0,0.0,0.0,0.0,0.0,0.0,0.0,0.0,0.0,0.0,0.0,0.0,0.0,0.0,0.0,0.0,0.0,0.0,-5.6694,-5.7274,-5.7303,-5.7266,-5.7202,-5.7281,-5.7202,-5.7214,-5.7516,-5.7648,-5.7715,-5.8654,-5.9222,-5.9254,-6.0945,-6.1789,-6.1854,-6.2903,-6.3372,-6.3438,-6.4133,-6.4573,-6.4814,-6.5741,-6.6215,-6.6507,-6.6728,-6.6812,-6.6896,-6.765,-6.7935,-6.825,-6.9778,-7.0907,-7.1723,-7.2496,-7.3305,-7.3993,-7.3993,-7.4279,-7.4738,-7.5174,-7.5587,-7.5977,-7.6504,-7.6927,-7.7278,-7.732,-7.7224,-7.7169,-7.7162,-7.6777,-7.6466,-7.6488,-7.6575,-7.6687,-7.6687,-7.6687,-7.6687,-7.6687,-7.6687,-7.6754,-7.6909,-7.6882,-7.6965,-7.7103,-7.7106,-7.7068,-7.7004,-7.6997,-7.7004,-7.6999,-7.6999,-7.6999,-7.6999,-7.6999,-7.6923,-7.6777,-7.6721,-7.6671,-7.6612,-7.6466,-7.5972,0.0,0.0,0.0,-4.3223,0.0,0.0,0.0,0.0,0.0,0.0,0.0,0.0,0.0,0.0,0.0,0.0,0.0,0.0,0.0,0.0,0.0,0.0,0.0,0.0,0.0,0.0,0.0,0.0,0.0,0.0,-5.6084,-5.6304,-5.6297,-5.628,-5.6633,-5.6763,-5.6496,-5.7212,-5.7125,-5.6296,-5.7277,-5.8074,-5.8767,-5.9379,-6.0207,-6.1337,-6.1712,-6.2411,-6.3305,-6.357,-6.4108,-6.4714,-6.5034,-6.5727,-6.6507,-6.6592,-6.7029,-6.765,-6.7856,-6.8293,-6.8978,-7.0025,-7.0585,-7.0936,-7.1737,-7.2509,-7.3188,-7.3505,-7.369,-7.4015,-7.4754,-7.4614,-7.4512,-7.5116,-7.5728,-7.616,-7.612,-7.6207,-7.6301,-7.6419,-7.6417,-7.6433,-7.6594,-7.6651,-7.6687,-7.6687,-7.6687,-7.6687,-7.6687,-7.6738,-7.6816,-7.687,-7.6955,-7.6989,-7.7105,-7.707,-7.7019,-7.6997,-7.6995,-7.6994,-7.6999,-7.6999,-7.6999,-7.6999,-7.6999,-7.6923,-7.6816,-7.6721,-7.6361,-7.5759,-7.5718,-7.5188,-4.2849,0.0,0.0,0.0,0.0,0.0,0.0,0.0,0.0,0.0,0.0,0.0,0.0,0.0,0.0,0.0,0.0,0.0,0.0,0.0,0.0,0.0,0.0,0.0,0.0,0.0,0.0,0.0,0.0,0.0,-5.5387,-5.5604,-5.5811,-5.5712,-5.6064,-5.596,-5.5508,-5.6782,-5.6869,-5.5752,-5.6994,-5.799,-5.8619,-5.8619,-5.9249,-6.039,-6.0622,-6.1417,-6.2577,-6.2808,-6.3425,-6.4261,-6.4667,-6.5493,-6.6388,-6.6592,-6.7195,-6.8014,-6.8293,-6.8903,-6.9707,-7.0507,-7.0811,-7.0878,-7.1368,-7.1893,-7.2418,-7.2911,-7.3113,-7.3403,-7.4115,-7.4064,-7.3991,-7.4568,-7.5133,-7.5493,-7.5589,-7.578,-7.5957,-7.6135,-7.6366,-7.6516,-7.6669,-7.6687,-7.6687,-7.6687,-7.6687,-7.6687,-7.6687,-7.6738,-7.6816,-7.687,-7.6955,-7.7004,-7.7069,-7.7026,-7.7005,-7.7004,-7.6994,-7.6999,-7.6999,-7.6999,-7.6999,-7.6999,-7.6999,-7.6975,-7.6858,-7.6498,-7.6005,-7.5408,-7.5042,-7.4537,0.0,0.0,0.0,0.0,0.0,0.0,0.0,0.0,0.0,0.0,0.0,0.0,0.0,0.0,0.0,0.0,0.0,0.0,0.0,0.0,0.0,0.0,0.0,0.0,0.0,0.0,0.0,0.0,0.0,-5.4749,-5.5329,-5.5654,-5.5789,-5.5664,-5.5377,-5.495,-5.4291,-5.6062,-5.6694,-5.6056,-5.7952,-5.8866,-5.8866,-5.8866,-5.8866,-5.8933,-5.9661,-6.039,-6.1119,-6.1848,-6.2577,-6.3391,-6.4552,-6.5426,-6.6148,-6.661,-6.7325,-6.8172,-6.8978,-6.9707,-7.0507,-7.1304,-7.1494,-7.1494,-7.1494,-7.1494,-7.162,-7.2071,-7.2537,-7.3017,-7.3401,-7.3991,-7.4649,-7.5094,-7.5354,-7.5589,-7.5749,-7.5985,-7.6173,-7.6366,-7.6536,-7.6687,-7.6687,-7.6687,-7.6687,-7.6687,-7.6687,-7.6687,-7.6687,-7.6687,-7.6754,-7.6858,-7.6882,-7.695,-7.6987,-7.698,-7.699,-7.7011,-7.6999,-7.6999,-7.6999,-7.6999,-7.6999,-7.696,-7.696,-7.696,-7.6882,-7.604,-7.5571,-7.5532,-7.4506,-7.3993,-4.48,0.0,0.0,0.0,0.0,0.0,0.0,0.0,0.0,0.0,0.0,0.0,0.0,0.0,0.0,0.0,0.0,0.0,0.0,0.0,0.0,0.0,0.0,0.0,0.0,0.0,0.0,0.0,-5.3791,-5.3849,-5.4023,-5.5189,-5.5671,-5.5236,-5.6056,-5.6124,-5.544,-5.667,-5.6959,-5.6252,-5.7478,-5.8104,-5.8104,-5.8104,-5.8403,-5.8899,-5.9131,-5.9628,-6.0357,-6.1086,-6.1983,-6.3016,-6.3953,-6.4942,-6.5867,-6.6525,-6.7696,-6.8903,-6.9091,-7.006,-7.124,-7.1431,-7.1494,-7.1494,-7.1494,-7.1494,-7.1682,-7.248,-7.2798,-7.3087,-7.3991,-7.4611,-7.5055,-7.5171,-7.5459,-7.578,-7.5985,-7.6199,-7.6343,-7.6389,-7.6536,-7.6687,-7.6687,-7.6687,-7.6687,-7.6687,-7.6687,-7.6687,-7.6687,-7.6687,-7.6721,-7.6844,-7.6855,-7.6933,-7.6992,-7.7016,-7.7004,-7.7011,-7.6999,-7.6999,-7.6999,-7.6999,-7.6688,-7.6064,-7.6064,-7.5441,-7.4194,-7.5145,-7.5298,-7.4637,-7.3045,-7.2313,-4.5742,-4.5688,-4.5688,0.0,0.0,0.0,-4.6196,-4.7784,0.0,0.0,0.0,0.0,0.0,0.0,0.0,0.0,0.0,0.0,0.0,0.0,0.0,0.0,0.0,0.0,0.0,0.0,0.0,-5.35,-5.35,-5.3594,-5.3745,-5.45,-5.5018,-5.5222,-5.6088,-5.6194,-5.5531,-5.6488,-5.6556,-5.5845,-5.6882,-5.7342,-5.7342,-5.7342,-5.7574,-5.8005,-5.8303,-5.8866,-5.9595,-6.0651,-6.1714,-6.2799,-6.3997,-6.5149,-6.6187,-6.7342,-6.86,-6.9707,-6.9707,-7.0507,-7.1494,-7.1494,-7.1494,-7.1494,-7.1494,-7.162,-7.1988,-7.265,-7.3193,-7.3752,-7.4438,-7.4937,-7.5209,-7.5427,-7.5686,-7.5985,-7.616,-7.6389,-7.6516,-7.6516,-7.6632,-7.6687,-7.6687,-7.6687,-7.6687,-7.6687,-7.6687,-7.6687,-7.6687,-7.6687,-7.6721,-7.6816,-7.6866,-7.6939,-7.6992,-7.7013,-7.6989,-7.7011,-7.6649,-7.6454,-7.6454,-7.6103,-7.5674,-7.5168,-7.5168,-7.4466,-7.3103,-7.408,-7.4094,-7.3237,-7.2535,-7.2054,-4.6623,-4.6672,-4.6645,-4.6591,0.0,0.0,-4.6692,-4.7521,-4.8458,0.0,0.0,0.0,0.0,0.0,0.0,0.0,0.0,0.0,0.0,0.0,0.0,0.0,0.0,0.0,0.0,-5.3506,-5.3506,-5.3506,-5.3506,-5.3657,-5.4072,-5.4122,-5.4483,-5.5249,-5.5847,-5.5732,-5.5058,-5.5918,-5.601,-5.5345,-5.6303,-5.668,-5.668,-5.668,-5.668,-5.6713,-5.7454,-5.8217,-5.9093,-6.0326,-6.1501,-6.2665,-6.4359,-6.5627,-6.6695,-6.8448,-6.9637,-7.0371,-7.0371,-7.0878,-7.1494,-7.1494,-7.1557,-7.1557,-7.1557,-7.1927,-7.2365,-7.2853,-7.3703,-7.4568,-7.4737,-7.5018,-7.5392,-7.5686,-7.5985,-7.616,-7.6366,-7.6575,-7.6687,-7.6687,-7.6687,-7.6687,-7.6687,-7.6687,-7.6687,-7.6687,-7.6687,-7.6687,-7.6687,-7.6687,-7.6721,-7.6801,-7.6866,-7.6939,-7.699,-7.7013,-7.6989,-7.7011,-7.6259,-7.583,-7.583,-7.5012,-7.4505,-7.4388,-7.4194,-7.3726,-7.2947,-7.3064,-7.2635,-7.1817,-7.2596,-7.2522,-4.7947,-4.7893,0.0,0.0,0.0,0.0,-4.7652,-4.8322,-4.9154,0.0,0.0,0.0,0.0,0.0,0.0,0.0,0.0,0.0,0.0,0.0,0.0,0.0,0.0,0.0,0.0,-5.3435,-5.3729,-5.3729,-5.3729,-5.3766,-5.3839,-5.5162,-5.5721,-5.5328,-5.6691,-5.6756,-5.5476,-5.627,-5.6282,-5.5589,-5.6338,-5.668,-5.668,-5.668,-5.668,-5.679,-5.7381,-5.8413,-5.9655,-6.0476,-6.1316,-6.2539,-6.4229,-6.5515,-6.6612,-6.7788,-6.9177,-7.0371,-7.0371,-7.0878,-7.1494,-7.1494,-7.1744,-7.2071,-7.2071,-7.2365,-7.2816,-7.3246,-7.4038,-7.4737,-7.4778,-7.5243,-7.5686,-7.578,-7.6095,-7.6366,-7.6389,-7.6575,-7.6687,-7.6687,-7.6687,-7.6687,-7.6687,-7.6687,-7.6687,-7.6687,-7.6687,-7.6687,-7.6687,-7.6687,-7.6726,-7.6704,-7.6838,-7.6912,-7.6935,-7.6974,-7.7004,-7.7004,-7.6855,-7.6765,-7.6765,-7.5908,-7.5129,-7.4427,-7.3025,-7.2206,-7.205,-7.2752,-7.2635,-7.1817,-7.1973,-7.1973,0.0,0.0,0.0,-4.7866,0.0,0.0,0.0,-4.8878,-4.9552,0.0,0.0,0.0,0.0,0.0,0.0,0.0,0.0,0.0,0.0,0.0,0.0,0.0,0.0,0.0,0.0,-5.3627,-5.3819,-5.3819,-5.3516,-5.3586,-5.4145,-5.4945,-5.5464,-5.5679,-5.6329,-5.6349,-5.562,-5.5984,-5.5984,-5.562,-5.6349,-5.668,-5.668,-5.6987,-5.7139,-5.7214,-5.7775,-5.8637,-5.9689,-6.0758,-6.1654,-6.2713,-6.4665,-6.6074,-6.72,-6.8638,-6.9931,-7.0943,-7.0943,-7.1204,-7.1557,-7.1805,-7.2011,-7.2248,-7.248,-7.2871,-7.3298,-7.374,-7.4305,-7.4819,-7.4819,-7.5315,-7.581,-7.5928,-7.616,-7.6433,-7.6516,-7.6632,-7.6687,-7.6687,-7.6687,-7.6687,-7.6687,-7.6687,-7.6687,-7.6687,-7.6687,-7.6687,-7.6687,-7.6687,-7.6687,-7.6687,-7.6448,-7.6443,-7.6848,-7.6583,-7.6409,-7.6342,-7.5931,-7.5519,-7.5051,-7.4233,-7.3531,-7.3103,-7.2245,-7.1817,-7.1817,-7.2245,-7.2245,-7.1817,-7.1817,-7.1743,0.0,0.0,0.0,0.0,0.0,-4.9398,0.0,0.0,0.0,0.0,0.0,0.0,0.0,0.0,0.0,0.0,0.0,0.0,0.0,0.0,0.0,0.0,0.0,0.0,0.0,-5.3802,-5.3896,-5.3896,-5.3407,-5.3528,-5.4423,-5.455,-5.4934,-5.5927,-5.571,-5.562,-5.562,-5.562,-5.562,-5.562,-5.6349,-5.6757,-5.6911,-5.7364,-5.7662,-5.7775,-5.8351,-5.9076,-6.0038,-6.1224,-6.2266,-6.3274,-6.5091,-6.6489,-6.7678,-6.9453,-7.0563,-7.1313,-7.1583,-7.162,-7.1744,-7.2189,-7.2365,-7.2537,-7.3017,-7.3387,-7.374,-7.4113,-7.4519,-7.4819,-7.4901,-7.5383,-7.5899,-7.6121,-7.632,-7.6496,-7.6651,-7.6687,-7.6687,-7.6687,-7.6687,-7.6687,-7.6687,-7.6687,-7.6687,-7.6687,-7.6687,-7.6687,-7.6687,-7.657,-7.6454,-7.6454,-7.5824,-7.5662,-7.6375,-7.5884,-7.5521,-7.5464,-7.4811,-7.4099,-7.3397,-7.2529,-7.1983,-7.1817,-7.1817,-7.1817,-7.1817,-7.1599,-7.1599,-7.1817,-7.1599,-7.142,0.0,0.0,0.0,0.0,-5.0844,0.0,0.0,0.0,0.0,0.0,0.0,0.0,0.0,0.0,0.0,0.0,0.0,0.0,0.0,0.0,0.0,0.0,0.0,0.0,0.0,0.0,-5.4065,-5.4065,-5.4002,-5.4025,-5.4112,-5.4864,-5.5328,-5.5491,-5.5522,-5.562,-5.562,-5.562,-5.562,-5.562,-5.6349,-5.6987,-5.7514,-5.7588,-5.7848,-5.8351,-5.8909,-6.0013,-6.1432,-6.2086,-6.3164,-6.4532,-6.5082,-6.6013,-6.7124,-6.8435,-6.958,-7.0651,-7.1732,-7.213,-7.2189,-7.2686,-7.3034,-7.3452,-7.3923,-7.4104,-7.4197,-7.4387,-7.4611,-7.4899,-7.5277,-7.5741,-7.6121,-7.6343,-7.6516,-7.6669,-7.6726,-7.6687,-7.6687,-7.6687,-7.6687,-7.6687,-7.6687,-7.6687,-7.6687,-7.6687,-7.6687,-7.6687,-7.6687,-7.6065,-7.5638,-7.5638,-7.4967,-7.4564,-7.4681,-7.4679,-7.4648,-7.4648,-7.4546,-7.442,-7.4342,-7.3505,-7.2656,-7.1817,-7.1817,-7.1817,-7.1817,-7.0848,-7.0862,-7.1778,-7.0809,-7.0347,0.0,0.0,0.0,0.0,0.0,0.0,-5.2562,0.0,-5.2276,0.0,0.0,0.0,0.0,0.0,0.0,0.0,0.0,0.0,0.0,0.0,0.0,0.0,0.0,0.0,0.0,0.0,0.0,0.0,-5.5312,-5.5763,-5.6034,-5.6503,-5.6887,-5.7147,-5.6337,-5.5947,-5.5947,-5.5947,-5.5744,-5.5269,-5.6925,-5.7611,-5.7454,-5.8217,-5.8702,-5.8978,-5.9551,-6.0133,-6.0796,-6.1936,-6.2775,-6.3512,-6.5052,-6.6447,-6.7754,-6.8898,-7.0205,-7.155,-7.2312,-7.263,-7.265,-7.3087,-7.354,-7.3923,-7.4151,-7.4197,-7.4243,-7.4432,-7.474,-7.5056,-7.5417,-7.589,-7.632,-7.6389,-7.6536,-7.6687,-7.6687,-7.6687,-7.6687,-7.6687,-7.6687,-7.657,-7.6065,-7.6376,-7.6687,-7.6687,-7.6298,-7.5988,-7.5988,-7.5249,-7.4744,-7.4744,-7.4109,-7.3861,-7.4369,-7.4017,-7.3758,-7.3758,-7.3267,-7.2986,-7.2986,-7.2626,-7.2257,-7.1877,-7.137,-7.1097,-7.1115,-7.0017,-6.9741,-7.0148,-6.9567,-6.9207,-5.121,0.0,0.0,0.0,0.0,0.0,0.0,0.0,0.0,0.0,0.0,0.0,0.0,0.0,0.0,0.0,0.0,0.0,0.0,0.0,0.0,0.0,0.0,0.0,0.0,0.0,0.0,-5.5636,-5.636,-5.6972,-5.7264,-5.7634,-5.7823,-5.7868,-5.6781,-5.6167,-5.6167,-5.5962,-5.5689,-5.5314,-5.7226,-5.7911,-5.7535,-5.8803,-5.9418,-5.9551,-5.9943,-6.0212,-6.0528,-6.1862,-6.2529,-6.2982,-6.5364,-6.7109,-6.8443,-6.9467,-7.0778,-7.2186,-7.2797,-7.3178,-7.3283,-7.3591,-7.3923,-7.4197,-7.4197,-7.4197,-7.4289,-7.4568,-7.4865,-7.5201,-7.5609,-7.6083,-7.6411,-7.6475,-7.6614,-7.6687,-7.6687,-7.6687,-7.6687,-7.6687,-7.6687,-7.6454,-7.5638,-7.5988,-7.6298,-7.6065,-7.5521,-7.5133,-7.5133,-7.4395,-7.3868,-7.3877,-7.3193,-7.3008,-7.3646,-7.3194,-7.2867,-7.2867,-7.2268,-7.1909,-7.1901,-7.1706,-7.1581,-7.1555,-7.0697,-7.0201,-7.0146,-6.908,-6.8541,-6.8488,-6.8236,-6.8058,0.0,0.0,0.0,-5.3811,0.0,0.0,0.0,0.0,-5.4232,0.0,0.0,0.0,0.0,0.0,-5.5733,-5.7042,0.0,0.0,0.0,0.0,0.0,0.0,0.0,0.0,0.0,0.0,0.0,-5.6536,-5.6701,-5.6787,-5.6787,-5.7453,-5.7442,-5.6697,-5.6336,-5.6167,-5.6099,-5.5382,-5.5382,-5.6099,-5.6884,-5.7604,-5.8074,-5.8938,-5.9617,-6.0107,-6.0107,-6.0528,-6.1336,-6.2073,-6.2845,-6.3823,-6.636,-6.794,-6.8884,-6.9678,-7.0734,-7.1891,-7.309,-7.3789,-7.4151,-7.4151,-7.4197,-7.4197,-7.4197,-7.4197,-7.4297,-7.4901,-7.5094,-7.5268,-7.607,-7.6343,-7.6454,-7.6651,-7.6726,-7.6687,-7.6687,-7.6687,-7.6687,-7.6687,-7.6687,-7.6454,-7.5638,-7.5521,-7.5249,-7.4395,-7.4278,-7.4239,-7.4239,-7.3501,-7.2983,-7.3041,-7.2331,-7.1889,-7.1953,-7.2014,-7.2026,-7.2026,-7.2026,-7.1982,-7.1884,-7.1143,-7.0707,-7.0645,-6.9787,-6.9255,-6.907,-6.8053,-6.7386,-6.7162,-6.7089,-6.7039,0.0,0.0,-5.4839,-5.5318,0.0,0.0,0.0,0.0,0.0,0.0,0.0,0.0,0.0,0.0,-5.7848,-5.8281,-5.8699,0.0,0.0,0.0,0.0,0.0,0.0,0.0,0.0,0.0,0.0,-5.6746,-5.7019,-5.7363,-5.8015,-5.8421,-5.8484,-5.8207,-5.7573,-5.701,-5.6425,-5.621,-5.5904,-5.573,-5.7567,-5.8223,-5.7961,-5.9254,-5.9943,-6.0107,-6.0107,-6.0748,-6.1965,-6.2746,-6.3743,-6.5105,-6.7497,-6.8982,-6.9831,-7.1011,-7.2002,-7.2978,-7.3714,-7.4104,-7.4197,-7.4197,-7.4197,-7.4197,-7.4197,-7.4197,-7.4335,-7.4941,-7.5239,-7.5501,-7.6121,-7.6454,-7.6614,-7.6669,-7.6687,-7.6687,-7.6687,-7.6687,-7.6687,-7.6687,-7.6259,-7.5638,-7.4783,-7.4162,-7.389,-7.4162,-7.3695,-7.3346,-7.3346,-7.2624,-7.2121,-7.2117,-7.1987,-7.1872,-7.1914,-7.1975,-7.1987,-7.1987,-7.1441,-7.1402,-7.1943,-7.0615,-7.0096,-7.0668,-6.9256,-6.8427,-6.8203,-6.716,-6.6535,-6.6376,-6.6179,-6.6047,-5.4068,-5.4929,0.0,-5.6265,-5.6741,0.0,-5.6649,0.0,0.0,0.0,0.0,0.0,0.0,0.0,0.0,-5.9279,-5.9721,-5.9689,0.0,-5.8993,0.0,0.0,0.0,0.0,0.0,0.0,-5.7467,-5.7329,-5.7317,-5.7701,0.0,0.0,-5.8878,-5.8597,-5.807,-5.7298,-5.621,-5.621,-5.6082,-5.5799,-5.7906,-5.8733,-5.8449,-6.0012,-6.0722,-6.0722,-6.0722,-6.145,-6.2557,-6.3346,-6.4374,-6.5757,-6.8327,-6.9701,-7.0401,-7.1812,-7.2955,-7.3789,-7.4104,-7.4197,-7.4197,-7.4197,-7.4197,-7.4243,-7.4305,-7.4394,-7.4563,-7.5548,-7.5704,-7.5831,-7.662,-7.6767,-7.6708,-7.6708,-7.6708,-7.6687,-7.6687,-7.6687,-7.6687,-7.6687,-7.6065,-7.5228,-7.4398,-7.3503,-7.2998,-7.3285,-7.2818,-7.2482,-7.2497,-7.2061,-7.1729,-7.176,-7.1864,-7.1913,-7.1949,-7.1694,-7.1675,-7.1987,-7.1167,-7.0933,-7.1519,-7.0152,-6.9784,-7.0559,-6.8609,-6.7715,-6.8069,-6.6764,-6.6088,-6.5919,-6.5808,-6.5674]}]]